<?xml version="1.0" encoding="utf-8"?>
<gpx xmlns:xsd="http://www.w3.org/2001/XMLSchema" xmlns:xsi="http://www.w3.org/2001/XMLSchema-instance" creator="eT4 META" version="1.1" xsi:schemaLocation="http://www.topografix.com/GPX/1/1 http://www.topografix.com/GPX/1/1/gpx.xsd" xmlns="http://www.topografix.com/GPX/1/1">
  <trk>
    <name>Hallertauer Hopfentour - Landkreis Pfaffenhofen</name>
    <trkseg>
      <trkpt lat="48.52852" lon="11.504758">
        <ele>428.08</ele>
        <time>2022-05-12T00:00:00.0000000+00:00</time>
      </trkpt>
      <trkpt lat="48.528057" lon="11.506146">
        <ele>426.88</ele>
        <time>2022-05-12T00:00:27.9570000+00:00</time>
      </trkpt>
      <trkpt lat="48.527998" lon="11.506786">
        <ele>425.93</ele>
        <time>2022-05-12T00:00:39.5810000+00:00</time>
      </trkpt>
      <trkpt lat="48.528435" lon="11.507888">
        <ele>427.28</ele>
        <time>2022-05-12T00:01:02.6860000+00:00</time>
      </trkpt>
      <trkpt lat="48.528746" lon="11.508816">
        <ele>427.13</ele>
        <time>2022-05-12T00:01:21.3960000+00:00</time>
      </trkpt>
      <trkpt lat="48.528746" lon="11.508816">
        <ele>427.13</ele>
        <time>2022-05-12T00:01:21.3960000+00:00</time>
      </trkpt>
      <trkpt lat="48.529106" lon="11.509677">
        <ele>427.37</ele>
        <time>2022-05-12T00:01:39.7120000+00:00</time>
      </trkpt>
      <trkpt lat="48.529435" lon="11.509827">
        <ele>426.59</ele>
        <time>2022-05-12T00:01:49.0480000+00:00</time>
      </trkpt>
      <trkpt lat="48.529333" lon="11.511269">
        <ele>424.75</ele>
        <time>2022-05-12T00:02:15.1340000+00:00</time>
      </trkpt>
      <trkpt lat="48.529956" lon="11.511335">
        <ele>424.27</ele>
        <time>2022-05-12T00:02:32.0980000+00:00</time>
      </trkpt>
      <trkpt lat="48.530555" lon="11.511366">
        <ele>423.33</ele>
        <time>2022-05-12T00:02:48.3790000+00:00</time>
      </trkpt>
      <trkpt lat="48.530915" lon="11.511579">
        <ele>423.2</ele>
        <time>2022-05-12T00:02:58.8810000+00:00</time>
      </trkpt>
      <trkpt lat="48.531684" lon="11.512077">
        <ele>421.45</ele>
        <time>2022-05-12T00:03:21.6090000+00:00</time>
      </trkpt>
      <trkpt lat="48.531996" lon="11.51211">
        <ele>421.11</ele>
        <time>2022-05-12T00:03:30.1050000+00:00</time>
      </trkpt>
      <trkpt lat="48.53257" lon="11.511925">
        <ele>422.85</ele>
        <time>2022-05-12T00:03:46.0480000+00:00</time>
      </trkpt>
      <trkpt lat="48.532918" lon="11.511815">
        <ele>423.97</ele>
        <time>2022-05-12T00:03:55.7050000+00:00</time>
      </trkpt>
      <trkpt lat="48.533864" lon="11.511769">
        <ele>422.62</ele>
        <time>2022-05-12T00:04:21.4150000+00:00</time>
      </trkpt>
      <trkpt lat="48.534441" lon="11.512124">
        <ele>422.27</ele>
        <time>2022-05-12T00:04:38.3380000+00:00</time>
      </trkpt>
      <trkpt lat="48.534775" lon="11.512196">
        <ele>422.04</ele>
        <time>2022-05-12T00:04:47.5030000+00:00</time>
      </trkpt>
      <trkpt lat="48.536955" lon="11.512027">
        <ele>422.15</ele>
        <time>2022-05-12T00:05:46.7960000+00:00</time>
      </trkpt>
      <trkpt lat="48.537904" lon="11.512294">
        <ele>421.71</ele>
        <time>2022-05-12T00:06:13.0170000+00:00</time>
      </trkpt>
      <trkpt lat="48.539508" lon="11.512234">
        <ele>422.52</ele>
        <time>2022-05-12T00:06:56.6000000+00:00</time>
      </trkpt>
      <trkpt lat="48.54021" lon="11.511905">
        <ele>419.16</ele>
        <time>2022-05-12T00:07:16.5660000+00:00</time>
      </trkpt>
      <trkpt lat="48.540416" lon="11.512207">
        <ele>418.1</ele>
        <time>2022-05-12T00:07:24.3640000+00:00</time>
      </trkpt>
      <trkpt lat="48.540617" lon="11.512666">
        <ele>417.83</ele>
        <time>2022-05-12T00:07:34.2610000+00:00</time>
      </trkpt>
      <trkpt lat="48.540734" lon="11.513136">
        <ele>417.66</ele>
        <time>2022-05-12T00:07:43.2910000+00:00</time>
      </trkpt>
      <trkpt lat="48.54088" lon="11.513657">
        <ele>418.23</ele>
        <time>2022-05-12T00:07:53.4660000+00:00</time>
      </trkpt>
      <trkpt lat="48.541034" lon="11.513932">
        <ele>418.4</ele>
        <time>2022-05-12T00:07:59.9430000+00:00</time>
      </trkpt>
      <trkpt lat="48.54151" lon="11.514457">
        <ele>418.86</ele>
        <time>2022-05-12T00:08:15.9530000+00:00</time>
      </trkpt>
      <trkpt lat="48.5422" lon="11.514865">
        <ele>419.05</ele>
        <time>2022-05-12T00:08:36.0810000+00:00</time>
      </trkpt>
      <trkpt lat="48.542951" lon="11.515411">
        <ele>417.99</ele>
        <time>2022-05-12T00:08:58.7200000+00:00</time>
      </trkpt>
      <trkpt lat="48.543243" lon="11.515846">
        <ele>417.7</ele>
        <time>2022-05-12T00:09:09.8600000+00:00</time>
      </trkpt>
      <trkpt lat="48.543261" lon="11.516628">
        <ele>418.18</ele>
        <time>2022-05-12T00:09:23.9320000+00:00</time>
      </trkpt>
      <trkpt lat="48.543617" lon="11.517707">
        <ele>418.41</ele>
        <time>2022-05-12T00:09:45.6120000+00:00</time>
      </trkpt>
      <trkpt lat="48.544184" lon="11.518024">
        <ele>418.06</ele>
        <time>2022-05-12T00:10:02.0350000+00:00</time>
      </trkpt>
      <trkpt lat="48.545425" lon="11.518726">
        <ele>417.99</ele>
        <time>2022-05-12T00:10:38.0300000+00:00</time>
      </trkpt>
      <trkpt lat="48.546341" lon="11.518465">
        <ele>417.52</ele>
        <time>2022-05-12T00:11:03.3500000+00:00</time>
      </trkpt>
      <trkpt lat="48.546769" lon="11.518507">
        <ele>417.06</ele>
        <time>2022-05-12T00:11:15.0010000+00:00</time>
      </trkpt>
      <trkpt lat="48.547153" lon="11.518987">
        <ele>417.44</ele>
        <time>2022-05-12T00:11:28.5390000+00:00</time>
      </trkpt>
      <trkpt lat="48.547982" lon="11.520039">
        <ele>416.79</ele>
        <time>2022-05-12T00:11:57.9490000+00:00</time>
      </trkpt>
      <trkpt lat="48.54878" lon="11.520814">
        <ele>415.08</ele>
        <time>2022-05-12T00:12:23.7180000+00:00</time>
      </trkpt>
      <trkpt lat="48.548891" lon="11.521734">
        <ele>416.81</ele>
        <time>2022-05-12T00:12:40.5330000+00:00</time>
      </trkpt>
      <trkpt lat="48.549429" lon="11.522558">
        <ele>414.22</ele>
        <time>2022-05-12T00:13:01.3440000+00:00</time>
      </trkpt>
      <trkpt lat="48.549293" lon="11.523153">
        <ele>414.02</ele>
        <time>2022-05-12T00:13:12.6630000+00:00</time>
      </trkpt>
      <trkpt lat="48.549208" lon="11.523366">
        <ele>414.31</ele>
        <time>2022-05-12T00:13:17.1350000+00:00</time>
      </trkpt>
      <trkpt lat="48.551094" lon="11.525559">
        <ele>414.31</ele>
        <time>2022-05-12T00:14:21.7830000+00:00</time>
      </trkpt>
      <trkpt lat="48.553795" lon="11.528436">
        <ele>414.47</ele>
        <time>2022-05-12T00:15:51.5530000+00:00</time>
      </trkpt>
      <trkpt lat="48.557622" lon="11.532459">
        <ele>412.51</ele>
        <time>2022-05-12T00:17:58.1930000+00:00</time>
      </trkpt>
      <trkpt lat="48.559078" lon="11.533505">
        <ele>410.83</ele>
        <time>2022-05-12T00:18:41.9860000+00:00</time>
      </trkpt>
      <trkpt lat="48.561496" lon="11.534336">
        <ele>410.81</ele>
        <time>2022-05-12T00:19:49.3430000+00:00</time>
      </trkpt>
      <trkpt lat="48.561775" lon="11.534625">
        <ele>409.65</ele>
        <time>2022-05-12T00:19:58.5320000+00:00</time>
      </trkpt>
      <trkpt lat="48.562663" lon="11.535846">
        <ele>410.76</ele>
        <time>2022-05-12T00:20:31.1440000+00:00</time>
      </trkpt>
      <trkpt lat="48.564602" lon="11.538528">
        <ele>411.34</ele>
        <time>2022-05-12T00:21:42.5480000+00:00</time>
      </trkpt>
      <trkpt lat="48.565113" lon="11.540158">
        <ele>410.52</ele>
        <time>2022-05-12T00:22:14.9690000+00:00</time>
      </trkpt>
      <trkpt lat="48.5653" lon="11.54088">
        <ele>410.01</ele>
        <time>2022-05-12T00:22:28.9060000+00:00</time>
      </trkpt>
      <trkpt lat="48.565718" lon="11.542028">
        <ele>411.12</ele>
        <time>2022-05-12T00:22:52.4600000+00:00</time>
      </trkpt>
      <trkpt lat="48.56727" lon="11.543809">
        <ele>411.89</ele>
        <time>2022-05-12T00:23:45.3940000+00:00</time>
      </trkpt>
      <trkpt lat="48.568287" lon="11.544831">
        <ele>410.32</ele>
        <time>2022-05-12T00:24:18.5690000+00:00</time>
      </trkpt>
      <trkpt lat="48.57439" lon="11.551307">
        <ele>413.22</ele>
        <time>2022-05-12T00:27:41.1270000+00:00</time>
      </trkpt>
      <trkpt lat="48.575512" lon="11.552239">
        <ele>413.9</ele>
        <time>2022-05-12T00:28:15.9040000+00:00</time>
      </trkpt>
      <trkpt lat="48.576976" lon="11.553321">
        <ele>410.18</ele>
        <time>2022-05-12T00:29:00.1700000+00:00</time>
      </trkpt>
      <trkpt lat="48.577875" lon="11.554431">
        <ele>410.82</ele>
        <time>2022-05-12T00:29:31.7020000+00:00</time>
      </trkpt>
      <trkpt lat="48.579134" lon="11.556347">
        <ele>411.28</ele>
        <time>2022-05-12T00:30:20.2310000+00:00</time>
      </trkpt>
      <trkpt lat="48.580109" lon="11.55734">
        <ele>412.28</ele>
        <time>2022-05-12T00:30:52.1660000+00:00</time>
      </trkpt>
      <trkpt lat="48.581517" lon="11.55783">
        <ele>408.77</ele>
        <time>2022-05-12T00:31:31.4120000+00:00</time>
      </trkpt>
      <trkpt lat="48.582827" lon="11.559437">
        <ele>408.02</ele>
        <time>2022-05-12T00:32:17.2380000+00:00</time>
      </trkpt>
      <trkpt lat="48.584056" lon="11.560159">
        <ele>408.87</ele>
        <time>2022-05-12T00:32:53.0540000+00:00</time>
      </trkpt>
      <trkpt lat="48.585185" lon="11.561267">
        <ele>409.66</ele>
        <time>2022-05-12T00:33:29.6170000+00:00</time>
      </trkpt>
      <trkpt lat="48.585185" lon="11.561267">
        <ele>409.66</ele>
        <time>2022-05-12T00:33:29.6170000+00:00</time>
      </trkpt>
      <trkpt lat="48.586469" lon="11.562828">
        <ele>406.91</ele>
        <time>2022-05-12T00:34:14.3730000+00:00</time>
      </trkpt>
      <trkpt lat="48.587896" lon="11.565031">
        <ele>409.17</ele>
        <time>2022-05-12T00:35:09.7740000+00:00</time>
      </trkpt>
      <trkpt lat="48.589877" lon="11.566657">
        <ele>407.83</ele>
        <time>2022-05-12T00:36:11.0040000+00:00</time>
      </trkpt>
      <trkpt lat="48.590447" lon="11.566848">
        <ele>407.6</ele>
        <time>2022-05-12T00:36:26.8620000+00:00</time>
      </trkpt>
      <trkpt lat="48.59064" lon="11.5673">
        <ele>408.67</ele>
        <time>2022-05-12T00:36:36.5280000+00:00</time>
      </trkpt>
      <trkpt lat="48.592696" lon="11.56862">
        <ele>406.28</ele>
        <time>2022-05-12T00:37:37.2020000+00:00</time>
      </trkpt>
      <trkpt lat="48.593126" lon="11.568502">
        <ele>404.56</ele>
        <time>2022-05-12T00:37:49.0730000+00:00</time>
      </trkpt>
      <trkpt lat="48.59366" lon="11.568994">
        <ele>404.49</ele>
        <time>2022-05-12T00:38:06.0590000+00:00</time>
      </trkpt>
      <trkpt lat="48.593971" lon="11.567408">
        <ele>399.54</ele>
        <time>2022-05-12T00:38:35.7780000+00:00</time>
      </trkpt>
      <trkpt lat="48.594225" lon="11.567406">
        <ele>399.55</ele>
        <time>2022-05-12T00:38:42.6780000+00:00</time>
      </trkpt>
      <trkpt lat="48.594575" lon="11.567547">
        <ele>399.29</ele>
        <time>2022-05-12T00:38:52.5160000+00:00</time>
      </trkpt>
      <trkpt lat="48.595974" lon="11.568159">
        <ele>398.76</ele>
        <time>2022-05-12T00:39:32.0760000+00:00</time>
      </trkpt>
      <trkpt lat="48.596995" lon="11.568773">
        <ele>399</ele>
        <time>2022-05-12T00:40:01.9220000+00:00</time>
      </trkpt>
      <trkpt lat="48.59862" lon="11.569719">
        <ele>397.79</ele>
        <time>2022-05-12T00:40:49.2210000+00:00</time>
      </trkpt>
      <trkpt lat="48.599542" lon="11.569759">
        <ele>397.62</ele>
        <time>2022-05-12T00:41:14.2750000+00:00</time>
      </trkpt>
      <trkpt lat="48.601037" lon="11.570083">
        <ele>396.74</ele>
        <time>2022-05-12T00:41:55.2990000+00:00</time>
      </trkpt>
      <trkpt lat="48.601959" lon="11.570219">
        <ele>397.79</ele>
        <time>2022-05-12T00:42:20.4620000+00:00</time>
      </trkpt>
      <trkpt lat="48.601901" lon="11.571897">
        <ele>400.48</ele>
        <time>2022-05-12T00:42:50.6440000+00:00</time>
      </trkpt>
      <trkpt lat="48.601876" lon="11.572733">
        <ele>401.81</ele>
        <time>2022-05-12T00:43:05.6760000+00:00</time>
      </trkpt>
      <trkpt lat="48.60305" lon="11.572757">
        <ele>400.85</ele>
        <time>2022-05-12T00:43:37.5690000+00:00</time>
      </trkpt>
      <trkpt lat="48.604012" lon="11.572723">
        <ele>400.61</ele>
        <time>2022-05-12T00:44:03.7070000+00:00</time>
      </trkpt>
      <trkpt lat="48.604365" lon="11.572706">
        <ele>400.49</ele>
        <time>2022-05-12T00:44:13.3000000+00:00</time>
      </trkpt>
      <trkpt lat="48.605257" lon="11.572362">
        <ele>399.76</ele>
        <time>2022-05-12T00:44:38.3050000+00:00</time>
      </trkpt>
      <trkpt lat="48.605424" lon="11.572023">
        <ele>398.89</ele>
        <time>2022-05-12T00:44:45.8980000+00:00</time>
      </trkpt>
      <trkpt lat="48.605424" lon="11.572023">
        <ele>398.89</ele>
        <time>2022-05-12T00:44:45.8980000+00:00</time>
      </trkpt>
      <trkpt lat="48.605643" lon="11.571011">
        <ele>398.84</ele>
        <time>2022-05-12T00:45:05.0230000+00:00</time>
      </trkpt>
      <trkpt lat="48.605889" lon="11.569494">
        <ele>398.92</ele>
        <time>2022-05-12T00:45:33.0780000+00:00</time>
      </trkpt>
      <trkpt lat="48.606361" lon="11.568522">
        <ele>397</ele>
        <time>2022-05-12T00:45:54.7380000+00:00</time>
      </trkpt>
      <trkpt lat="48.606638" lon="11.567888">
        <ele>397</ele>
        <time>2022-05-12T00:46:08.3860000+00:00</time>
      </trkpt>
      <trkpt lat="48.607026" lon="11.567169">
        <ele>396.99</ele>
        <time>2022-05-12T00:46:25.0550000+00:00</time>
      </trkpt>
      <trkpt lat="48.607303" lon="11.566535">
        <ele>397.81</ele>
        <time>2022-05-12T00:46:38.7030000+00:00</time>
      </trkpt>
      <trkpt lat="48.607578" lon="11.565312">
        <ele>401.79</ele>
        <time>2022-05-12T00:47:01.9040000+00:00</time>
      </trkpt>
      <trkpt lat="48.60794" lon="11.564972">
        <ele>404.02</ele>
        <time>2022-05-12T00:47:13.4790000+00:00</time>
      </trkpt>
      <trkpt lat="48.608441" lon="11.564589">
        <ele>405.39</ele>
        <time>2022-05-12T00:47:28.7280000+00:00</time>
      </trkpt>
      <trkpt lat="48.608832" lon="11.564628">
        <ele>404.04</ele>
        <time>2022-05-12T00:47:39.3710000+00:00</time>
      </trkpt>
      <trkpt lat="48.609335" lon="11.564877">
        <ele>401.97</ele>
        <time>2022-05-12T00:47:53.7480000+00:00</time>
      </trkpt>
      <trkpt lat="48.609783" lon="11.565084">
        <ele>400.77</ele>
        <time>2022-05-12T00:48:06.4720000+00:00</time>
      </trkpt>
      <trkpt lat="48.610425" lon="11.56512">
        <ele>400.2</ele>
        <time>2022-05-12T00:48:23.9230000+00:00</time>
      </trkpt>
      <trkpt lat="48.610425" lon="11.56512">
        <ele>400.2</ele>
        <time>2022-05-12T00:48:23.9230000+00:00</time>
      </trkpt>
      <trkpt lat="48.611541" lon="11.564774">
        <ele>402.34</ele>
        <time>2022-05-12T00:48:54.8670000+00:00</time>
      </trkpt>
      <trkpt lat="48.612348" lon="11.564221">
        <ele>403.74</ele>
        <time>2022-05-12T00:49:18.9320000+00:00</time>
      </trkpt>
      <trkpt lat="48.612962" lon="11.564089">
        <ele>405.05</ele>
        <time>2022-05-12T00:49:35.7780000+00:00</time>
      </trkpt>
      <trkpt lat="48.612957" lon="11.562969">
        <ele>407.72</ele>
        <time>2022-05-12T00:49:55.8920000+00:00</time>
      </trkpt>
      <trkpt lat="48.61325" lon="11.561832">
        <ele>408.23</ele>
        <time>2022-05-12T00:50:17.8070000+00:00</time>
      </trkpt>
      <trkpt lat="48.613848" lon="11.561977">
        <ele>408.48</ele>
        <time>2022-05-12T00:50:34.2580000+00:00</time>
      </trkpt>
      <trkpt lat="48.613848" lon="11.561977">
        <ele>408.48</ele>
        <time>2022-05-12T00:50:34.2580000+00:00</time>
      </trkpt>
      <trkpt lat="48.614242" lon="11.562197">
        <ele>409.55</ele>
        <time>2022-05-12T00:50:45.6660000+00:00</time>
      </trkpt>
      <trkpt lat="48.614725" lon="11.562728">
        <ele>411.83</ele>
        <time>2022-05-12T00:51:01.8850000+00:00</time>
      </trkpt>
      <trkpt lat="48.614903" lon="11.562803">
        <ele>412.53</ele>
        <time>2022-05-12T00:51:06.9040000+00:00</time>
      </trkpt>
      <trkpt lat="48.615006" lon="11.563337">
        <ele>414.43</ele>
        <time>2022-05-12T00:51:16.8940000+00:00</time>
      </trkpt>
      <trkpt lat="48.615538" lon="11.563447">
        <ele>416.31</ele>
        <time>2022-05-12T00:51:31.4790000+00:00</time>
      </trkpt>
      <trkpt lat="48.616325" lon="11.563937">
        <ele>419.44</ele>
        <time>2022-05-12T00:51:54.5960000+00:00</time>
      </trkpt>
      <trkpt lat="48.617845" lon="11.563963">
        <ele>429.64</ele>
        <time>2022-05-12T00:52:35.8870000+00:00</time>
      </trkpt>
      <trkpt lat="48.619089" lon="11.564717">
        <ele>428.3</ele>
        <time>2022-05-12T00:53:12.2890000+00:00</time>
      </trkpt>
      <trkpt lat="48.620335" lon="11.566082">
        <ele>418.87</ele>
        <time>2022-05-12T00:53:54.0770000+00:00</time>
      </trkpt>
      <trkpt lat="48.621556" lon="11.567563">
        <ele>408.07</ele>
        <time>2022-05-12T00:54:36.5870000+00:00</time>
      </trkpt>
      <trkpt lat="48.622334" lon="11.568673">
        <ele>409.82</ele>
        <time>2022-05-12T00:55:05.6360000+00:00</time>
      </trkpt>
      <trkpt lat="48.621569" lon="11.572094">
        <ele>405.02</ele>
        <time>2022-05-12T00:56:10.4810000+00:00</time>
      </trkpt>
      <trkpt lat="48.621623" lon="11.573049">
        <ele>404.98</ele>
        <time>2022-05-12T00:56:27.6910000+00:00</time>
      </trkpt>
      <trkpt lat="48.621954" lon="11.573504">
        <ele>406.79</ele>
        <time>2022-05-12T00:56:39.8400000+00:00</time>
      </trkpt>
      <trkpt lat="48.623879" lon="11.573451">
        <ele>401.45</ele>
        <time>2022-05-12T00:57:32.1370000+00:00</time>
      </trkpt>
      <trkpt lat="48.624537" lon="11.573293">
        <ele>401.89</ele>
        <time>2022-05-12T00:57:50.2340000+00:00</time>
      </trkpt>
      <trkpt lat="48.624692" lon="11.574094">
        <ele>397.18</ele>
        <time>2022-05-12T00:58:05.2190000+00:00</time>
      </trkpt>
      <trkpt lat="48.62466" lon="11.57461">
        <ele>394.65</ele>
        <time>2022-05-12T00:58:14.5240000+00:00</time>
      </trkpt>
      <trkpt lat="48.625324" lon="11.574489">
        <ele>394.13</ele>
        <time>2022-05-12T00:58:32.6910000+00:00</time>
      </trkpt>
      <trkpt lat="48.625764" lon="11.574304">
        <ele>394.24</ele>
        <time>2022-05-12T00:58:45.0960000+00:00</time>
      </trkpt>
      <trkpt lat="48.626182" lon="11.574174">
        <ele>394.45</ele>
        <time>2022-05-12T00:58:56.6870000+00:00</time>
      </trkpt>
      <trkpt lat="48.627326" lon="11.574039">
        <ele>393.14</ele>
        <time>2022-05-12T00:59:27.8560000+00:00</time>
      </trkpt>
      <trkpt lat="48.627939" lon="11.573529">
        <ele>395.31</ele>
        <time>2022-05-12T00:59:46.8580000+00:00</time>
      </trkpt>
      <trkpt lat="48.628971" lon="11.573352">
        <ele>396.66</ele>
        <time>2022-05-12T01:00:15.0700000+00:00</time>
      </trkpt>
      <trkpt lat="48.629865" lon="11.573387">
        <ele>395.83</ele>
        <time>2022-05-12T01:00:39.3620000+00:00</time>
      </trkpt>
      <trkpt lat="48.630814" lon="11.573422">
        <ele>395.03</ele>
        <time>2022-05-12T01:01:05.1470000+00:00</time>
      </trkpt>
      <trkpt lat="48.631261" lon="11.573502">
        <ele>395.44</ele>
        <time>2022-05-12T01:01:17.3740000+00:00</time>
      </trkpt>
      <trkpt lat="48.63118" lon="11.574093">
        <ele>393.03</ele>
        <time>2022-05-12T01:01:28.2090000+00:00</time>
      </trkpt>
      <trkpt lat="48.63118" lon="11.574093">
        <ele>393.03</ele>
        <time>2022-05-12T01:01:28.2090000+00:00</time>
      </trkpt>
      <trkpt lat="48.630904" lon="11.575274">
        <ele>390.45</ele>
        <time>2022-05-12T01:01:50.6970000+00:00</time>
      </trkpt>
      <trkpt lat="48.631051" lon="11.577337">
        <ele>389.28</ele>
        <time>2022-05-12T01:02:27.9470000+00:00</time>
      </trkpt>
      <trkpt lat="48.631108" lon="11.577716">
        <ele>388.36</ele>
        <time>2022-05-12T01:02:34.9250000+00:00</time>
      </trkpt>
      <trkpt lat="48.631282" lon="11.579568">
        <ele>388.05</ele>
        <time>2022-05-12T01:03:08.5070000+00:00</time>
      </trkpt>
      <trkpt lat="48.631252" lon="11.580827">
        <ele>388.37</ele>
        <time>2022-05-12T01:03:31.1230000+00:00</time>
      </trkpt>
      <trkpt lat="48.631255" lon="11.581506">
        <ele>387.66</ele>
        <time>2022-05-12T01:03:43.3130000+00:00</time>
      </trkpt>
      <trkpt lat="48.631672" lon="11.582267">
        <ele>387.66</ele>
        <time>2022-05-12T01:04:01.0590000+00:00</time>
      </trkpt>
      <trkpt lat="48.632563" lon="11.584231">
        <ele>388.85</ele>
        <time>2022-05-12T01:04:43.8240000+00:00</time>
      </trkpt>
      <trkpt lat="48.632583" lon="11.584233">
        <ele>388.84</ele>
        <time>2022-05-12T01:04:44.3690000+00:00</time>
      </trkpt>
      <trkpt lat="48.632645" lon="11.586086">
        <ele>393.34</ele>
        <time>2022-05-12T01:05:17.6750000+00:00</time>
      </trkpt>
      <trkpt lat="48.632508" lon="11.586972">
        <ele>393.8</ele>
        <time>2022-05-12T01:05:34.0100000+00:00</time>
      </trkpt>
      <trkpt lat="48.632454" lon="11.587436">
        <ele>393.9</ele>
        <time>2022-05-12T01:05:42.4680000+00:00</time>
      </trkpt>
      <trkpt lat="48.632455" lon="11.587899">
        <ele>393.66</ele>
        <time>2022-05-12T01:05:50.7800000+00:00</time>
      </trkpt>
      <trkpt lat="48.63229" lon="11.588364">
        <ele>394.09</ele>
        <time>2022-05-12T01:06:00.2540000+00:00</time>
      </trkpt>
      <trkpt lat="48.631914" lon="11.589024">
        <ele>395.49</ele>
        <time>2022-05-12T01:06:15.8970000+00:00</time>
      </trkpt>
      <trkpt lat="48.630299" lon="11.590908">
        <ele>400.34</ele>
        <time>2022-05-12T01:07:11.2890000+00:00</time>
      </trkpt>
      <trkpt lat="48.628912" lon="11.592677">
        <ele>400.65</ele>
        <time>2022-05-12T01:08:00.5640000+00:00</time>
      </trkpt>
      <trkpt lat="48.626771" lon="11.596208">
        <ele>404.12</ele>
        <time>2022-05-12T01:09:26.5920000+00:00</time>
      </trkpt>
      <trkpt lat="48.626416" lon="11.596361">
        <ele>402.68</ele>
        <time>2022-05-12T01:09:36.6190000+00:00</time>
      </trkpt>
      <trkpt lat="48.62616" lon="11.597365">
        <ele>402.56</ele>
        <time>2022-05-12T01:09:55.9390000+00:00</time>
      </trkpt>
      <trkpt lat="48.625358" lon="11.599637">
        <ele>405.29</ele>
        <time>2022-05-12T01:10:42.1830000+00:00</time>
      </trkpt>
      <trkpt lat="48.624442" lon="11.602259">
        <ele>410</ele>
        <time>2022-05-12T01:11:35.4310000+00:00</time>
      </trkpt>
      <trkpt lat="48.623807" lon="11.603326">
        <ele>405.94</ele>
        <time>2022-05-12T01:12:01.2090000+00:00</time>
      </trkpt>
      <trkpt lat="48.622713" lon="11.604511">
        <ele>403.91</ele>
        <time>2022-05-12T01:12:37.7570000+00:00</time>
      </trkpt>
      <trkpt lat="48.621822" lon="11.605869">
        <ele>405.39</ele>
        <time>2022-05-12T01:13:12.1120000+00:00</time>
      </trkpt>
      <trkpt lat="48.621592" lon="11.606088">
        <ele>405.4</ele>
        <time>2022-05-12T01:13:19.4940000+00:00</time>
      </trkpt>
      <trkpt lat="48.621105" lon="11.607355">
        <ele>404.89</ele>
        <time>2022-05-12T01:13:45.8100000+00:00</time>
      </trkpt>
      <trkpt lat="48.620674" lon="11.608361">
        <ele>405.35</ele>
        <time>2022-05-12T01:14:07.3360000+00:00</time>
      </trkpt>
      <trkpt lat="48.619985" lon="11.60963">
        <ele>404.64</ele>
        <time>2022-05-12T01:14:36.8230000+00:00</time>
      </trkpt>
      <trkpt lat="48.617713" lon="11.61274">
        <ele>406.63</ele>
        <time>2022-05-12T01:16:00.0530000+00:00</time>
      </trkpt>
      <trkpt lat="48.61633" lon="11.61397">
        <ele>405.53</ele>
        <time>2022-05-12T01:16:43.6320000+00:00</time>
      </trkpt>
      <trkpt lat="48.615811" lon="11.614235">
        <ele>404.7</ele>
        <time>2022-05-12T01:16:58.5110000+00:00</time>
      </trkpt>
      <trkpt lat="48.614771" lon="11.614199">
        <ele>403.45</ele>
        <time>2022-05-12T01:17:26.7680000+00:00</time>
      </trkpt>
      <trkpt lat="48.613818" lon="11.614554">
        <ele>402.37</ele>
        <time>2022-05-12T01:17:53.4280000+00:00</time>
      </trkpt>
      <trkpt lat="48.61246" lon="11.616194">
        <ele>405.1</ele>
        <time>2022-05-12T01:18:40.6300000+00:00</time>
      </trkpt>
      <trkpt lat="48.611596" lon="11.617115">
        <ele>405.9</ele>
        <time>2022-05-12T01:19:09.3420000+00:00</time>
      </trkpt>
      <trkpt lat="48.611055" lon="11.617848">
        <ele>405.33</ele>
        <time>2022-05-12T01:19:29.0710000+00:00</time>
      </trkpt>
      <trkpt lat="48.610358" lon="11.618431">
        <ele>406.3</ele>
        <time>2022-05-12T01:19:50.7060000+00:00</time>
      </trkpt>
      <trkpt lat="48.609117" lon="11.618919">
        <ele>405.47</ele>
        <time>2022-05-12T01:20:25.5360000+00:00</time>
      </trkpt>
      <trkpt lat="48.608655" lon="11.61914">
        <ele>406.18</ele>
        <time>2022-05-12T01:20:38.6980000+00:00</time>
      </trkpt>
      <trkpt lat="48.607703" lon="11.619582">
        <ele>407.02</ele>
        <time>2022-05-12T01:21:05.7490000+00:00</time>
      </trkpt>
      <trkpt lat="48.605917" lon="11.621163">
        <ele>409.03</ele>
        <time>2022-05-12T01:22:01.9610000+00:00</time>
      </trkpt>
      <trkpt lat="48.605168" lon="11.621909">
        <ele>409.74</ele>
        <time>2022-05-12T01:22:26.3220000+00:00</time>
      </trkpt>
      <trkpt lat="48.603871" lon="11.622789">
        <ele>409.24</ele>
        <time>2022-05-12T01:23:04.9360000+00:00</time>
      </trkpt>
      <trkpt lat="48.603324" lon="11.623316">
        <ele>409.69</ele>
        <time>2022-05-12T01:23:22.5530000+00:00</time>
      </trkpt>
      <trkpt lat="48.602835" lon="11.62406">
        <ele>411.49</ele>
        <time>2022-05-12T01:23:41.3950000+00:00</time>
      </trkpt>
      <trkpt lat="48.602463" lon="11.625282">
        <ele>411.43</ele>
        <time>2022-05-12T01:24:05.5590000+00:00</time>
      </trkpt>
      <trkpt lat="48.602695" lon="11.62576">
        <ele>412.15</ele>
        <time>2022-05-12T01:24:16.2100000+00:00</time>
      </trkpt>
      <trkpt lat="48.602957" lon="11.626368">
        <ele>414.26</ele>
        <time>2022-05-12T01:24:29.2450000+00:00</time>
      </trkpt>
      <trkpt lat="48.602901" lon="11.626978">
        <ele>416.25</ele>
        <time>2022-05-12T01:24:40.3070000+00:00</time>
      </trkpt>
      <trkpt lat="48.60273" lon="11.627502">
        <ele>418.37</ele>
        <time>2022-05-12T01:24:50.8030000+00:00</time>
      </trkpt>
      <trkpt lat="48.602355" lon="11.627897">
        <ele>419.07</ele>
        <time>2022-05-12T01:25:03.2160000+00:00</time>
      </trkpt>
      <trkpt lat="48.601663" lon="11.62825">
        <ele>418.84</ele>
        <time>2022-05-12T01:25:23.0540000+00:00</time>
      </trkpt>
      <trkpt lat="48.600999" lon="11.62856">
        <ele>418.3</ele>
        <time>2022-05-12T01:25:41.9300000+00:00</time>
      </trkpt>
      <trkpt lat="48.599787" lon="11.62896">
        <ele>416.63</ele>
        <time>2022-05-12T01:26:15.6270000+00:00</time>
      </trkpt>
      <trkpt lat="48.599094" lon="11.629095">
        <ele>416.11</ele>
        <time>2022-05-12T01:26:34.6060000+00:00</time>
      </trkpt>
      <trkpt lat="48.598488" lon="11.629187">
        <ele>414.66</ele>
        <time>2022-05-12T01:26:51.1500000+00:00</time>
      </trkpt>
      <trkpt lat="48.597941" lon="11.6298">
        <ele>414.4</ele>
        <time>2022-05-12T01:27:09.6440000+00:00</time>
      </trkpt>
      <trkpt lat="48.597364" lon="11.630109">
        <ele>415.28</ele>
        <time>2022-05-12T01:27:26.2710000+00:00</time>
      </trkpt>
      <trkpt lat="48.59523" lon="11.631343">
        <ele>417.21</ele>
        <time>2022-05-12T01:28:28.3310000+00:00</time>
      </trkpt>
      <trkpt lat="48.59497" lon="11.631476">
        <ele>417.49</ele>
        <time>2022-05-12T01:28:35.7870000+00:00</time>
      </trkpt>
      <trkpt lat="48.594595" lon="11.631696">
        <ele>418.56</ele>
        <time>2022-05-12T01:28:46.7130000+00:00</time>
      </trkpt>
      <trkpt lat="48.594306" lon="11.631742">
        <ele>418.54</ele>
        <time>2022-05-12T01:28:54.6060000+00:00</time>
      </trkpt>
      <trkpt lat="48.593902" lon="11.631832">
        <ele>418.12</ele>
        <time>2022-05-12T01:29:05.6980000+00:00</time>
      </trkpt>
      <trkpt lat="48.593902" lon="11.631832">
        <ele>418.12</ele>
        <time>2022-05-12T01:29:05.6980000+00:00</time>
      </trkpt>
      <trkpt lat="48.593845" lon="11.633025">
        <ele>420.53</ele>
        <time>2022-05-12T01:29:27.1870000+00:00</time>
      </trkpt>
      <trkpt lat="48.593819" lon="11.63381">
        <ele>421.12</ele>
        <time>2022-05-12T01:29:41.3070000+00:00</time>
      </trkpt>
      <trkpt lat="48.593678" lon="11.63503">
        <ele>422.72</ele>
        <time>2022-05-12T01:30:03.5570000+00:00</time>
      </trkpt>
      <trkpt lat="48.594174" lon="11.636595">
        <ele>428.61</ele>
        <time>2022-05-12T01:30:34.7350000+00:00</time>
      </trkpt>
      <trkpt lat="48.594204" lon="11.636986">
        <ele>427.82</ele>
        <time>2022-05-12T01:30:41.8060000+00:00</time>
      </trkpt>
      <trkpt lat="48.594176" lon="11.637466">
        <ele>427.27</ele>
        <time>2022-05-12T01:30:50.4630000+00:00</time>
      </trkpt>
      <trkpt lat="48.594266" lon="11.638685">
        <ele>431.2</ele>
        <time>2022-05-12T01:31:12.4990000+00:00</time>
      </trkpt>
      <trkpt lat="48.594184" lon="11.64021">
        <ele>430.81</ele>
        <time>2022-05-12T01:31:39.9860000+00:00</time>
      </trkpt>
      <trkpt lat="48.594073" lon="11.641604">
        <ele>426.83</ele>
        <time>2022-05-12T01:32:05.2110000+00:00</time>
      </trkpt>
      <trkpt lat="48.5939" lon="11.64191">
        <ele>425.41</ele>
        <time>2022-05-12T01:32:12.4430000+00:00</time>
      </trkpt>
      <trkpt lat="48.593731" lon="11.643148">
        <ele>428.52</ele>
        <time>2022-05-12T01:32:35.1530000+00:00</time>
      </trkpt>
      <trkpt lat="48.593619" lon="11.644586">
        <ele>432.58</ele>
        <time>2022-05-12T01:33:01.1660000+00:00</time>
      </trkpt>
      <trkpt lat="48.593769" lon="11.646284">
        <ele>434.33</ele>
        <time>2022-05-12T01:33:31.9420000+00:00</time>
      </trkpt>
      <trkpt lat="48.593951" lon="11.649549">
        <ele>427.31</ele>
        <time>2022-05-12T01:34:30.8070000+00:00</time>
      </trkpt>
      <trkpt lat="48.594361" lon="11.651419">
        <ele>425.91</ele>
        <time>2022-05-12T01:35:06.2000000+00:00</time>
      </trkpt>
      <trkpt lat="48.594653" lon="11.652506">
        <ele>427.13</ele>
        <time>2022-05-12T01:35:27.2770000+00:00</time>
      </trkpt>
      <trkpt lat="48.594917" lon="11.653986">
        <ele>428.05</ele>
        <time>2022-05-12T01:35:54.8160000+00:00</time>
      </trkpt>
      <trkpt lat="48.595477" lon="11.657771">
        <ele>430.81</ele>
        <time>2022-05-12T01:37:04.4930000+00:00</time>
      </trkpt>
      <trkpt lat="48.595799" lon="11.659294">
        <ele>429.96</ele>
        <time>2022-05-12T01:37:33.2180000+00:00</time>
      </trkpt>
      <trkpt lat="48.596378" lon="11.659508">
        <ele>431.95</ele>
        <time>2022-05-12T01:37:49.4080000+00:00</time>
      </trkpt>
      <trkpt lat="48.596656" lon="11.660963">
        <ele>434.31</ele>
        <time>2022-05-12T01:38:16.6160000+00:00</time>
      </trkpt>
      <trkpt lat="48.596743" lon="11.661189">
        <ele>435.95</ele>
        <time>2022-05-12T01:38:21.3130000+00:00</time>
      </trkpt>
      <trkpt lat="48.597048" lon="11.662518">
        <ele>444.36</ele>
        <time>2022-05-12T01:38:46.5840000+00:00</time>
      </trkpt>
      <trkpt lat="48.59669" lon="11.665472">
        <ele>441.75</ele>
        <time>2022-05-12T01:39:40.5350000+00:00</time>
      </trkpt>
      <trkpt lat="48.596648" lon="11.665829">
        <ele>440.51</ele>
        <time>2022-05-12T01:39:47.0490000+00:00</time>
      </trkpt>
      <trkpt lat="48.596627" lon="11.666251">
        <ele>439.65</ele>
        <time>2022-05-12T01:39:54.6510000+00:00</time>
      </trkpt>
      <trkpt lat="48.596611" lon="11.667906">
        <ele>443.17</ele>
        <time>2022-05-12T01:40:24.3850000+00:00</time>
      </trkpt>
      <trkpt lat="48.596721" lon="11.669106">
        <ele>442.5</ele>
        <time>2022-05-12T01:40:46.1490000+00:00</time>
      </trkpt>
      <trkpt lat="48.598085" lon="11.671966">
        <ele>439.41</ele>
        <time>2022-05-12T01:41:49.4920000+00:00</time>
      </trkpt>
      <trkpt lat="48.598777" lon="11.673389">
        <ele>438.73</ele>
        <time>2022-05-12T01:42:21.2210000+00:00</time>
      </trkpt>
      <trkpt lat="48.59973" lon="11.675395">
        <ele>439.74</ele>
        <time>2022-05-12T01:43:05.5900000+00:00</time>
      </trkpt>
      <trkpt lat="48.600141" lon="11.676301">
        <ele>440.21</ele>
        <time>2022-05-12T01:43:25.3260000+00:00</time>
      </trkpt>
      <trkpt lat="48.601069" lon="11.677159">
        <ele>446.71</ele>
        <time>2022-05-12T01:43:54.8720000+00:00</time>
      </trkpt>
      <trkpt lat="48.60154" lon="11.676182">
        <ele>440.33</ele>
        <time>2022-05-12T01:44:16.5900000+00:00</time>
      </trkpt>
      <trkpt lat="48.602161" lon="11.675238">
        <ele>444.16</ele>
        <time>2022-05-12T01:44:40.5080000+00:00</time>
      </trkpt>
      <trkpt lat="48.60259" lon="11.674813">
        <ele>446.48</ele>
        <time>2022-05-12T01:44:54.4380000+00:00</time>
      </trkpt>
      <trkpt lat="48.603171" lon="11.674518">
        <ele>448.5</ele>
        <time>2022-05-12T01:45:11.0860000+00:00</time>
      </trkpt>
      <trkpt lat="48.604914" lon="11.674442">
        <ele>452.06</ele>
        <time>2022-05-12T01:45:58.4510000+00:00</time>
      </trkpt>
      <trkpt lat="48.605709" lon="11.674067">
        <ele>455.17</ele>
        <time>2022-05-12T01:46:21.0710000+00:00</time>
      </trkpt>
      <trkpt lat="48.606468" lon="11.672426">
        <ele>457.61</ele>
        <time>2022-05-12T01:46:57.0400000+00:00</time>
      </trkpt>
      <trkpt lat="48.606864" lon="11.671367">
        <ele>463.7</ele>
        <time>2022-05-12T01:47:18.8920000+00:00</time>
      </trkpt>
      <trkpt lat="48.607764" lon="11.670193">
        <ele>475.46</ele>
        <time>2022-05-12T01:47:51.1760000+00:00</time>
      </trkpt>
      <trkpt lat="48.60931" lon="11.668658">
        <ele>485.75</ele>
        <time>2022-05-12T01:48:41.4110000+00:00</time>
      </trkpt>
      <trkpt lat="48.610426" lon="11.66771">
        <ele>485.14</ele>
        <time>2022-05-12T01:49:16.1790000+00:00</time>
      </trkpt>
      <trkpt lat="48.611221" lon="11.667024">
        <ele>479.52</ele>
        <time>2022-05-12T01:49:41.0400000+00:00</time>
      </trkpt>
      <trkpt lat="48.611952" lon="11.666727">
        <ele>469.03</ele>
        <time>2022-05-12T01:50:01.6010000+00:00</time>
      </trkpt>
      <trkpt lat="48.613608" lon="11.666685">
        <ele>448.04</ele>
        <time>2022-05-12T01:50:46.5890000+00:00</time>
      </trkpt>
      <trkpt lat="48.614856" lon="11.666515">
        <ele>449.05</ele>
        <time>2022-05-12T01:51:20.6250000+00:00</time>
      </trkpt>
      <trkpt lat="48.616727" lon="11.666081">
        <ele>440.88</ele>
        <time>2022-05-12T01:52:12.0410000+00:00</time>
      </trkpt>
      <trkpt lat="48.61705" lon="11.666079">
        <ele>441.06</ele>
        <time>2022-05-12T01:52:20.8150000+00:00</time>
      </trkpt>
      <trkpt lat="48.617997" lon="11.666073">
        <ele>443.04</ele>
        <time>2022-05-12T01:52:46.5390000+00:00</time>
      </trkpt>
      <trkpt lat="48.618621" lon="11.665907">
        <ele>440.33</ele>
        <time>2022-05-12T01:53:03.7490000+00:00</time>
      </trkpt>
      <trkpt lat="48.620362" lon="11.665442">
        <ele>436.33</ele>
        <time>2022-05-12T01:53:51.7710000+00:00</time>
      </trkpt>
      <trkpt lat="48.620694" lon="11.665414">
        <ele>435.8</ele>
        <time>2022-05-12T01:54:00.8030000+00:00</time>
      </trkpt>
      <trkpt lat="48.62219" lon="11.664943">
        <ele>432.71</ele>
        <time>2022-05-12T01:54:42.3100000+00:00</time>
      </trkpt>
      <trkpt lat="48.622902" lon="11.665458">
        <ele>428.36</ele>
        <time>2022-05-12T01:55:03.7470000+00:00</time>
      </trkpt>
      <trkpt lat="48.623699" lon="11.665843">
        <ele>424.22</ele>
        <time>2022-05-12T01:55:26.4720000+00:00</time>
      </trkpt>
      <trkpt lat="48.624194" lon="11.665807">
        <ele>423.29</ele>
        <time>2022-05-12T01:55:39.9340000+00:00</time>
      </trkpt>
      <trkpt lat="48.625119" lon="11.665574">
        <ele>423.29</ele>
        <time>2022-05-12T01:56:05.4050000+00:00</time>
      </trkpt>
      <trkpt lat="48.626042" lon="11.664984">
        <ele>422.7</ele>
        <time>2022-05-12T01:56:32.6230000+00:00</time>
      </trkpt>
      <trkpt lat="48.628302" lon="11.66497">
        <ele>419.64</ele>
        <time>2022-05-12T01:57:34.0120000+00:00</time>
      </trkpt>
      <trkpt lat="48.629313" lon="11.664899">
        <ele>418.83</ele>
        <time>2022-05-12T01:58:01.5030000+00:00</time>
      </trkpt>
      <trkpt lat="48.63043" lon="11.664048">
        <ele>421.39</ele>
        <time>2022-05-12T01:58:35.4730000+00:00</time>
      </trkpt>
      <trkpt lat="48.631757" lon="11.66128">
        <ele>419</ele>
        <time>2022-05-12T01:59:36.8620000+00:00</time>
      </trkpt>
      <trkpt lat="48.631966" lon="11.660641">
        <ele>417.28</ele>
        <time>2022-05-12T01:59:49.6610000+00:00</time>
      </trkpt>
      <trkpt lat="48.632321" lon="11.659443">
        <ele>418.75</ele>
        <time>2022-05-12T02:00:13.2300000+00:00</time>
      </trkpt>
      <trkpt lat="48.632877" lon="11.657049">
        <ele>414.12</ele>
        <time>2022-05-12T02:00:58.7820000+00:00</time>
      </trkpt>
      <trkpt lat="48.633001" lon="11.65566">
        <ele>414.15</ele>
        <time>2022-05-12T02:01:23.9440000+00:00</time>
      </trkpt>
      <trkpt lat="48.63307" lon="11.653037">
        <ele>412.15</ele>
        <time>2022-05-12T02:02:11.0680000+00:00</time>
      </trkpt>
      <trkpt lat="48.633192" lon="11.650954">
        <ele>410.91</ele>
        <time>2022-05-12T02:02:48.6070000+00:00</time>
      </trkpt>
      <trkpt lat="48.633442" lon="11.649024">
        <ele>410.75</ele>
        <time>2022-05-12T02:03:23.9120000+00:00</time>
      </trkpt>
      <trkpt lat="48.633684" lon="11.647442">
        <ele>411.23</ele>
        <time>2022-05-12T02:03:53.0620000+00:00</time>
      </trkpt>
      <trkpt lat="48.633826" lon="11.646613">
        <ele>411.49</ele>
        <time>2022-05-12T02:04:08.4350000+00:00</time>
      </trkpt>
      <trkpt lat="48.633883" lon="11.646176">
        <ele>411.42</ele>
        <time>2022-05-12T02:04:16.4310000+00:00</time>
      </trkpt>
      <trkpt lat="48.633965" lon="11.644781">
        <ele>410.81</ele>
        <time>2022-05-12T02:04:41.5720000+00:00</time>
      </trkpt>
      <trkpt lat="48.634336" lon="11.642992">
        <ele>407.45</ele>
        <time>2022-05-12T02:05:15.2310000+00:00</time>
      </trkpt>
      <trkpt lat="48.634622" lon="11.641943">
        <ele>407.66</ele>
        <time>2022-05-12T02:05:35.6010000+00:00</time>
      </trkpt>
      <trkpt lat="48.634938" lon="11.641418">
        <ele>407.54</ele>
        <time>2022-05-12T02:05:48.3480000+00:00</time>
      </trkpt>
      <trkpt lat="48.635634" lon="11.642242">
        <ele>406.99</ele>
        <time>2022-05-12T02:06:12.3520000+00:00</time>
      </trkpt>
      <trkpt lat="48.63601" lon="11.642675">
        <ele>409.15</ele>
        <time>2022-05-12T02:06:25.1870000+00:00</time>
      </trkpt>
      <trkpt lat="48.636245" lon="11.643938">
        <ele>415.69</ele>
        <time>2022-05-12T02:06:48.7390000+00:00</time>
      </trkpt>
      <trkpt lat="48.636391" lon="11.644373">
        <ele>417.2</ele>
        <time>2022-05-12T02:06:57.4970000+00:00</time>
      </trkpt>
      <trkpt lat="48.636566" lon="11.644807">
        <ele>420.05</ele>
        <time>2022-05-12T02:07:06.6230000+00:00</time>
      </trkpt>
      <trkpt lat="48.637173" lon="11.645109">
        <ele>425.93</ele>
        <time>2022-05-12T02:07:23.9800000+00:00</time>
      </trkpt>
      <trkpt lat="48.638097" lon="11.645015">
        <ele>431.14</ele>
        <time>2022-05-12T02:07:49.1350000+00:00</time>
      </trkpt>
      <trkpt lat="48.638618" lon="11.645273">
        <ele>433.85</ele>
        <time>2022-05-12T02:08:04.0250000+00:00</time>
      </trkpt>
      <trkpt lat="48.639198" lon="11.645923">
        <ele>440.03</ele>
        <time>2022-05-12T02:08:23.6290000+00:00</time>
      </trkpt>
      <trkpt lat="48.640493" lon="11.647666">
        <ele>444.78</ele>
        <time>2022-05-12T02:09:10.7050000+00:00</time>
      </trkpt>
      <trkpt lat="48.642548" lon="11.651279">
        <ele>464.63</ele>
        <time>2022-05-12T02:10:36.2690000+00:00</time>
      </trkpt>
      <trkpt lat="48.642832" lon="11.652202">
        <ele>465.81</ele>
        <time>2022-05-12T02:10:54.5430000+00:00</time>
      </trkpt>
      <trkpt lat="48.64322" lon="11.653781">
        <ele>458.78</ele>
        <time>2022-05-12T02:11:24.7790000+00:00</time>
      </trkpt>
      <trkpt lat="48.643377" lon="11.655246">
        <ele>459.32</ele>
        <time>2022-05-12T02:11:51.4160000+00:00</time>
      </trkpt>
      <trkpt lat="48.64374" lon="11.656864">
        <ele>453.22</ele>
        <time>2022-05-12T02:12:22.0840000+00:00</time>
      </trkpt>
      <trkpt lat="48.644717" lon="11.659133">
        <ele>439.93</ele>
        <time>2022-05-12T02:13:10.6900000+00:00</time>
      </trkpt>
      <trkpt lat="48.645426" lon="11.660736">
        <ele>431.99</ele>
        <time>2022-05-12T02:13:45.3110000+00:00</time>
      </trkpt>
      <trkpt lat="48.646242" lon="11.663439">
        <ele>422.67</ele>
        <time>2022-05-12T02:14:38.6450000+00:00</time>
      </trkpt>
      <trkpt lat="48.646669" lon="11.664907">
        <ele>422.48</ele>
        <time>2022-05-12T02:15:07.4310000+00:00</time>
      </trkpt>
      <trkpt lat="48.647075" lon="11.665648">
        <ele>421.44</ele>
        <time>2022-05-12T02:15:24.7070000+00:00</time>
      </trkpt>
      <trkpt lat="48.648137" lon="11.667776">
        <ele>418.35</ele>
        <time>2022-05-12T02:16:12.5680000+00:00</time>
      </trkpt>
      <trkpt lat="48.648455" lon="11.668252">
        <ele>416.37</ele>
        <time>2022-05-12T02:16:24.7160000+00:00</time>
      </trkpt>
      <trkpt lat="48.648596" lon="11.668543">
        <ele>415.26</ele>
        <time>2022-05-12T02:16:31.1920000+00:00</time>
      </trkpt>
      <trkpt lat="48.648929" lon="11.667946">
        <ele>415.29</ele>
        <time>2022-05-12T02:16:45.2140000+00:00</time>
      </trkpt>
      <trkpt lat="48.649806" lon="11.666905">
        <ele>414.01</ele>
        <time>2022-05-12T02:17:15.4870000+00:00</time>
      </trkpt>
      <trkpt lat="48.649806" lon="11.666905">
        <ele>414.01</ele>
        <time>2022-05-12T02:17:15.4870000+00:00</time>
      </trkpt>
      <trkpt lat="48.650396" lon="11.666201">
        <ele>413.05</ele>
        <time>2022-05-12T02:17:35.8940000+00:00</time>
      </trkpt>
      <trkpt lat="48.651161" lon="11.665187">
        <ele>411.04</ele>
        <time>2022-05-12T02:18:03.5150000+00:00</time>
      </trkpt>
      <trkpt lat="48.651876" lon="11.66421">
        <ele>410.77</ele>
        <time>2022-05-12T02:18:29.6790000+00:00</time>
      </trkpt>
      <trkpt lat="48.653011" lon="11.662446">
        <ele>411.81</ele>
        <time>2022-05-12T02:19:13.8660000+00:00</time>
      </trkpt>
      <trkpt lat="48.653602" lon="11.661171">
        <ele>408.39</ele>
        <time>2022-05-12T02:19:41.8150000+00:00</time>
      </trkpt>
      <trkpt lat="48.654287" lon="11.661747">
        <ele>416.74</ele>
        <time>2022-05-12T02:20:03.1000000+00:00</time>
      </trkpt>
      <trkpt lat="48.654671" lon="11.661521">
        <ele>420.38</ele>
        <time>2022-05-12T02:20:14.2910000+00:00</time>
      </trkpt>
      <trkpt lat="48.655374" lon="11.660484">
        <ele>429.61</ele>
        <time>2022-05-12T02:20:40.9530000+00:00</time>
      </trkpt>
      <trkpt lat="48.655806" lon="11.659854">
        <ele>423.69</ele>
        <time>2022-05-12T02:20:57.2470000+00:00</time>
      </trkpt>
      <trkpt lat="48.656107" lon="11.659196">
        <ele>420.61</ele>
        <time>2022-05-12T02:21:11.6080000+00:00</time>
      </trkpt>
      <trkpt lat="48.656554" lon="11.657748">
        <ele>415.09</ele>
        <time>2022-05-12T02:21:40.2870000+00:00</time>
      </trkpt>
      <trkpt lat="48.656872" lon="11.655798">
        <ele>411.64</ele>
        <time>2022-05-12T02:22:16.3270000+00:00</time>
      </trkpt>
      <trkpt lat="48.657284" lon="11.654398">
        <ele>409.14</ele>
        <time>2022-05-12T02:22:43.8270000+00:00</time>
      </trkpt>
      <trkpt lat="48.657866" lon="11.653082">
        <ele>418.47</ele>
        <time>2022-05-12T02:23:12.2430000+00:00</time>
      </trkpt>
      <trkpt lat="48.658316" lon="11.652024">
        <ele>407.7</ele>
        <time>2022-05-12T02:23:34.8210000+00:00</time>
      </trkpt>
      <trkpt lat="48.658873" lon="11.64955">
        <ele>405.96</ele>
        <time>2022-05-12T02:24:21.7180000+00:00</time>
      </trkpt>
      <trkpt lat="48.659606" lon="11.646718">
        <ele>413.21</ele>
        <time>2022-05-12T02:25:16.2920000+00:00</time>
      </trkpt>
      <trkpt lat="48.660131" lon="11.645345">
        <ele>418.01</ele>
        <time>2022-05-12T02:25:44.7560000+00:00</time>
      </trkpt>
      <trkpt lat="48.66045" lon="11.644659">
        <ele>416.87</ele>
        <time>2022-05-12T02:25:59.8080000+00:00</time>
      </trkpt>
      <trkpt lat="48.660844" lon="11.643715">
        <ele>415.41</ele>
        <time>2022-05-12T02:26:19.8430000+00:00</time>
      </trkpt>
      <trkpt lat="48.661125" lon="11.642857">
        <ele>414.66</ele>
        <time>2022-05-12T02:26:37.0260000+00:00</time>
      </trkpt>
      <trkpt lat="48.662102" lon="11.641083">
        <ele>412.5</ele>
        <time>2022-05-12T02:27:18.4660000+00:00</time>
      </trkpt>
      <trkpt lat="48.662627" lon="11.639653">
        <ele>406.74</ele>
        <time>2022-05-12T02:27:47.8180000+00:00</time>
      </trkpt>
      <trkpt lat="48.663585" lon="11.637821">
        <ele>406.67</ele>
        <time>2022-05-12T02:28:29.7400000+00:00</time>
      </trkpt>
      <trkpt lat="48.664335" lon="11.635791">
        <ele>401.79</ele>
        <time>2022-05-12T02:29:11.4700000+00:00</time>
      </trkpt>
      <trkpt lat="48.665572" lon="11.632503">
        <ele>395.4</ele>
        <time>2022-05-12T02:30:19.3560000+00:00</time>
      </trkpt>
      <trkpt lat="48.665015" lon="11.632031">
        <ele>390.62</ele>
        <time>2022-05-12T02:30:36.6940000+00:00</time>
      </trkpt>
      <trkpt lat="48.665258" lon="11.631588">
        <ele>389.16</ele>
        <time>2022-05-12T02:30:47.0250000+00:00</time>
      </trkpt>
      <trkpt lat="48.665547" lon="11.630556">
        <ele>388.52</ele>
        <time>2022-05-12T02:31:07.1340000+00:00</time>
      </trkpt>
      <trkpt lat="48.665804" lon="11.630553">
        <ele>390.63</ele>
        <time>2022-05-12T02:31:14.1160000+00:00</time>
      </trkpt>
      <trkpt lat="48.665977" lon="11.63005">
        <ele>390.66</ele>
        <time>2022-05-12T02:31:24.2900000+00:00</time>
      </trkpt>
      <trkpt lat="48.666359" lon="11.629043">
        <ele>390.24</ele>
        <time>2022-05-12T02:31:45.1230000+00:00</time>
      </trkpt>
      <trkpt lat="48.666723" lon="11.628064">
        <ele>390.61</ele>
        <time>2022-05-12T02:32:05.2770000+00:00</time>
      </trkpt>
      <trkpt lat="48.666913" lon="11.627032">
        <ele>389.09</ele>
        <time>2022-05-12T02:32:24.4970000+00:00</time>
      </trkpt>
      <trkpt lat="48.667154" lon="11.625974">
        <ele>387.84</ele>
        <time>2022-05-12T02:32:44.5740000+00:00</time>
      </trkpt>
      <trkpt lat="48.66731" lon="11.625418">
        <ele>386.69</ele>
        <time>2022-05-12T02:32:55.4110000+00:00</time>
      </trkpt>
      <trkpt lat="48.66743" lon="11.624625">
        <ele>387.06</ele>
        <time>2022-05-12T02:33:10.0050000+00:00</time>
      </trkpt>
      <trkpt lat="48.667432" lon="11.623762">
        <ele>385.3</ele>
        <time>2022-05-12T02:33:25.4870000+00:00</time>
      </trkpt>
      <trkpt lat="48.667823" lon="11.623759">
        <ele>385.35</ele>
        <time>2022-05-12T02:33:36.1080000+00:00</time>
      </trkpt>
      <trkpt lat="48.669693" lon="11.623619">
        <ele>384.95</ele>
        <time>2022-05-12T02:34:26.9650000+00:00</time>
      </trkpt>
      <trkpt lat="48.670557" lon="11.623192">
        <ele>384.63</ele>
        <time>2022-05-12T02:34:51.6520000+00:00</time>
      </trkpt>
      <trkpt lat="48.671281" lon="11.622639">
        <ele>382.79</ele>
        <time>2022-05-12T02:35:13.6780000+00:00</time>
      </trkpt>
      <trkpt lat="48.672313" lon="11.622252">
        <ele>381.55</ele>
        <time>2022-05-12T02:35:42.5570000+00:00</time>
      </trkpt>
      <trkpt lat="48.672787" lon="11.621996">
        <ele>380.95</ele>
        <time>2022-05-12T02:35:56.2270000+00:00</time>
      </trkpt>
      <trkpt lat="48.673372" lon="11.62157">
        <ele>379.2</ele>
        <time>2022-05-12T02:36:13.8590000+00:00</time>
      </trkpt>
      <trkpt lat="48.6739" lon="11.620976">
        <ele>378.65</ele>
        <time>2022-05-12T02:36:31.7250000+00:00</time>
      </trkpt>
      <trkpt lat="48.674791" lon="11.620085">
        <ele>378.04</ele>
        <time>2022-05-12T02:37:00.7280000+00:00</time>
      </trkpt>
      <trkpt lat="48.674791" lon="11.620085">
        <ele>378.04</ele>
        <time>2022-05-12T02:37:00.7280000+00:00</time>
      </trkpt>
      <trkpt lat="48.675125" lon="11.619745">
        <ele>377.55</ele>
        <time>2022-05-12T02:37:11.6600000+00:00</time>
      </trkpt>
      <trkpt lat="48.675766" lon="11.619529">
        <ele>377.55</ele>
        <time>2022-05-12T02:37:29.4970000+00:00</time>
      </trkpt>
      <trkpt lat="48.676547" lon="11.619271">
        <ele>377.6</ele>
        <time>2022-05-12T02:37:51.2100000+00:00</time>
      </trkpt>
      <trkpt lat="48.677244" lon="11.61876">
        <ele>377.18</ele>
        <time>2022-05-12T02:38:12.2450000+00:00</time>
      </trkpt>
      <trkpt lat="48.677689" lon="11.618209">
        <ele>376.14</ele>
        <time>2022-05-12T02:38:27.8580000+00:00</time>
      </trkpt>
      <trkpt lat="48.678188" lon="11.617194">
        <ele>376.13</ele>
        <time>2022-05-12T02:38:50.5540000+00:00</time>
      </trkpt>
      <trkpt lat="48.678327" lon="11.616982">
        <ele>376</ele>
        <time>2022-05-12T02:38:55.9130000+00:00</time>
      </trkpt>
      <trkpt lat="48.678717" lon="11.616557">
        <ele>375.86</ele>
        <time>2022-05-12T02:39:08.9640000+00:00</time>
      </trkpt>
      <trkpt lat="48.680249" lon="11.615703">
        <ele>377.51</ele>
        <time>2022-05-12T02:39:53.3070000+00:00</time>
      </trkpt>
      <trkpt lat="48.680855" lon="11.615362">
        <ele>375.9</ele>
        <time>2022-05-12T02:40:10.8670000+00:00</time>
      </trkpt>
      <trkpt lat="48.681612" lon="11.614937">
        <ele>375.18</ele>
        <time>2022-05-12T02:40:32.7960000+00:00</time>
      </trkpt>
      <trkpt lat="48.681612" lon="11.614937">
        <ele>375.18</ele>
        <time>2022-05-12T02:40:32.7960000+00:00</time>
      </trkpt>
      <trkpt lat="48.682172" lon="11.614467">
        <ele>375.35</ele>
        <time>2022-05-12T02:40:50.1870000+00:00</time>
      </trkpt>
      <trkpt lat="48.682421" lon="11.613622">
        <ele>378.9</ele>
        <time>2022-05-12T02:41:06.7820000+00:00</time>
      </trkpt>
      <trkpt lat="48.682532" lon="11.613257">
        <ele>381.02</ele>
        <time>2022-05-12T02:41:13.9890000+00:00</time>
      </trkpt>
      <trkpt lat="48.683279" lon="11.613561">
        <ele>382.35</ele>
        <time>2022-05-12T02:41:34.9990000+00:00</time>
      </trkpt>
      <trkpt lat="48.684032" lon="11.613098">
        <ele>387.07</ele>
        <time>2022-05-12T02:41:57.0740000+00:00</time>
      </trkpt>
      <trkpt lat="48.684032" lon="11.613098">
        <ele>387.07</ele>
        <time>2022-05-12T02:41:57.0740000+00:00</time>
      </trkpt>
      <trkpt lat="48.684216" lon="11.613554">
        <ele>386.28</ele>
        <time>2022-05-12T02:42:06.6580000+00:00</time>
      </trkpt>
      <trkpt lat="48.68485" lon="11.613779">
        <ele>387.28</ele>
        <time>2022-05-12T02:42:24.3460000+00:00</time>
      </trkpt>
      <trkpt lat="48.68485" lon="11.613779">
        <ele>387.28</ele>
        <time>2022-05-12T02:42:24.3460000+00:00</time>
      </trkpt>
      <trkpt lat="48.684953" lon="11.614352">
        <ele>386.7</ele>
        <time>2022-05-12T02:42:34.9960000+00:00</time>
      </trkpt>
      <trkpt lat="48.685563" lon="11.614411">
        <ele>386.92</ele>
        <time>2022-05-12T02:42:51.5990000+00:00</time>
      </trkpt>
      <trkpt lat="48.685581" lon="11.614833">
        <ele>385.83</ele>
        <time>2022-05-12T02:42:59.1820000+00:00</time>
      </trkpt>
      <trkpt lat="48.686254" lon="11.614904">
        <ele>384.9</ele>
        <time>2022-05-12T02:43:17.5070000+00:00</time>
      </trkpt>
      <trkpt lat="48.687134" lon="11.61514">
        <ele>384.39</ele>
        <time>2022-05-12T02:43:41.7820000+00:00</time>
      </trkpt>
      <trkpt lat="48.6884" lon="11.61494">
        <ele>383.46</ele>
        <time>2022-05-12T02:44:16.3570000+00:00</time>
      </trkpt>
      <trkpt lat="48.689488" lon="11.614587">
        <ele>382.3</ele>
        <time>2022-05-12T02:44:46.5810000+00:00</time>
      </trkpt>
      <trkpt lat="48.689792" lon="11.614662">
        <ele>382.77</ele>
        <time>2022-05-12T02:44:54.9470000+00:00</time>
      </trkpt>
      <trkpt lat="48.690806" lon="11.614922">
        <ele>382.21</ele>
        <time>2022-05-12T02:45:22.8820000+00:00</time>
      </trkpt>
      <trkpt lat="48.692099" lon="11.615372">
        <ele>380.57</ele>
        <time>2022-05-12T02:45:58.9190000+00:00</time>
      </trkpt>
      <trkpt lat="48.693192" lon="11.616053">
        <ele>377.47</ele>
        <time>2022-05-12T02:46:31.0210000+00:00</time>
      </trkpt>
      <trkpt lat="48.694005" lon="11.616583">
        <ele>376.5</ele>
        <time>2022-05-12T02:46:55.0620000+00:00</time>
      </trkpt>
      <trkpt lat="48.695678" lon="11.617106">
        <ele>373.58</ele>
        <time>2022-05-12T02:47:41.4630000+00:00</time>
      </trkpt>
      <trkpt lat="48.696235" lon="11.617141">
        <ele>373.5</ele>
        <time>2022-05-12T02:47:56.6060000+00:00</time>
      </trkpt>
      <trkpt lat="48.696944" lon="11.617021">
        <ele>371.07</ele>
        <time>2022-05-12T02:48:15.9850000+00:00</time>
      </trkpt>
      <trkpt lat="48.698007" lon="11.616822">
        <ele>372.05</ele>
        <time>2022-05-12T02:48:45.0790000+00:00</time>
      </trkpt>
      <trkpt lat="48.698818" lon="11.616854">
        <ele>371.98</ele>
        <time>2022-05-12T02:49:07.1150000+00:00</time>
      </trkpt>
      <trkpt lat="48.699879" lon="11.616082">
        <ele>371.09</ele>
        <time>2022-05-12T02:49:39.0860000+00:00</time>
      </trkpt>
      <trkpt lat="48.700524" lon="11.615761">
        <ele>371.11</ele>
        <time>2022-05-12T02:49:57.5270000+00:00</time>
      </trkpt>
      <trkpt lat="48.700768" lon="11.61549">
        <ele>371.22</ele>
        <time>2022-05-12T02:50:05.7450000+00:00</time>
      </trkpt>
      <trkpt lat="48.70139" lon="11.614947">
        <ele>370.84</ele>
        <time>2022-05-12T02:50:25.2440000+00:00</time>
      </trkpt>
      <trkpt lat="48.701591" lon="11.614946">
        <ele>370.44</ele>
        <time>2022-05-12T02:50:30.7040000+00:00</time>
      </trkpt>
      <trkpt lat="48.702455" lon="11.614259">
        <ele>371.16</ele>
        <time>2022-05-12T02:50:57.2080000+00:00</time>
      </trkpt>
      <trkpt lat="48.702572" lon="11.615242">
        <ele>368.23</ele>
        <time>2022-05-12T02:51:15.1140000+00:00</time>
      </trkpt>
      <trkpt lat="48.702766" lon="11.620557">
        <ele>367.31</ele>
        <time>2022-05-12T02:52:50.5400000+00:00</time>
      </trkpt>
      <trkpt lat="48.702769" lon="11.621331">
        <ele>368.24</ele>
        <time>2022-05-12T02:53:04.4150000+00:00</time>
      </trkpt>
      <trkpt lat="48.702885" lon="11.62366">
        <ele>368.02</ele>
        <time>2022-05-12T02:53:46.2850000+00:00</time>
      </trkpt>
      <trkpt lat="48.706251" lon="11.623931">
        <ele>368.14</ele>
        <time>2022-05-12T02:55:17.8450000+00:00</time>
      </trkpt>
      <trkpt lat="48.707323" lon="11.624859">
        <ele>370.49</ele>
        <time>2022-05-12T02:55:51.3800000+00:00</time>
      </trkpt>
      <trkpt lat="48.707323" lon="11.624859">
        <ele>370.49</ele>
        <time>2022-05-12T02:55:51.3800000+00:00</time>
      </trkpt>
      <trkpt lat="48.707324" lon="11.625162">
        <ele>370.5</ele>
        <time>2022-05-12T02:55:56.8120000+00:00</time>
      </trkpt>
      <trkpt lat="48.70755" lon="11.626237">
        <ele>369.57</ele>
        <time>2022-05-12T02:56:17.0350000+00:00</time>
      </trkpt>
      <trkpt lat="48.707797" lon="11.626754">
        <ele>368.39</ele>
        <time>2022-05-12T02:56:28.4760000+00:00</time>
      </trkpt>
      <trkpt lat="48.708177" lon="11.627189">
        <ele>366.96</ele>
        <time>2022-05-12T02:56:41.4120000+00:00</time>
      </trkpt>
      <trkpt lat="48.708401" lon="11.627894">
        <ele>366.5</ele>
        <time>2022-05-12T02:56:55.4370000+00:00</time>
      </trkpt>
      <trkpt lat="48.708677" lon="11.63055">
        <ele>370.75</ele>
        <time>2022-05-12T02:57:43.6320000+00:00</time>
      </trkpt>
      <trkpt lat="48.708792" lon="11.631801">
        <ele>374.53</ele>
        <time>2022-05-12T02:58:06.2720000+00:00</time>
      </trkpt>
      <trkpt lat="48.708526" lon="11.632241">
        <ele>375.54</ele>
        <time>2022-05-12T02:58:16.9680000+00:00</time>
      </trkpt>
      <trkpt lat="48.708532" lon="11.634327">
        <ele>377.89</ele>
        <time>2022-05-12T02:58:54.3590000+00:00</time>
      </trkpt>
      <trkpt lat="48.708671" lon="11.635374">
        <ele>377.73</ele>
        <time>2022-05-12T02:59:13.5020000+00:00</time>
      </trkpt>
      <trkpt lat="48.708926" lon="11.635345">
        <ele>377.5</ele>
        <time>2022-05-12T02:59:20.4480000+00:00</time>
      </trkpt>
      <trkpt lat="48.708947" lon="11.635978">
        <ele>376.3</ele>
        <time>2022-05-12T02:59:31.8090000+00:00</time>
      </trkpt>
      <trkpt lat="48.709283" lon="11.639545">
        <ele>378.96</ele>
        <time>2022-05-12T03:00:36.3930000+00:00</time>
      </trkpt>
      <trkpt lat="48.709692" lon="11.64247">
        <ele>383.47</ele>
        <time>2022-05-12T03:01:29.9860000+00:00</time>
      </trkpt>
      <trkpt lat="48.709857" lon="11.645531">
        <ele>389.02</ele>
        <time>2022-05-12T03:02:25.0340000+00:00</time>
      </trkpt>
      <trkpt lat="48.709773" lon="11.647147">
        <ele>390.91</ele>
        <time>2022-05-12T03:02:54.0900000+00:00</time>
      </trkpt>
      <trkpt lat="48.709976" lon="11.648189">
        <ele>393.06</ele>
        <time>2022-05-12T03:03:13.5630000+00:00</time>
      </trkpt>
      <trkpt lat="48.710537" lon="11.649532">
        <ele>396.32</ele>
        <time>2022-05-12T03:03:42.0530000+00:00</time>
      </trkpt>
      <trkpt lat="48.712445" lon="11.654971">
        <ele>381.22</ele>
        <time>2022-05-12T03:05:32.4600000+00:00</time>
      </trkpt>
      <trkpt lat="48.712741" lon="11.657224">
        <ele>375.67</ele>
        <time>2022-05-12T03:06:13.6330000+00:00</time>
      </trkpt>
      <trkpt lat="48.713143" lon="11.657525">
        <ele>375.16</ele>
        <time>2022-05-12T03:06:25.8130000+00:00</time>
      </trkpt>
      <trkpt lat="48.71368" lon="11.658396">
        <ele>375.64</ele>
        <time>2022-05-12T03:06:47.1780000+00:00</time>
      </trkpt>
      <trkpt lat="48.713829" lon="11.660188">
        <ele>380.19</ele>
        <time>2022-05-12T03:07:19.5490000+00:00</time>
      </trkpt>
      <trkpt lat="48.713977" lon="11.660683">
        <ele>380.26</ele>
        <time>2022-05-12T03:07:29.2890000+00:00</time>
      </trkpt>
      <trkpt lat="48.713977" lon="11.660683">
        <ele>380.26</ele>
        <time>2022-05-12T03:07:29.2890000+00:00</time>
      </trkpt>
      <trkpt lat="48.713504" lon="11.66115">
        <ele>380.92</ele>
        <time>2022-05-12T03:07:44.6230000+00:00</time>
      </trkpt>
      <trkpt lat="48.713322" lon="11.661294">
        <ele>380.76</ele>
        <time>2022-05-12T03:07:50.2000000+00:00</time>
      </trkpt>
      <trkpt lat="48.712808" lon="11.661359">
        <ele>380.35</ele>
        <time>2022-05-12T03:08:04.2100000+00:00</time>
      </trkpt>
      <trkpt lat="48.712625" lon="11.663548">
        <ele>390.6</ele>
        <time>2022-05-12T03:08:43.7580000+00:00</time>
      </trkpt>
      <trkpt lat="48.712458" lon="11.664719">
        <ele>405.32</ele>
        <time>2022-05-12T03:09:05.2300000+00:00</time>
      </trkpt>
      <trkpt lat="48.712297" lon="11.665304">
        <ele>407.52</ele>
        <time>2022-05-12T03:09:16.5910000+00:00</time>
      </trkpt>
      <trkpt lat="48.71222" lon="11.666501">
        <ele>407</ele>
        <time>2022-05-12T03:09:38.1470000+00:00</time>
      </trkpt>
      <trkpt lat="48.71216" lon="11.667616">
        <ele>407.81</ele>
        <time>2022-05-12T03:09:58.1980000+00:00</time>
      </trkpt>
      <trkpt lat="48.712166" lon="11.669737">
        <ele>405.23</ele>
        <time>2022-05-12T03:10:36.2130000+00:00</time>
      </trkpt>
      <trkpt lat="48.712168" lon="11.670742">
        <ele>399.24</ele>
        <time>2022-05-12T03:10:54.2260000+00:00</time>
      </trkpt>
      <trkpt lat="48.711847" lon="11.671859">
        <ele>398.82</ele>
        <time>2022-05-12T03:11:16.0630000+00:00</time>
      </trkpt>
      <trkpt lat="48.711777" lon="11.672499">
        <ele>399.04</ele>
        <time>2022-05-12T03:11:27.6900000+00:00</time>
      </trkpt>
      <trkpt lat="48.711752" lon="11.673178">
        <ele>399.05</ele>
        <time>2022-05-12T03:11:39.8790000+00:00</time>
      </trkpt>
      <trkpt lat="48.711752" lon="11.673178">
        <ele>399.05</ele>
        <time>2022-05-12T03:11:39.8790000+00:00</time>
      </trkpt>
      <trkpt lat="48.711678" lon="11.675734">
        <ele>402.05</ele>
        <time>2022-05-12T03:12:25.7360000+00:00</time>
      </trkpt>
      <trkpt lat="48.711643" lon="11.676306">
        <ele>401.27</ele>
        <time>2022-05-12T03:12:36.0320000+00:00</time>
      </trkpt>
      <trkpt lat="48.711607" lon="11.679473">
        <ele>392.74</ele>
        <time>2022-05-12T03:13:32.8040000+00:00</time>
      </trkpt>
      <trkpt lat="48.711627" lon="11.680316">
        <ele>391.24</ele>
        <time>2022-05-12T03:13:47.9230000+00:00</time>
      </trkpt>
      <trkpt lat="48.710946" lon="11.681489">
        <ele>392.2</ele>
        <time>2022-05-12T03:14:15.9270000+00:00</time>
      </trkpt>
      <trkpt lat="48.710554" lon="11.682769">
        <ele>393.38</ele>
        <time>2022-05-12T03:14:41.2200000+00:00</time>
      </trkpt>
      <trkpt lat="48.710443" lon="11.685203">
        <ele>396.24</ele>
        <time>2022-05-12T03:15:24.9510000+00:00</time>
      </trkpt>
      <trkpt lat="48.710391" lon="11.686101">
        <ele>399.49</ele>
        <time>2022-05-12T03:15:41.1080000+00:00</time>
      </trkpt>
      <trkpt lat="48.710462" lon="11.688928">
        <ele>416.75</ele>
        <time>2022-05-12T03:16:31.8160000+00:00</time>
      </trkpt>
      <trkpt lat="48.710266" lon="11.689676">
        <ele>418.99</ele>
        <time>2022-05-12T03:16:46.2410000+00:00</time>
      </trkpt>
      <trkpt lat="48.709701" lon="11.690577">
        <ele>415.96</ele>
        <time>2022-05-12T03:17:08.5200000+00:00</time>
      </trkpt>
      <trkpt lat="48.709396" lon="11.691054">
        <ele>413.68</ele>
        <time>2022-05-12T03:17:20.4250000+00:00</time>
      </trkpt>
      <trkpt lat="48.70816" lon="11.69325">
        <ele>410.28</ele>
        <time>2022-05-12T03:18:12.1610000+00:00</time>
      </trkpt>
      <trkpt lat="48.706808" lon="11.695609">
        <ele>418.3</ele>
        <time>2022-05-12T03:19:08.1670000+00:00</time>
      </trkpt>
      <trkpt lat="48.706423" lon="11.696577">
        <ele>418.83</ele>
        <time>2022-05-12T03:19:28.4270000+00:00</time>
      </trkpt>
      <trkpt lat="48.70638" lon="11.696998">
        <ele>418.38</ele>
        <time>2022-05-12T03:19:36.0630000+00:00</time>
      </trkpt>
      <trkpt lat="48.706555" lon="11.698751">
        <ele>417.02</ele>
        <time>2022-05-12T03:20:07.8440000+00:00</time>
      </trkpt>
      <trkpt lat="48.706657" lon="11.700096">
        <ele>427.81</ele>
        <time>2022-05-12T03:20:32.1120000+00:00</time>
      </trkpt>
      <trkpt lat="48.706588" lon="11.701116">
        <ele>432.79</ele>
        <time>2022-05-12T03:20:50.4910000+00:00</time>
      </trkpt>
      <trkpt lat="48.706223" lon="11.701548">
        <ele>434.11</ele>
        <time>2022-05-12T03:21:03.0720000+00:00</time>
      </trkpt>
      <trkpt lat="48.706409" lon="11.701728">
        <ele>433.67</ele>
        <time>2022-05-12T03:21:09.0660000+00:00</time>
      </trkpt>
      <trkpt lat="48.707535" lon="11.702306">
        <ele>430.66</ele>
        <time>2022-05-12T03:21:41.3590000+00:00</time>
      </trkpt>
      <trkpt lat="48.708122" lon="11.703078">
        <ele>428.54</ele>
        <time>2022-05-12T03:22:02.4710000+00:00</time>
      </trkpt>
      <trkpt lat="48.709196" lon="11.704567">
        <ele>415.76</ele>
        <time>2022-05-12T03:22:42.0110000+00:00</time>
      </trkpt>
      <trkpt lat="48.709892" lon="11.705964">
        <ele>396.2</ele>
        <time>2022-05-12T03:23:13.3870000+00:00</time>
      </trkpt>
      <trkpt lat="48.710849" lon="11.707209">
        <ele>390.18</ele>
        <time>2022-05-12T03:23:47.6460000+00:00</time>
      </trkpt>
      <trkpt lat="48.712454" lon="11.708845">
        <ele>394.16</ele>
        <time>2022-05-12T03:24:40.1870000+00:00</time>
      </trkpt>
      <trkpt lat="48.71373" lon="11.710027">
        <ele>416.55</ele>
        <time>2022-05-12T03:25:20.8080000+00:00</time>
      </trkpt>
      <trkpt lat="48.71373" lon="11.710027">
        <ele>416.55</ele>
        <time>2022-05-12T03:25:20.8080000+00:00</time>
      </trkpt>
      <trkpt lat="48.714134" lon="11.710168">
        <ele>417.59</ele>
        <time>2022-05-12T03:25:32.0690000+00:00</time>
      </trkpt>
      <trkpt lat="48.714853" lon="11.70996">
        <ele>416.48</ele>
        <time>2022-05-12T03:25:51.9520000+00:00</time>
      </trkpt>
      <trkpt lat="48.715209" lon="11.709999">
        <ele>416.31</ele>
        <time>2022-05-12T03:26:01.6470000+00:00</time>
      </trkpt>
      <trkpt lat="48.715922" lon="11.710621">
        <ele>422.08</ele>
        <time>2022-05-12T03:26:23.9940000+00:00</time>
      </trkpt>
      <trkpt lat="48.716655" lon="11.711119">
        <ele>423.85</ele>
        <time>2022-05-12T03:26:45.8130000+00:00</time>
      </trkpt>
      <trkpt lat="48.717195" lon="11.711116">
        <ele>425.94</ele>
        <time>2022-05-12T03:27:00.4810000+00:00</time>
      </trkpt>
      <trkpt lat="48.717767" lon="11.710964">
        <ele>428.73</ele>
        <time>2022-05-12T03:27:16.2550000+00:00</time>
      </trkpt>
      <trkpt lat="48.718723" lon="11.710782">
        <ele>429.91</ele>
        <time>2022-05-12T03:27:42.4270000+00:00</time>
      </trkpt>
      <trkpt lat="48.719321" lon="11.710045">
        <ele>424.2</ele>
        <time>2022-05-12T03:28:03.3630000+00:00</time>
      </trkpt>
      <trkpt lat="48.720253" lon="11.708436">
        <ele>426.6</ele>
        <time>2022-05-12T03:28:41.7330000+00:00</time>
      </trkpt>
      <trkpt lat="48.72045" lon="11.708081">
        <ele>426.57</ele>
        <time>2022-05-12T03:28:50.0460000+00:00</time>
      </trkpt>
      <trkpt lat="48.720728" lon="11.707794">
        <ele>427.68</ele>
        <time>2022-05-12T03:28:59.1830000+00:00</time>
      </trkpt>
      <trkpt lat="48.72098" lon="11.707833">
        <ele>429.51</ele>
        <time>2022-05-12T03:29:06.0630000+00:00</time>
      </trkpt>
      <trkpt lat="48.721394" lon="11.708035">
        <ele>429.42</ele>
        <time>2022-05-12T03:29:17.8770000+00:00</time>
      </trkpt>
      <trkpt lat="48.721817" lon="11.708033">
        <ele>428.23</ele>
        <time>2022-05-12T03:29:29.3670000+00:00</time>
      </trkpt>
      <trkpt lat="48.722942" lon="11.707224">
        <ele>423.99</ele>
        <time>2022-05-12T03:30:03.1900000+00:00</time>
      </trkpt>
      <trkpt lat="48.724323" lon="11.706455">
        <ele>418.35</ele>
        <time>2022-05-12T03:30:43.1530000+00:00</time>
      </trkpt>
      <trkpt lat="48.724871" lon="11.706248">
        <ele>415.64</ele>
        <time>2022-05-12T03:30:58.4930000+00:00</time>
      </trkpt>
      <trkpt lat="48.7256" lon="11.706285">
        <ele>413.16</ele>
        <time>2022-05-12T03:31:18.3060000+00:00</time>
      </trkpt>
      <trkpt lat="48.725906" lon="11.706365">
        <ele>413.16</ele>
        <time>2022-05-12T03:31:26.7410000+00:00</time>
      </trkpt>
      <trkpt lat="48.726179" lon="11.706418">
        <ele>412.72</ele>
        <time>2022-05-12T03:31:34.2170000+00:00</time>
      </trkpt>
      <trkpt lat="48.726718" lon="11.706238">
        <ele>409.57</ele>
        <time>2022-05-12T03:31:49.2090000+00:00</time>
      </trkpt>
      <trkpt lat="48.727966" lon="11.706327">
        <ele>394.89</ele>
        <time>2022-05-12T03:32:23.1460000+00:00</time>
      </trkpt>
      <trkpt lat="48.728317" lon="11.706257">
        <ele>392.77</ele>
        <time>2022-05-12T03:32:32.7620000+00:00</time>
      </trkpt>
      <trkpt lat="48.72864" lon="11.706078">
        <ele>391.19</ele>
        <time>2022-05-12T03:32:42.1040000+00:00</time>
      </trkpt>
      <trkpt lat="48.729447" lon="11.705027">
        <ele>393.03</ele>
        <time>2022-05-12T03:33:11.0020000+00:00</time>
      </trkpt>
      <trkpt lat="48.730438" lon="11.709128">
        <ele>393.42</ele>
        <time>2022-05-12T03:34:29.2550000+00:00</time>
      </trkpt>
      <trkpt lat="48.730474" lon="11.709305">
        <ele>393.16</ele>
        <time>2022-05-12T03:34:32.5740000+00:00</time>
      </trkpt>
      <trkpt lat="48.731092" lon="11.711871">
        <ele>391.55</ele>
        <time>2022-05-12T03:35:21.5170000+00:00</time>
      </trkpt>
      <trkpt lat="48.73111" lon="11.712007">
        <ele>391.93</ele>
        <time>2022-05-12T03:35:24.0020000+00:00</time>
      </trkpt>
      <trkpt lat="48.732346" lon="11.71744">
        <ele>395.11</ele>
        <time>2022-05-12T03:37:06.9690000+00:00</time>
      </trkpt>
      <trkpt lat="48.732837" lon="11.719382">
        <ele>396.13</ele>
        <time>2022-05-12T03:37:44.2300000+00:00</time>
      </trkpt>
      <trkpt lat="48.7345" lon="11.726799">
        <ele>407.26</ele>
        <time>2022-05-12T03:40:04.5790000+00:00</time>
      </trkpt>
      <trkpt lat="48.735226" lon="11.72976">
        <ele>405.43</ele>
        <time>2022-05-12T03:41:01.1730000+00:00</time>
      </trkpt>
      <trkpt lat="48.736052" lon="11.733374">
        <ele>397.66</ele>
        <time>2022-05-12T03:42:09.6950000+00:00</time>
      </trkpt>
      <trkpt lat="48.736307" lon="11.73446">
        <ele>396.58</ele>
        <time>2022-05-12T03:42:30.3460000+00:00</time>
      </trkpt>
      <trkpt lat="48.737171" lon="11.738133">
        <ele>404.85</ele>
        <time>2022-05-12T03:43:40.2060000+00:00</time>
      </trkpt>
      <trkpt lat="48.737171" lon="11.738133">
        <ele>404.85</ele>
        <time>2022-05-12T03:43:40.2060000+00:00</time>
      </trkpt>
      <trkpt lat="48.737943" lon="11.738179">
        <ele>407.47</ele>
        <time>2022-05-12T03:44:01.1920000+00:00</time>
      </trkpt>
      <trkpt lat="48.738753" lon="11.73827">
        <ele>409.18</ele>
        <time>2022-05-12T03:44:23.2550000+00:00</time>
      </trkpt>
      <trkpt lat="48.739553" lon="11.738049">
        <ele>406.52</ele>
        <time>2022-05-12T03:44:45.3430000+00:00</time>
      </trkpt>
      <trkpt lat="48.740704" lon="11.737676">
        <ele>405.26</ele>
        <time>2022-05-12T03:45:17.3130000+00:00</time>
      </trkpt>
      <trkpt lat="48.741576" lon="11.737671">
        <ele>404.23</ele>
        <time>2022-05-12T03:45:41.0000000+00:00</time>
      </trkpt>
      <trkpt lat="48.742413" lon="11.737749">
        <ele>401.73</ele>
        <time>2022-05-12T03:46:03.7780000+00:00</time>
      </trkpt>
      <trkpt lat="48.743295" lon="11.738139">
        <ele>400.96</ele>
        <time>2022-05-12T03:46:28.7340000+00:00</time>
      </trkpt>
      <trkpt lat="48.743295" lon="11.738139">
        <ele>400.96</ele>
        <time>2022-05-12T03:46:28.7340000+00:00</time>
      </trkpt>
      <trkpt lat="48.744438" lon="11.738378">
        <ele>397.78</ele>
        <time>2022-05-12T03:47:00.0750000+00:00</time>
      </trkpt>
      <trkpt lat="48.744799" lon="11.73854">
        <ele>397.98</ele>
        <time>2022-05-12T03:47:10.3010000+00:00</time>
      </trkpt>
      <trkpt lat="48.745834" lon="11.739106">
        <ele>400.08</ele>
        <time>2022-05-12T03:47:40.1870000+00:00</time>
      </trkpt>
      <trkpt lat="48.746573" lon="11.739579">
        <ele>401.65</ele>
        <time>2022-05-12T03:48:01.9750000+00:00</time>
      </trkpt>
      <trkpt lat="48.748473" lon="11.740698">
        <ele>401.28</ele>
        <time>2022-05-12T03:48:57.3390000+00:00</time>
      </trkpt>
      <trkpt lat="48.749843" lon="11.741862">
        <ele>402.86</ele>
        <time>2022-05-12T03:49:39.9940000+00:00</time>
      </trkpt>
      <trkpt lat="48.75179" lon="11.74343">
        <ele>399.22</ele>
        <time>2022-05-12T03:50:39.8740000+00:00</time>
      </trkpt>
      <trkpt lat="48.754358" lon="11.745486">
        <ele>391.71</ele>
        <time>2022-05-12T03:51:58.7500000+00:00</time>
      </trkpt>
      <trkpt lat="48.755538" lon="11.746514">
        <ele>395.66</ele>
        <time>2022-05-12T03:52:35.7130000+00:00</time>
      </trkpt>
      <trkpt lat="48.756611" lon="11.747693">
        <ele>395.03</ele>
        <time>2022-05-12T03:53:11.7020000+00:00</time>
      </trkpt>
      <trkpt lat="48.757404" lon="11.748451">
        <ele>393.29</ele>
        <time>2022-05-12T03:53:37.1630000+00:00</time>
      </trkpt>
      <trkpt lat="48.757684" lon="11.748586">
        <ele>394.01</ele>
        <time>2022-05-12T03:53:45.1430000+00:00</time>
      </trkpt>
      <trkpt lat="48.758737" lon="11.74903">
        <ele>384.93</ele>
        <time>2022-05-12T03:54:14.8310000+00:00</time>
      </trkpt>
      <trkpt lat="48.759007" lon="11.749178">
        <ele>380.87</ele>
        <time>2022-05-12T03:54:22.6290000+00:00</time>
      </trkpt>
      <trkpt lat="48.759817" lon="11.749406">
        <ele>375.01</ele>
        <time>2022-05-12T03:54:45.0060000+00:00</time>
      </trkpt>
      <trkpt lat="48.759981" lon="11.750276">
        <ele>377.21</ele>
        <time>2022-05-12T03:55:01.2090000+00:00</time>
      </trkpt>
      <trkpt lat="48.76019" lon="11.751363">
        <ele>383.17</ele>
        <time>2022-05-12T03:55:21.4840000+00:00</time>
      </trkpt>
      <trkpt lat="48.760326" lon="11.751716">
        <ele>383.88</ele>
        <time>2022-05-12T03:55:28.8050000+00:00</time>
      </trkpt>
      <trkpt lat="48.760515" lon="11.751892">
        <ele>383.51</ele>
        <time>2022-05-12T03:55:34.8290000+00:00</time>
      </trkpt>
      <trkpt lat="48.761262" lon="11.752202">
        <ele>380.23</ele>
        <time>2022-05-12T03:55:55.8660000+00:00</time>
      </trkpt>
      <trkpt lat="48.761758" lon="11.75254">
        <ele>378.84</ele>
        <time>2022-05-12T03:56:10.6350000+00:00</time>
      </trkpt>
      <trkpt lat="48.762029" lon="11.753124">
        <ele>379.12</ele>
        <time>2022-05-12T03:56:23.4230000+00:00</time>
      </trkpt>
      <trkpt lat="48.762246" lon="11.753885">
        <ele>379.17</ele>
        <time>2022-05-12T03:56:38.2700000+00:00</time>
      </trkpt>
      <trkpt lat="48.762338" lon="11.755082">
        <ele>380.44</ele>
        <time>2022-05-12T03:56:59.8480000+00:00</time>
      </trkpt>
      <trkpt lat="48.762385" lon="11.755775">
        <ele>381.96</ele>
        <time>2022-05-12T03:57:12.3220000+00:00</time>
      </trkpt>
      <trkpt lat="48.762467" lon="11.75636">
        <ele>382.9</ele>
        <time>2022-05-12T03:57:23.0300000+00:00</time>
      </trkpt>
      <trkpt lat="48.762756" lon="11.756753">
        <ele>384.54</ele>
        <time>2022-05-12T03:57:33.5730000+00:00</time>
      </trkpt>
      <trkpt lat="48.76326" lon="11.756969">
        <ele>390.67</ele>
        <time>2022-05-12T03:57:47.7990000+00:00</time>
      </trkpt>
      <trkpt lat="48.763889" lon="11.75653">
        <ele>392.95</ele>
        <time>2022-05-12T03:58:06.6060000+00:00</time>
      </trkpt>
      <trkpt lat="48.764761" lon="11.756418">
        <ele>390.53</ele>
        <time>2022-05-12T03:58:30.3770000+00:00</time>
      </trkpt>
      <trkpt lat="48.765562" lon="11.756659">
        <ele>387.5</ele>
        <time>2022-05-12T03:58:52.5580000+00:00</time>
      </trkpt>
      <trkpt lat="48.766031" lon="11.757201">
        <ele>386.59</ele>
        <time>2022-05-12T03:59:08.5720000+00:00</time>
      </trkpt>
      <trkpt lat="48.766419" lon="11.757784">
        <ele>384.32</ele>
        <time>2022-05-12T03:59:23.4060000+00:00</time>
      </trkpt>
      <trkpt lat="48.767283" lon="11.757957">
        <ele>379.81</ele>
        <time>2022-05-12T03:59:47.0780000+00:00</time>
      </trkpt>
      <trkpt lat="48.768047" lon="11.758008">
        <ele>378.4</ele>
        <time>2022-05-12T04:00:07.8510000+00:00</time>
      </trkpt>
      <trkpt lat="48.768679" lon="11.758727">
        <ele>377.2</ele>
        <time>2022-05-12T04:00:29.3080000+00:00</time>
      </trkpt>
      <trkpt lat="48.769543" lon="11.759294">
        <ele>381.26</ele>
        <time>2022-05-12T04:00:54.8780000+00:00</time>
      </trkpt>
      <trkpt lat="48.771308" lon="11.760076">
        <ele>385.46</ele>
        <time>2022-05-12T04:01:44.8230000+00:00</time>
      </trkpt>
      <trkpt lat="48.773505" lon="11.761032">
        <ele>381.04</ele>
        <time>2022-05-12T04:02:46.9050000+00:00</time>
      </trkpt>
      <trkpt lat="48.773757" lon="11.761263">
        <ele>380.37</ele>
        <time>2022-05-12T04:02:54.9030000+00:00</time>
      </trkpt>
      <trkpt lat="48.774316" lon="11.761941">
        <ele>378.05</ele>
        <time>2022-05-12T04:03:14.3410000+00:00</time>
      </trkpt>
      <trkpt lat="48.775821" lon="11.763472">
        <ele>375.87</ele>
        <time>2022-05-12T04:04:03.5580000+00:00</time>
      </trkpt>
      <trkpt lat="48.776588" lon="11.764326">
        <ele>376.33</ele>
        <time>2022-05-12T04:04:29.3990000+00:00</time>
      </trkpt>
      <trkpt lat="48.777578" lon="11.765084">
        <ele>370.49</ele>
        <time>2022-05-12T04:04:59.5200000+00:00</time>
      </trkpt>
      <trkpt lat="48.778254" lon="11.765394">
        <ele>363.08</ele>
        <time>2022-05-12T04:05:18.7020000+00:00</time>
      </trkpt>
      <trkpt lat="48.778614" lon="11.765746">
        <ele>359.81</ele>
        <time>2022-05-12T04:05:30.3350000+00:00</time>
      </trkpt>
      <trkpt lat="48.77874" lon="11.765868">
        <ele>359.52</ele>
        <time>2022-05-12T04:05:34.3940000+00:00</time>
      </trkpt>
      <trkpt lat="48.778884" lon="11.765677">
        <ele>359.31</ele>
        <time>2022-05-12T04:05:39.5890000+00:00</time>
      </trkpt>
      <trkpt lat="48.779711" lon="11.765948">
        <ele>358.53</ele>
        <time>2022-05-12T04:06:02.5710000+00:00</time>
      </trkpt>
      <trkpt lat="48.78042" lon="11.766374">
        <ele>358.88</ele>
        <time>2022-05-12T04:06:23.2840000+00:00</time>
      </trkpt>
      <trkpt lat="48.781272" lon="11.766906">
        <ele>357.65</ele>
        <time>2022-05-12T04:06:48.3090000+00:00</time>
      </trkpt>
      <trkpt lat="48.782335" lon="11.767276">
        <ele>358.46</ele>
        <time>2022-05-12T04:07:17.9330000+00:00</time>
      </trkpt>
      <trkpt lat="48.782902" lon="11.767381">
        <ele>359.81</ele>
        <time>2022-05-12T04:07:33.4490000+00:00</time>
      </trkpt>
      <trkpt lat="48.78354" lon="11.767379">
        <ele>361.02</ele>
        <time>2022-05-12T04:07:50.7790000+00:00</time>
      </trkpt>
      <trkpt lat="48.785878" lon="11.767315">
        <ele>360.85</ele>
        <time>2022-05-12T04:08:54.2960000+00:00</time>
      </trkpt>
      <trkpt lat="48.786263" lon="11.767224">
        <ele>359.19</ele>
        <time>2022-05-12T04:09:04.8800000+00:00</time>
      </trkpt>
      <trkpt lat="48.786613" lon="11.76695">
        <ele>357.36</ele>
        <time>2022-05-12T04:09:15.5780000+00:00</time>
      </trkpt>
      <trkpt lat="48.787764" lon="11.766645">
        <ele>354.92</ele>
        <time>2022-05-12T04:09:47.3150000+00:00</time>
      </trkpt>
      <trkpt lat="48.78913" lon="11.766027">
        <ele>355.75</ele>
        <time>2022-05-12T04:10:26.0330000+00:00</time>
      </trkpt>
      <trkpt lat="48.790199" lon="11.765273">
        <ele>358.64</ele>
        <time>2022-05-12T04:10:58.0520000+00:00</time>
      </trkpt>
      <trkpt lat="48.791079" lon="11.764398">
        <ele>356.88</ele>
        <time>2022-05-12T04:11:26.6280000+00:00</time>
      </trkpt>
      <trkpt lat="48.791681" lon="11.764096">
        <ele>356.45</ele>
        <time>2022-05-12T04:11:43.8500000+00:00</time>
      </trkpt>
      <trkpt lat="48.79187" lon="11.763864">
        <ele>356.58</ele>
        <time>2022-05-12T04:11:50.4520000+00:00</time>
      </trkpt>
      <trkpt lat="48.79204" lon="11.763468">
        <ele>356.7</ele>
        <time>2022-05-12T04:11:58.9100000+00:00</time>
      </trkpt>
      <trkpt lat="48.792435" lon="11.763112">
        <ele>356.14</ele>
        <time>2022-05-12T04:12:11.3880000+00:00</time>
      </trkpt>
      <trkpt lat="48.792452" lon="11.762745">
        <ele>356.02</ele>
        <time>2022-05-12T04:12:17.9720000+00:00</time>
      </trkpt>
      <trkpt lat="48.79253" lon="11.762459">
        <ele>356.05</ele>
        <time>2022-05-12T04:12:23.5110000+00:00</time>
      </trkpt>
      <trkpt lat="48.793271" lon="11.761276">
        <ele>356.19</ele>
        <time>2022-05-12T04:12:52.7220000+00:00</time>
      </trkpt>
      <trkpt lat="48.79412" lon="11.760522">
        <ele>354.85</ele>
        <time>2022-05-12T04:13:19.4400000+00:00</time>
      </trkpt>
      <trkpt lat="48.795005" lon="11.760089">
        <ele>354.33</ele>
        <time>2022-05-12T04:13:44.6970000+00:00</time>
      </trkpt>
      <trkpt lat="48.795997" lon="11.75987">
        <ele>354.19</ele>
        <time>2022-05-12T04:14:11.9260000+00:00</time>
      </trkpt>
      <trkpt lat="48.796953" lon="11.759812">
        <ele>354.47</ele>
        <time>2022-05-12T04:14:37.9150000+00:00</time>
      </trkpt>
      <trkpt lat="48.798193" lon="11.759914">
        <ele>354.55</ele>
        <time>2022-05-12T04:15:11.6460000+00:00</time>
      </trkpt>
      <trkpt lat="48.799037" lon="11.759756">
        <ele>355.02</ele>
        <time>2022-05-12T04:15:34.7460000+00:00</time>
      </trkpt>
      <trkpt lat="48.799963" lon="11.759101">
        <ele>355.68</ele>
        <time>2022-05-12T04:16:02.4950000+00:00</time>
      </trkpt>
      <trkpt lat="48.800741" lon="11.758508">
        <ele>353.89</ele>
        <time>2022-05-12T04:16:26.1410000+00:00</time>
      </trkpt>
      <trkpt lat="48.801408" lon="11.757556">
        <ele>351.42</ele>
        <time>2022-05-12T04:16:51.0080000+00:00</time>
      </trkpt>
      <trkpt lat="48.801632" lon="11.757228">
        <ele>350.81</ele>
        <time>2022-05-12T04:16:59.4620000+00:00</time>
      </trkpt>
      <trkpt lat="48.802075" lon="11.756367">
        <ele>351.69</ele>
        <time>2022-05-12T04:17:19.0090000+00:00</time>
      </trkpt>
      <trkpt lat="48.802897" lon="11.754355">
        <ele>348.02</ele>
        <time>2022-05-12T04:18:01.3680000+00:00</time>
      </trkpt>
      <trkpt lat="48.803726" lon="11.752425">
        <ele>349.04</ele>
        <time>2022-05-12T04:18:42.5910000+00:00</time>
      </trkpt>
      <trkpt lat="48.804187" lon="11.751593">
        <ele>349.72</ele>
        <time>2022-05-12T04:19:02.0430000+00:00</time>
      </trkpt>
      <trkpt lat="48.804373" lon="11.751712">
        <ele>349.76</ele>
        <time>2022-05-12T04:19:07.5260000+00:00</time>
      </trkpt>
      <trkpt lat="48.804618" lon="11.75197">
        <ele>349.73</ele>
        <time>2022-05-12T04:19:15.6250000+00:00</time>
      </trkpt>
      <trkpt lat="48.804874" lon="11.752107">
        <ele>349.71</ele>
        <time>2022-05-12T04:19:22.9980000+00:00</time>
      </trkpt>
      <trkpt lat="48.805014" lon="11.752646">
        <ele>350.7</ele>
        <time>2022-05-12T04:19:33.3630000+00:00</time>
      </trkpt>
      <trkpt lat="48.805145" lon="11.754315">
        <ele>350.94</ele>
        <time>2022-05-12T04:20:03.4330000+00:00</time>
      </trkpt>
      <trkpt lat="48.805236" lon="11.755028">
        <ele>350.3</ele>
        <time>2022-05-12T04:20:16.4260000+00:00</time>
      </trkpt>
      <trkpt lat="48.805287" lon="11.755154">
        <ele>350.21</ele>
        <time>2022-05-12T04:20:19.0720000+00:00</time>
      </trkpt>
      <trkpt lat="48.805499" lon="11.755329">
        <ele>350.16</ele>
        <time>2022-05-12T04:20:25.6270000+00:00</time>
      </trkpt>
      <trkpt lat="48.80573" lon="11.75545">
        <ele>350.29</ele>
        <time>2022-05-12T04:20:32.2640000+00:00</time>
      </trkpt>
      <trkpt lat="48.805886" lon="11.755309">
        <ele>350.73</ele>
        <time>2022-05-12T04:20:37.1960000+00:00</time>
      </trkpt>
      <trkpt lat="48.806186" lon="11.755543">
        <ele>351.19</ele>
        <time>2022-05-12T04:20:46.3570000+00:00</time>
      </trkpt>
      <trkpt lat="48.80662" lon="11.755853">
        <ele>351.89</ele>
        <time>2022-05-12T04:20:59.3850000+00:00</time>
      </trkpt>
      <trkpt lat="48.807121" lon="11.756317">
        <ele>351.09</ele>
        <time>2022-05-12T04:21:15.3250000+00:00</time>
      </trkpt>
      <trkpt lat="48.807996" lon="11.75661">
        <ele>349.63</ele>
        <time>2022-05-12T04:21:39.6640000+00:00</time>
      </trkpt>
      <trkpt lat="48.807864" lon="11.75949">
        <ele>351.8</ele>
        <time>2022-05-12T04:22:31.3090000+00:00</time>
      </trkpt>
      <trkpt lat="48.807811" lon="11.760591">
        <ele>355.55</ele>
        <time>2022-05-12T04:22:51.0580000+00:00</time>
      </trkpt>
      <trkpt lat="48.807748" lon="11.761337">
        <ele>356.14</ele>
        <time>2022-05-12T04:23:04.5130000+00:00</time>
      </trkpt>
      <trkpt lat="48.807654" lon="11.763388">
        <ele>357.99</ele>
        <time>2022-05-12T04:23:41.2920000+00:00</time>
      </trkpt>
      <trkpt lat="48.80836" lon="11.763563">
        <ele>357.97</ele>
        <time>2022-05-12T04:24:00.7230000+00:00</time>
      </trkpt>
      <trkpt lat="48.809141" lon="11.763661">
        <ele>357.06</ele>
        <time>2022-05-12T04:24:22.0100000+00:00</time>
      </trkpt>
      <trkpt lat="48.810444" lon="11.763705">
        <ele>351.18</ele>
        <time>2022-05-12T04:24:57.4120000+00:00</time>
      </trkpt>
      <trkpt lat="48.810435" lon="11.763732">
        <ele>351.17</ele>
        <time>2022-05-12T04:24:57.9530000+00:00</time>
      </trkpt>
      <trkpt lat="48.810787" lon="11.76367">
        <ele>350.45</ele>
        <time>2022-05-12T04:25:07.5780000+00:00</time>
      </trkpt>
      <trkpt lat="48.810994" lon="11.763681">
        <ele>350</ele>
        <time>2022-05-12T04:25:13.2040000+00:00</time>
      </trkpt>
      <trkpt lat="48.811174" lon="11.76365">
        <ele>350</ele>
        <time>2022-05-12T04:25:18.1250000+00:00</time>
      </trkpt>
      <trkpt lat="48.811663" lon="11.763541">
        <ele>350</ele>
        <time>2022-05-12T04:25:31.5500000+00:00</time>
      </trkpt>
      <trkpt lat="48.81193" lon="11.763296">
        <ele>350.04</ele>
        <time>2022-05-12T04:25:40.0240000+00:00</time>
      </trkpt>
      <trkpt lat="48.81193" lon="11.763296">
        <ele>350.04</ele>
        <time>2022-05-12T04:25:40.0240000+00:00</time>
      </trkpt>
      <trkpt lat="48.812422" lon="11.76376">
        <ele>350</ele>
        <time>2022-05-12T04:25:55.7560000+00:00</time>
      </trkpt>
      <trkpt lat="48.812716" lon="11.764253">
        <ele>349.79</ele>
        <time>2022-05-12T04:26:07.6530000+00:00</time>
      </trkpt>
      <trkpt lat="48.813272" lon="11.765114">
        <ele>349.78</ele>
        <time>2022-05-12T04:26:29.2230000+00:00</time>
      </trkpt>
      <trkpt lat="48.813573" lon="11.765689">
        <ele>349.8</ele>
        <time>2022-05-12T04:26:42.3620000+00:00</time>
      </trkpt>
      <trkpt lat="48.813751" lon="11.766135">
        <ele>349.23</ele>
        <time>2022-05-12T04:26:51.6910000+00:00</time>
      </trkpt>
      <trkpt lat="48.81395" lon="11.766473">
        <ele>348.71</ele>
        <time>2022-05-12T04:26:59.8000000+00:00</time>
      </trkpt>
      <trkpt lat="48.814183" lon="11.766894">
        <ele>348.8</ele>
        <time>2022-05-12T04:27:09.6370000+00:00</time>
      </trkpt>
      <trkpt lat="48.814511" lon="11.767444">
        <ele>348.23</ele>
        <time>2022-05-12T04:27:22.9100000+00:00</time>
      </trkpt>
      <trkpt lat="48.815474" lon="11.768573">
        <ele>348.38</ele>
        <time>2022-05-12T04:27:55.9560000+00:00</time>
      </trkpt>
      <trkpt lat="48.816202" lon="11.769717">
        <ele>349.37</ele>
        <time>2022-05-12T04:28:24.4110000+00:00</time>
      </trkpt>
      <trkpt lat="48.816671" lon="11.770792">
        <ele>350.64</ele>
        <time>2022-05-12T04:28:47.4760000+00:00</time>
      </trkpt>
      <trkpt lat="48.817485" lon="11.772867">
        <ele>349.64</ele>
        <time>2022-05-12T04:29:30.6770000+00:00</time>
      </trkpt>
      <trkpt lat="48.818674" lon="11.775793">
        <ele>350.38</ele>
        <time>2022-05-12T04:30:32.1730000+00:00</time>
      </trkpt>
      <trkpt lat="48.819491" lon="11.776969">
        <ele>352.11</ele>
        <time>2022-05-12T04:31:02.7490000+00:00</time>
      </trkpt>
      <trkpt lat="48.820148" lon="11.777741">
        <ele>352</ele>
        <time>2022-05-12T04:31:25.3130000+00:00</time>
      </trkpt>
      <trkpt lat="48.820393" lon="11.778">
        <ele>352.88</ele>
        <time>2022-05-12T04:31:33.4210000+00:00</time>
      </trkpt>
      <trkpt lat="48.820848" lon="11.779647">
        <ele>354.12</ele>
        <time>2022-05-12T04:32:05.3650000+00:00</time>
      </trkpt>
      <trkpt lat="48.821207" lon="11.780811">
        <ele>353.73</ele>
        <time>2022-05-12T04:32:28.3530000+00:00</time>
      </trkpt>
      <trkpt lat="48.821748" lon="11.781904">
        <ele>353.15</ele>
        <time>2022-05-12T04:32:52.8090000+00:00</time>
      </trkpt>
      <trkpt lat="48.822191" lon="11.782187">
        <ele>353.41</ele>
        <time>2022-05-12T04:33:05.8630000+00:00</time>
      </trkpt>
      <trkpt lat="48.822395" lon="11.782308">
        <ele>353.55</ele>
        <time>2022-05-12T04:33:11.8120000+00:00</time>
      </trkpt>
      <trkpt lat="48.822395" lon="11.782308">
        <ele>353.55</ele>
        <time>2022-05-12T04:33:11.8120000+00:00</time>
      </trkpt>
      <trkpt lat="48.821743" lon="11.782546">
        <ele>353.92</ele>
        <time>2022-05-12T04:33:30.0260000+00:00</time>
      </trkpt>
      <trkpt lat="48.821246" lon="11.782925">
        <ele>354.48</ele>
        <time>2022-05-12T04:33:45.1320000+00:00</time>
      </trkpt>
      <trkpt lat="48.820903" lon="11.783356">
        <ele>354.17</ele>
        <time>2022-05-12T04:33:57.2240000+00:00</time>
      </trkpt>
      <trkpt lat="48.820381" lon="11.784104">
        <ele>354.32</ele>
        <time>2022-05-12T04:34:16.7180000+00:00</time>
      </trkpt>
      <trkpt lat="48.820136" lon="11.784553">
        <ele>354.77</ele>
        <time>2022-05-12T04:34:27.1480000+00:00</time>
      </trkpt>
      <trkpt lat="48.819168" lon="11.785889">
        <ele>355.18</ele>
        <time>2022-05-12T04:35:02.6770000+00:00</time>
      </trkpt>
      <trkpt lat="48.818854" lon="11.78624">
        <ele>355.92</ele>
        <time>2022-05-12T04:35:13.2670000+00:00</time>
      </trkpt>
      <trkpt lat="48.81846" lon="11.786899">
        <ele>356.03</ele>
        <time>2022-05-12T04:35:29.1870000+00:00</time>
      </trkpt>
      <trkpt lat="48.817955" lon="11.787702">
        <ele>355.74</ele>
        <time>2022-05-12T04:35:49.0480000+00:00</time>
      </trkpt>
      <trkpt lat="48.817776" lon="11.788019">
        <ele>355.59</ele>
        <time>2022-05-12T04:35:56.5170000+00:00</time>
      </trkpt>
      <trkpt lat="48.817409" lon="11.788667">
        <ele>355.9</ele>
        <time>2022-05-12T04:36:11.8040000+00:00</time>
      </trkpt>
      <trkpt lat="48.816672" lon="11.78977">
        <ele>356.79</ele>
        <time>2022-05-12T04:36:39.9100000+00:00</time>
      </trkpt>
      <trkpt lat="48.816485" lon="11.790073">
        <ele>357.93</ele>
        <time>2022-05-12T04:36:47.3380000+00:00</time>
      </trkpt>
      <trkpt lat="48.816112" lon="11.790584">
        <ele>358.71</ele>
        <time>2022-05-12T04:37:00.9830000+00:00</time>
      </trkpt>
      <trkpt lat="48.815757" lon="11.791136">
        <ele>357.69</ele>
        <time>2022-05-12T04:37:14.7840000+00:00</time>
      </trkpt>
      <trkpt lat="48.81525" lon="11.792021">
        <ele>355.42</ele>
        <time>2022-05-12T04:37:35.7660000+00:00</time>
      </trkpt>
      <trkpt lat="48.814706" lon="11.792549">
        <ele>354.74</ele>
        <time>2022-05-12T04:37:53.3030000+00:00</time>
      </trkpt>
      <trkpt lat="48.814198" lon="11.79308">
        <ele>356.3</ele>
        <time>2022-05-12T04:38:10.0550000+00:00</time>
      </trkpt>
      <trkpt lat="48.813622" lon="11.793483">
        <ele>357.68</ele>
        <time>2022-05-12T04:38:27.2810000+00:00</time>
      </trkpt>
      <trkpt lat="48.813991" lon="11.794199">
        <ele>356.97</ele>
        <time>2022-05-12T04:38:43.5440000+00:00</time>
      </trkpt>
      <trkpt lat="48.814279" lon="11.794569">
        <ele>356.72</ele>
        <time>2022-05-12T04:38:53.7910000+00:00</time>
      </trkpt>
      <trkpt lat="48.814841" lon="11.795159">
        <ele>356.01</ele>
        <time>2022-05-12T04:39:12.3490000+00:00</time>
      </trkpt>
      <trkpt lat="48.815243" lon="11.795644">
        <ele>357.06</ele>
        <time>2022-05-12T04:39:26.2950000+00:00</time>
      </trkpt>
      <trkpt lat="48.815468" lon="11.796011">
        <ele>357.26</ele>
        <time>2022-05-12T04:39:35.2640000+00:00</time>
      </trkpt>
      <trkpt lat="48.816114" lon="11.79681">
        <ele>355.55</ele>
        <time>2022-05-12T04:39:57.8950000+00:00</time>
      </trkpt>
      <trkpt lat="48.816114" lon="11.79681">
        <ele>355.55</ele>
        <time>2022-05-12T04:39:57.8950000+00:00</time>
      </trkpt>
      <trkpt lat="48.815564" lon="11.79761">
        <ele>355.69</ele>
        <time>2022-05-12T04:40:18.5820000+00:00</time>
      </trkpt>
      <trkpt lat="48.815093" lon="11.798129">
        <ele>356.1</ele>
        <time>2022-05-12T04:40:34.3890000+00:00</time>
      </trkpt>
      <trkpt lat="48.81463" lon="11.798648">
        <ele>356.07</ele>
        <time>2022-05-12T04:40:50.0200000+00:00</time>
      </trkpt>
      <trkpt lat="48.814412" lon="11.799467">
        <ele>356.25</ele>
        <time>2022-05-12T04:41:05.8210000+00:00</time>
      </trkpt>
      <trkpt lat="48.814239" lon="11.800656">
        <ele>357</ele>
        <time>2022-05-12T04:41:27.6020000+00:00</time>
      </trkpt>
      <trkpt lat="48.814191" lon="11.801921">
        <ele>358.07</ele>
        <time>2022-05-12T04:41:50.2660000+00:00</time>
      </trkpt>
      <trkpt lat="48.814217" lon="11.803789">
        <ele>356.77</ele>
        <time>2022-05-12T04:42:23.6860000+00:00</time>
      </trkpt>
      <trkpt lat="48.814247" lon="11.805153">
        <ele>358.07</ele>
        <time>2022-05-12T04:42:48.0980000+00:00</time>
      </trkpt>
      <trkpt lat="48.814176" lon="11.805489">
        <ele>358.57</ele>
        <time>2022-05-12T04:42:54.4090000+00:00</time>
      </trkpt>
      <trkpt lat="48.813961" lon="11.805791">
        <ele>359.19</ele>
        <time>2022-05-12T04:43:02.3650000+00:00</time>
      </trkpt>
      <trkpt lat="48.813602" lon="11.806152">
        <ele>359.73</ele>
        <time>2022-05-12T04:43:14.0600000+00:00</time>
      </trkpt>
      <trkpt lat="48.813347" lon="11.806996">
        <ele>359.48</ele>
        <time>2022-05-12T04:43:30.6700000+00:00</time>
      </trkpt>
      <trkpt lat="48.81324" lon="11.807698">
        <ele>359.58</ele>
        <time>2022-05-12T04:43:43.5590000+00:00</time>
      </trkpt>
      <trkpt lat="48.813299" lon="11.808587">
        <ele>359.25</ele>
        <time>2022-05-12T04:43:59.5410000+00:00</time>
      </trkpt>
      <trkpt lat="48.813422" lon="11.809098">
        <ele>359.14</ele>
        <time>2022-05-12T04:44:09.2730000+00:00</time>
      </trkpt>
      <trkpt lat="48.813701" lon="11.810204">
        <ele>358</ele>
        <time>2022-05-12T04:44:30.4580000+00:00</time>
      </trkpt>
      <trkpt lat="48.814083" lon="11.81186">
        <ele>358.29</ele>
        <time>2022-05-12T04:45:01.8440000+00:00</time>
      </trkpt>
      <trkpt lat="48.814579" lon="11.814027">
        <ele>359.58</ele>
        <time>2022-05-12T04:45:42.8800000+00:00</time>
      </trkpt>
      <trkpt lat="48.814897" lon="11.815366">
        <ele>362.31</ele>
        <time>2022-05-12T04:46:08.3400000+00:00</time>
      </trkpt>
      <trkpt lat="48.815232" lon="11.816774">
        <ele>359.24</ele>
        <time>2022-05-12T04:46:35.1180000+00:00</time>
      </trkpt>
      <trkpt lat="48.815474" lon="11.817919">
        <ele>357.83</ele>
        <time>2022-05-12T04:46:56.6270000+00:00</time>
      </trkpt>
      <trkpt lat="48.815777" lon="11.819121">
        <ele>359.12</ele>
        <time>2022-05-12T04:47:19.6480000+00:00</time>
      </trkpt>
      <trkpt lat="48.816042" lon="11.820089">
        <ele>359.8</ele>
        <time>2022-05-12T04:47:38.3990000+00:00</time>
      </trkpt>
      <trkpt lat="48.816228" lon="11.820931">
        <ele>360.09</ele>
        <time>2022-05-12T04:47:54.2840000+00:00</time>
      </trkpt>
      <trkpt lat="48.816213" lon="11.821175">
        <ele>360.52</ele>
        <time>2022-05-12T04:47:58.6670000+00:00</time>
      </trkpt>
      <trkpt lat="48.816455" lon="11.82157">
        <ele>359.93</ele>
        <time>2022-05-12T04:48:08.3170000+00:00</time>
      </trkpt>
      <trkpt lat="48.816758" lon="11.822051">
        <ele>358.63</ele>
        <time>2022-05-12T04:48:20.2230000+00:00</time>
      </trkpt>
      <trkpt lat="48.816758" lon="11.822051">
        <ele>358.63</ele>
        <time>2022-05-12T04:48:20.2230000+00:00</time>
      </trkpt>
      <trkpt lat="48.816698" lon="11.822674">
        <ele>359.61</ele>
        <time>2022-05-12T04:48:31.4850000+00:00</time>
      </trkpt>
      <trkpt lat="48.816817" lon="11.823335">
        <ele>359.83</ele>
        <time>2022-05-12T04:48:43.7410000+00:00</time>
      </trkpt>
      <trkpt lat="48.817104" lon="11.824468">
        <ele>362.26</ele>
        <time>2022-05-12T04:49:05.4540000+00:00</time>
      </trkpt>
      <trkpt lat="48.817233" lon="11.825075">
        <ele>362</ele>
        <time>2022-05-12T04:49:16.8620000+00:00</time>
      </trkpt>
      <trkpt lat="48.817164" lon="11.825316">
        <ele>361.92</ele>
        <time>2022-05-12T04:49:21.5620000+00:00</time>
      </trkpt>
      <trkpt lat="48.81699" lon="11.825456">
        <ele>361.92</ele>
        <time>2022-05-12T04:49:26.9110000+00:00</time>
      </trkpt>
      <trkpt lat="48.816797" lon="11.825595">
        <ele>361.97</ele>
        <time>2022-05-12T04:49:32.7130000+00:00</time>
      </trkpt>
      <trkpt lat="48.816676" lon="11.825779">
        <ele>361.83</ele>
        <time>2022-05-12T04:49:37.3640000+00:00</time>
      </trkpt>
      <trkpt lat="48.816601" lon="11.825911">
        <ele>361.74</ele>
        <time>2022-05-12T04:49:40.4830000+00:00</time>
      </trkpt>
      <trkpt lat="48.816495" lon="11.826178">
        <ele>361.76</ele>
        <time>2022-05-12T04:49:46.0590000+00:00</time>
      </trkpt>
      <trkpt lat="48.816604" lon="11.826865">
        <ele>362.43</ele>
        <time>2022-05-12T04:49:58.6980000+00:00</time>
      </trkpt>
      <trkpt lat="48.816574" lon="11.827354">
        <ele>361.95</ele>
        <time>2022-05-12T04:50:07.4830000+00:00</time>
      </trkpt>
      <trkpt lat="48.815991" lon="11.828738">
        <ele>361</ele>
        <time>2022-05-12T04:50:36.8690000+00:00</time>
      </trkpt>
      <trkpt lat="48.815643" lon="11.829386">
        <ele>361.37</ele>
        <time>2022-05-12T04:50:51.8250000+00:00</time>
      </trkpt>
      <trkpt lat="48.815271" lon="11.829883">
        <ele>361.27</ele>
        <time>2022-05-12T04:51:05.2840000+00:00</time>
      </trkpt>
      <trkpt lat="48.815063" lon="11.830634">
        <ele>361.24</ele>
        <time>2022-05-12T04:51:19.8560000+00:00</time>
      </trkpt>
      <trkpt lat="48.814868" lon="11.831985">
        <ele>361.14</ele>
        <time>2022-05-12T04:51:44.5950000+00:00</time>
      </trkpt>
      <trkpt lat="48.814659" lon="11.83354">
        <ele>361.11</ele>
        <time>2022-05-12T04:52:12.9820000+00:00</time>
      </trkpt>
      <trkpt lat="48.81438" lon="11.835730999999999">
        <ele>365.28</ele>
        <time>2022-05-12T04:52:52.8980000+00:00</time>
      </trkpt>
      <trkpt lat="48.81427" lon="11.836556">
        <ele>365.28</ele>
        <time>2022-05-12T04:53:07.9540000+00:00</time>
      </trkpt>
      <trkpt lat="48.814155" lon="11.837558">
        <ele>365.18</ele>
        <time>2022-05-12T04:53:26.1470000+00:00</time>
      </trkpt>
      <trkpt lat="48.814016" lon="11.838831">
        <ele>365.41</ele>
        <time>2022-05-12T04:53:49.2280000+00:00</time>
      </trkpt>
      <trkpt lat="48.813899" lon="11.8399">
        <ele>364.65</ele>
        <time>2022-05-12T04:54:08.6120000+00:00</time>
      </trkpt>
      <trkpt lat="48.813703" lon="11.840911">
        <ele>364.29</ele>
        <time>2022-05-12T04:54:27.4630000+00:00</time>
      </trkpt>
      <trkpt lat="48.813338" lon="11.842224999999999">
        <ele>364.6</ele>
        <time>2022-05-12T04:54:52.9720000+00:00</time>
      </trkpt>
      <trkpt lat="48.812984" lon="11.843444999999999">
        <ele>364.62</ele>
        <time>2022-05-12T04:55:16.8190000+00:00</time>
      </trkpt>
      <trkpt lat="48.812984" lon="11.843444999999999">
        <ele>364.62</ele>
        <time>2022-05-12T04:55:16.8190000+00:00</time>
      </trkpt>
      <trkpt lat="48.813427" lon="11.843729">
        <ele>364.66</ele>
        <time>2022-05-12T04:55:29.8810000+00:00</time>
      </trkpt>
      <trkpt lat="48.813843" lon="11.844025">
        <ele>367.34</ele>
        <time>2022-05-12T04:55:42.3600000+00:00</time>
      </trkpt>
      <trkpt lat="48.814246" lon="11.844429">
        <ele>370.89</ele>
        <time>2022-05-12T04:55:55.4770000+00:00</time>
      </trkpt>
      <trkpt lat="48.814246" lon="11.844429">
        <ele>370.89</ele>
        <time>2022-05-12T04:55:55.4770000+00:00</time>
      </trkpt>
      <trkpt lat="48.814665" lon="11.844616">
        <ele>372.18</ele>
        <time>2022-05-12T04:56:07.3390000+00:00</time>
      </trkpt>
      <trkpt lat="48.815046" lon="11.844842">
        <ele>373.18</ele>
        <time>2022-05-12T04:56:18.4500000+00:00</time>
      </trkpt>
      <trkpt lat="48.815224" lon="11.845275">
        <ele>374.09</ele>
        <time>2022-05-12T04:56:27.5800000+00:00</time>
      </trkpt>
      <trkpt lat="48.815424" lon="11.845572">
        <ele>374.21</ele>
        <time>2022-05-12T04:56:35.1780000+00:00</time>
      </trkpt>
      <trkpt lat="48.815518" lon="11.84615">
        <ele>374.44</ele>
        <time>2022-05-12T04:56:45.8270000+00:00</time>
      </trkpt>
      <trkpt lat="48.815756" lon="11.846313">
        <ele>374.16</ele>
        <time>2022-05-12T04:56:52.9190000+00:00</time>
      </trkpt>
      <trkpt lat="48.816191" lon="11.846556">
        <ele>373.58</ele>
        <time>2022-05-12T04:57:05.5090000+00:00</time>
      </trkpt>
      <trkpt lat="48.816191" lon="11.846556">
        <ele>373.58</ele>
        <time>2022-05-12T04:57:05.5090000+00:00</time>
      </trkpt>
      <trkpt lat="48.816008" lon="11.847063">
        <ele>373.64</ele>
        <time>2022-05-12T04:57:15.8500000+00:00</time>
      </trkpt>
      <trkpt lat="48.815712" lon="11.847373">
        <ele>373.31</ele>
        <time>2022-05-12T04:57:25.6170000+00:00</time>
      </trkpt>
      <trkpt lat="48.815632" lon="11.847696">
        <ele>372.92</ele>
        <time>2022-05-12T04:57:31.7890000+00:00</time>
      </trkpt>
      <trkpt lat="48.815569" lon="11.848428">
        <ele>372.04</ele>
        <time>2022-05-12T04:57:44.9940000+00:00</time>
      </trkpt>
      <trkpt lat="48.815569" lon="11.848428">
        <ele>372.04</ele>
        <time>2022-05-12T04:57:44.9940000+00:00</time>
      </trkpt>
      <trkpt lat="48.815146" lon="11.849535">
        <ele>373</ele>
        <time>2022-05-12T04:58:07.8860000+00:00</time>
      </trkpt>
      <trkpt lat="48.815146" lon="11.849535">
        <ele>373</ele>
        <time>2022-05-12T04:58:07.8860000+00:00</time>
      </trkpt>
      <trkpt lat="48.814763" lon="11.850467">
        <ele>372.45</ele>
        <time>2022-05-12T04:58:27.5370000+00:00</time>
      </trkpt>
      <trkpt lat="48.814602" lon="11.850798">
        <ele>371.51</ele>
        <time>2022-05-12T04:58:34.8970000+00:00</time>
      </trkpt>
      <trkpt lat="48.814363" lon="11.85137">
        <ele>371</ele>
        <time>2022-05-12T04:58:47.0140000+00:00</time>
      </trkpt>
      <trkpt lat="48.81368" lon="11.852435">
        <ele>372.36</ele>
        <time>2022-05-12T04:59:13.6050000+00:00</time>
      </trkpt>
      <trkpt lat="48.813088" lon="11.85345">
        <ele>371.52</ele>
        <time>2022-05-12T04:59:37.8580000+00:00</time>
      </trkpt>
      <trkpt lat="48.812832" lon="11.853967">
        <ele>370.47</ele>
        <time>2022-05-12T04:59:49.4290000+00:00</time>
      </trkpt>
      <trkpt lat="48.812647" lon="11.854515">
        <ele>369.71</ele>
        <time>2022-05-12T05:00:00.4440000+00:00</time>
      </trkpt>
      <trkpt lat="48.812363" lon="11.855112">
        <ele>368.65</ele>
        <time>2022-05-12T05:00:13.6180000+00:00</time>
      </trkpt>
      <trkpt lat="48.812108" lon="11.855574">
        <ele>368.16</ele>
        <time>2022-05-12T05:00:24.4010000+00:00</time>
      </trkpt>
      <trkpt lat="48.811996" lon="11.855745">
        <ele>368.05</ele>
        <time>2022-05-12T05:00:28.7150000+00:00</time>
      </trkpt>
      <trkpt lat="48.811531" lon="11.856727">
        <ele>368.93</ele>
        <time>2022-05-12T05:00:50.3500000+00:00</time>
      </trkpt>
      <trkpt lat="48.811308" lon="11.857736">
        <ele>368.35</ele>
        <time>2022-05-12T05:01:09.3890000+00:00</time>
      </trkpt>
      <trkpt lat="48.810981" lon="11.85961">
        <ele>368.18</ele>
        <time>2022-05-12T05:01:44.0670000+00:00</time>
      </trkpt>
      <trkpt lat="48.8104" lon="11.862765">
        <ele>374.06</ele>
        <time>2022-05-12T05:02:42.6700000+00:00</time>
      </trkpt>
      <trkpt lat="48.810106" lon="11.864465">
        <ele>371.16</ele>
        <time>2022-05-12T05:03:14.1110000+00:00</time>
      </trkpt>
      <trkpt lat="48.80998" lon="11.865207">
        <ele>371.08</ele>
        <time>2022-05-12T05:03:27.8180000+00:00</time>
      </trkpt>
      <trkpt lat="48.809906" lon="11.865625">
        <ele>370.5</ele>
        <time>2022-05-12T05:03:35.5610000+00:00</time>
      </trkpt>
      <trkpt lat="48.8098" lon="11.86626">
        <ele>369.67</ele>
        <time>2022-05-12T05:03:47.2790000+00:00</time>
      </trkpt>
      <trkpt lat="48.809689" lon="11.867139">
        <ele>368.06</ele>
        <time>2022-05-12T05:04:03.2900000+00:00</time>
      </trkpt>
      <trkpt lat="48.809477" lon="11.869129">
        <ele>364.8</ele>
        <time>2022-05-12T05:04:39.3510000+00:00</time>
      </trkpt>
      <trkpt lat="48.809148" lon="11.872216">
        <ele>369.42</ele>
        <time>2022-05-12T05:05:35.2920000+00:00</time>
      </trkpt>
      <trkpt lat="48.809017" lon="11.874211">
        <ele>370.61</ele>
        <time>2022-05-12T05:06:11.1570000+00:00</time>
      </trkpt>
      <trkpt lat="48.809001" lon="11.876676">
        <ele>370.28</ele>
        <time>2022-05-12T05:06:55.2550000+00:00</time>
      </trkpt>
      <trkpt lat="48.808967" lon="11.878022">
        <ele>372.89</ele>
        <time>2022-05-12T05:07:19.3510000+00:00</time>
      </trkpt>
      <trkpt lat="48.808935" lon="11.87896">
        <ele>380.79</ele>
        <time>2022-05-12T05:07:36.1530000+00:00</time>
      </trkpt>
      <trkpt lat="48.808917" lon="11.879327">
        <ele>383.71</ele>
        <time>2022-05-12T05:07:42.7360000+00:00</time>
      </trkpt>
      <trkpt lat="48.80883" lon="11.881011">
        <ele>387.36</ele>
        <time>2022-05-12T05:08:12.9540000+00:00</time>
      </trkpt>
      <trkpt lat="48.808715" lon="11.882694">
        <ele>389.77</ele>
        <time>2022-05-12T05:08:43.2220000+00:00</time>
      </trkpt>
      <trkpt lat="48.808536" lon="11.884128">
        <ele>391.62</ele>
        <time>2022-05-12T05:09:09.3320000+00:00</time>
      </trkpt>
      <trkpt lat="48.808333" lon="11.885396">
        <ele>397.51</ele>
        <time>2022-05-12T05:09:32.6750000+00:00</time>
      </trkpt>
      <trkpt lat="48.808252" lon="11.886454">
        <ele>395.77</ele>
        <time>2022-05-12T05:09:51.7290000+00:00</time>
      </trkpt>
      <trkpt lat="48.808254" lon="11.887817">
        <ele>394.06</ele>
        <time>2022-05-12T05:10:16.1120000+00:00</time>
      </trkpt>
      <trkpt lat="48.808408" lon="11.889596">
        <ele>391.43</ele>
        <time>2022-05-12T05:10:48.2110000+00:00</time>
      </trkpt>
      <trkpt lat="48.808647" lon="11.891163">
        <ele>380.53</ele>
        <time>2022-05-12T05:11:16.9850000+00:00</time>
      </trkpt>
      <trkpt lat="48.808874" lon="11.892525">
        <ele>378.04</ele>
        <time>2022-05-12T05:11:42.1170000+00:00</time>
      </trkpt>
      <trkpt lat="48.809068" lon="11.893762">
        <ele>378.13</ele>
        <time>2022-05-12T05:12:04.8640000+00:00</time>
      </trkpt>
      <trkpt lat="48.809082" lon="11.89428">
        <ele>377.25</ele>
        <time>2022-05-12T05:12:14.1390000+00:00</time>
      </trkpt>
      <trkpt lat="48.809092" lon="11.894962">
        <ele>376.19</ele>
        <time>2022-05-12T05:12:26.3420000+00:00</time>
      </trkpt>
      <trkpt lat="48.809092" lon="11.894962">
        <ele>376.19</ele>
        <time>2022-05-12T05:12:26.3420000+00:00</time>
      </trkpt>
      <trkpt lat="48.808485" lon="11.895472">
        <ele>376.44</ele>
        <time>2022-05-12T05:12:45.1860000+00:00</time>
      </trkpt>
      <trkpt lat="48.807786" lon="11.896058">
        <ele>375.28</ele>
        <time>2022-05-12T05:13:06.8740000+00:00</time>
      </trkpt>
      <trkpt lat="48.807418" lon="11.896391">
        <ele>375.16</ele>
        <time>2022-05-12T05:13:18.5110000+00:00</time>
      </trkpt>
      <trkpt lat="48.807077" lon="11.896712">
        <ele>375.67</ele>
        <time>2022-05-12T05:13:29.4090000+00:00</time>
      </trkpt>
      <trkpt lat="48.806706" lon="11.89714">
        <ele>375.46</ele>
        <time>2022-05-12T05:13:42.0650000+00:00</time>
      </trkpt>
      <trkpt lat="48.806434" lon="11.897615">
        <ele>375.07</ele>
        <time>2022-05-12T05:13:53.3260000+00:00</time>
      </trkpt>
      <trkpt lat="48.80622" lon="11.898229">
        <ele>376.55</ele>
        <time>2022-05-12T05:14:05.7530000+00:00</time>
      </trkpt>
      <trkpt lat="48.806125" lon="11.898782">
        <ele>377.07</ele>
        <time>2022-05-12T05:14:15.9770000+00:00</time>
      </trkpt>
      <trkpt lat="48.806039" lon="11.899717">
        <ele>377.05</ele>
        <time>2022-05-12T05:14:32.8660000+00:00</time>
      </trkpt>
      <trkpt lat="48.805914" lon="11.901086">
        <ele>376.82</ele>
        <time>2022-05-12T05:14:57.5920000+00:00</time>
      </trkpt>
      <trkpt lat="48.805835" lon="11.901735">
        <ele>376.21</ele>
        <time>2022-05-12T05:15:09.3990000+00:00</time>
      </trkpt>
      <trkpt lat="48.805653" lon="11.902869">
        <ele>377.14</ele>
        <time>2022-05-12T05:15:30.2800000+00:00</time>
      </trkpt>
      <trkpt lat="48.805519" lon="11.904264">
        <ele>378.02</ele>
        <time>2022-05-12T05:15:55.5000000+00:00</time>
      </trkpt>
      <trkpt lat="48.805519" lon="11.904264">
        <ele>378.02</ele>
        <time>2022-05-12T05:15:55.5000000+00:00</time>
      </trkpt>
      <trkpt lat="48.804423" lon="11.905277">
        <ele>381.22</ele>
        <time>2022-05-12T05:16:30.3530000+00:00</time>
      </trkpt>
      <trkpt lat="48.803854" lon="11.905707">
        <ele>384.22</ele>
        <time>2022-05-12T05:16:47.6180000+00:00</time>
      </trkpt>
      <trkpt lat="48.803267" lon="11.906163">
        <ele>385.92</ele>
        <time>2022-05-12T05:17:05.5280000+00:00</time>
      </trkpt>
      <trkpt lat="48.802697" lon="11.906294">
        <ele>385.42</ele>
        <time>2022-05-12T05:17:21.1880000+00:00</time>
      </trkpt>
      <trkpt lat="48.802428" lon="11.906591">
        <ele>386.16</ele>
        <time>2022-05-12T05:17:30.2220000+00:00</time>
      </trkpt>
      <trkpt lat="48.802003" lon="11.907398">
        <ele>388.56</ele>
        <time>2022-05-12T05:17:48.7080000+00:00</time>
      </trkpt>
      <trkpt lat="48.801314" lon="11.908338">
        <ele>389.93</ele>
        <time>2022-05-12T05:18:13.8700000+00:00</time>
      </trkpt>
      <trkpt lat="48.80099" lon="11.908701">
        <ele>389.66</ele>
        <time>2022-05-12T05:18:24.8080000+00:00</time>
      </trkpt>
      <trkpt lat="48.800624" lon="11.909279">
        <ele>389.22</ele>
        <time>2022-05-12T05:18:39.1530000+00:00</time>
      </trkpt>
      <trkpt lat="48.800493" lon="11.909844">
        <ele>388.85</ele>
        <time>2022-05-12T05:18:49.8700000+00:00</time>
      </trkpt>
      <trkpt lat="48.800423" lon="11.910452">
        <ele>389.76</ele>
        <time>2022-05-12T05:19:00.9130000+00:00</time>
      </trkpt>
      <trkpt lat="48.800339" lon="11.912014">
        <ele>390.9</ele>
        <time>2022-05-12T05:19:28.9530000+00:00</time>
      </trkpt>
      <trkpt lat="48.800319" lon="11.913143">
        <ele>392.84</ele>
        <time>2022-05-12T05:19:49.1600000+00:00</time>
      </trkpt>
      <trkpt lat="48.800194" lon="11.914171">
        <ele>400.3</ele>
        <time>2022-05-12T05:20:07.8640000+00:00</time>
      </trkpt>
      <trkpt lat="48.799908" lon="11.915544">
        <ele>411.37</ele>
        <time>2022-05-12T05:20:33.6290000+00:00</time>
      </trkpt>
      <trkpt lat="48.799625" lon="11.916767">
        <ele>408.7</ele>
        <time>2022-05-12T05:20:56.8220000+00:00</time>
      </trkpt>
      <trkpt lat="48.799416" lon="11.917544">
        <ele>406.43</ele>
        <time>2022-05-12T05:21:11.8380000+00:00</time>
      </trkpt>
      <trkpt lat="48.799145" lon="11.918198">
        <ele>406</ele>
        <time>2022-05-12T05:21:25.6630000+00:00</time>
      </trkpt>
      <trkpt lat="48.798061" lon="11.919619">
        <ele>405.23</ele>
        <time>2022-05-12T05:22:04.5650000+00:00</time>
      </trkpt>
      <trkpt lat="48.797111" lon="11.92124">
        <ele>406.55</ele>
        <time>2022-05-12T05:22:43.3870000+00:00</time>
      </trkpt>
      <trkpt lat="48.795952" lon="11.921399">
        <ele>406.18</ele>
        <time>2022-05-12T05:23:14.9980000+00:00</time>
      </trkpt>
      <trkpt lat="48.795224" lon="11.921895">
        <ele>407.38</ele>
        <time>2022-05-12T05:23:36.6730000+00:00</time>
      </trkpt>
      <trkpt lat="48.794631" lon="11.922745">
        <ele>409.15</ele>
        <time>2022-05-12T05:23:58.8260000+00:00</time>
      </trkpt>
      <trkpt lat="48.793725" lon="11.924406">
        <ele>410.16</ele>
        <time>2022-05-12T05:24:37.4140000+00:00</time>
      </trkpt>
      <trkpt lat="48.793339" lon="11.924857">
        <ele>410.46</ele>
        <time>2022-05-12T05:24:50.6460000+00:00</time>
      </trkpt>
      <trkpt lat="48.792656" lon="11.92524">
        <ele>412.08</ele>
        <time>2022-05-12T05:25:10.4230000+00:00</time>
      </trkpt>
      <trkpt lat="48.791817" lon="11.924836">
        <ele>410.6</ele>
        <time>2022-05-12T05:25:34.3320000+00:00</time>
      </trkpt>
      <trkpt lat="48.791312" lon="11.924702">
        <ele>408.93</ele>
        <time>2022-05-12T05:25:48.2580000+00:00</time>
      </trkpt>
      <trkpt lat="48.790347" lon="11.925063">
        <ele>401.48</ele>
        <time>2022-05-12T05:26:15.2540000+00:00</time>
      </trkpt>
      <trkpt lat="48.7895" lon="11.925357">
        <ele>396.9</ele>
        <time>2022-05-12T05:26:38.8550000+00:00</time>
      </trkpt>
      <trkpt lat="48.78898" lon="11.92529">
        <ele>397.38</ele>
        <time>2022-05-12T05:26:53.0310000+00:00</time>
      </trkpt>
      <trkpt lat="48.788712" lon="11.924728">
        <ele>398.93</ele>
        <time>2022-05-12T05:27:05.4470000+00:00</time>
      </trkpt>
      <trkpt lat="48.788489" lon="11.925291">
        <ele>399.31</ele>
        <time>2022-05-12T05:27:17.2030000+00:00</time>
      </trkpt>
      <trkpt lat="48.788386" lon="11.926056">
        <ele>397.95</ele>
        <time>2022-05-12T05:27:31.1760000+00:00</time>
      </trkpt>
      <trkpt lat="48.788386" lon="11.926865">
        <ele>397.78</ele>
        <time>2022-05-12T05:27:45.6540000+00:00</time>
      </trkpt>
      <trkpt lat="48.788402" lon="11.928057">
        <ele>403.42</ele>
        <time>2022-05-12T05:28:06.9910000+00:00</time>
      </trkpt>
      <trkpt lat="48.787794" lon="11.929384">
        <ele>402.04</ele>
        <time>2022-05-12T05:28:35.9170000+00:00</time>
      </trkpt>
      <trkpt lat="48.786793" lon="11.931522">
        <ele>401.26</ele>
        <time>2022-05-12T05:29:22.8570000+00:00</time>
      </trkpt>
      <trkpt lat="48.786155" lon="11.932917">
        <ele>404.03</ele>
        <time>2022-05-12T05:29:53.2480000+00:00</time>
      </trkpt>
      <trkpt lat="48.784506" lon="11.933841">
        <ele>404.72</ele>
        <time>2022-05-12T05:30:40.9950000+00:00</time>
      </trkpt>
      <trkpt lat="48.78409" lon="11.934184">
        <ele>404.44</ele>
        <time>2022-05-12T05:30:53.8550000+00:00</time>
      </trkpt>
      <trkpt lat="48.78354" lon="11.934494">
        <ele>405.59</ele>
        <time>2022-05-12T05:31:09.7910000+00:00</time>
      </trkpt>
      <trkpt lat="48.782356" lon="11.934513">
        <ele>412.83</ele>
        <time>2022-05-12T05:31:41.9540000+00:00</time>
      </trkpt>
      <trkpt lat="48.781161" lon="11.934601">
        <ele>413.27</ele>
        <time>2022-05-12T05:32:14.4520000+00:00</time>
      </trkpt>
      <trkpt lat="48.780401" lon="11.934733">
        <ele>416.68</ele>
        <time>2022-05-12T05:32:35.2310000+00:00</time>
      </trkpt>
      <trkpt lat="48.779554" lon="11.935287">
        <ele>430.32</ele>
        <time>2022-05-12T05:33:00.2840000+00:00</time>
      </trkpt>
      <trkpt lat="48.779248" lon="11.935685">
        <ele>440.76</ele>
        <time>2022-05-12T05:33:11.2310000+00:00</time>
      </trkpt>
      <trkpt lat="48.778254" lon="11.936615">
        <ele>457.17</ele>
        <time>2022-05-12T05:33:42.9500000+00:00</time>
      </trkpt>
      <trkpt lat="48.777349" lon="11.938053">
        <ele>454.06</ele>
        <time>2022-05-12T05:34:18.5430000+00:00</time>
      </trkpt>
      <trkpt lat="48.777188" lon="11.938252">
        <ele>451.94</ele>
        <time>2022-05-12T05:34:24.1840000+00:00</time>
      </trkpt>
      <trkpt lat="48.776633" lon="11.939248">
        <ele>454.89</ele>
        <time>2022-05-12T05:34:47.5320000+00:00</time>
      </trkpt>
      <trkpt lat="48.775956" lon="11.940089">
        <ele>465.59</ele>
        <time>2022-05-12T05:35:11.2970000+00:00</time>
      </trkpt>
      <trkpt lat="48.775153" lon="11.941151">
        <ele>466.27</ele>
        <time>2022-05-12T05:35:40.2310000+00:00</time>
      </trkpt>
      <trkpt lat="48.77489" lon="11.94197">
        <ele>467.83</ele>
        <time>2022-05-12T05:35:56.5390000+00:00</time>
      </trkpt>
      <trkpt lat="48.774599" lon="11.943849">
        <ele>465.28</ele>
        <time>2022-05-12T05:36:31.0920000+00:00</time>
      </trkpt>
      <trkpt lat="48.774628" lon="11.9448">
        <ele>459.75</ele>
        <time>2022-05-12T05:36:48.1340000+00:00</time>
      </trkpt>
      <trkpt lat="48.774688" lon="11.947511">
        <ele>463.93</ele>
        <time>2022-05-12T05:37:36.6910000+00:00</time>
      </trkpt>
      <trkpt lat="48.775098" lon="11.950672">
        <ele>461.51</ele>
        <time>2022-05-12T05:38:34.3610000+00:00</time>
      </trkpt>
      <trkpt lat="48.774923" lon="11.951733">
        <ele>456.54</ele>
        <time>2022-05-12T05:38:53.9400000+00:00</time>
      </trkpt>
      <trkpt lat="48.774661" lon="11.952706">
        <ele>457</ele>
        <time>2022-05-12T05:39:12.7550000+00:00</time>
      </trkpt>
      <trkpt lat="48.774238" lon="11.95452">
        <ele>455.99</ele>
        <time>2022-05-12T05:39:47.2010000+00:00</time>
      </trkpt>
      <trkpt lat="48.773881" lon="11.954688">
        <ele>458.36</ele>
        <time>2022-05-12T05:39:57.3540000+00:00</time>
      </trkpt>
      <trkpt lat="48.772815" lon="11.955153">
        <ele>457.65</ele>
        <time>2022-05-12T05:40:27.4820000+00:00</time>
      </trkpt>
      <trkpt lat="48.771806" lon="11.955419">
        <ele>454.25</ele>
        <time>2022-05-12T05:40:55.3000000+00:00</time>
      </trkpt>
      <trkpt lat="48.771543" lon="11.955265">
        <ele>455.04</ele>
        <time>2022-05-12T05:41:02.9580000+00:00</time>
      </trkpt>
      <trkpt lat="48.770491" lon="11.953917">
        <ele>448.86</ele>
        <time>2022-05-12T05:41:40.3600000+00:00</time>
      </trkpt>
      <trkpt lat="48.769774" lon="11.9531">
        <ele>441.34</ele>
        <time>2022-05-12T05:42:04.7160000+00:00</time>
      </trkpt>
      <trkpt lat="48.769584" lon="11.953144">
        <ele>440.99</ele>
        <time>2022-05-12T05:42:09.9370000+00:00</time>
      </trkpt>
      <trkpt lat="48.768635" lon="11.955223">
        <ele>439.62</ele>
        <time>2022-05-12T05:42:55.2120000+00:00</time>
      </trkpt>
      <trkpt lat="48.768153" lon="11.95666">
        <ele>436.51</ele>
        <time>2022-05-12T05:43:24.0790000+00:00</time>
      </trkpt>
      <trkpt lat="48.767745" lon="11.958805">
        <ele>433.49</ele>
        <time>2022-05-12T05:44:04.0490000+00:00</time>
      </trkpt>
      <trkpt lat="48.767635" lon="11.960035">
        <ele>433.58</ele>
        <time>2022-05-12T05:44:26.2720000+00:00</time>
      </trkpt>
      <trkpt lat="48.767799" lon="11.960147">
        <ele>434.3</ele>
        <time>2022-05-12T05:44:31.1580000+00:00</time>
      </trkpt>
      <trkpt lat="48.767844" lon="11.961194">
        <ele>433.17</ele>
        <time>2022-05-12T05:44:49.9420000+00:00</time>
      </trkpt>
      <trkpt lat="48.767993" lon="11.962228">
        <ele>429.04</ele>
        <time>2022-05-12T05:45:08.8920000+00:00</time>
      </trkpt>
      <trkpt lat="48.768587" lon="11.963015">
        <ele>427.61</ele>
        <time>2022-05-12T05:45:30.3130000+00:00</time>
      </trkpt>
      <trkpt lat="48.769583" lon="11.963621">
        <ele>436.37</ele>
        <time>2022-05-12T05:45:59.4610000+00:00</time>
      </trkpt>
      <trkpt lat="48.769182" lon="11.96497">
        <ele>435.62</ele>
        <time>2022-05-12T05:46:25.9550000+00:00</time>
      </trkpt>
      <trkpt lat="48.769182" lon="11.965285">
        <ele>435.61</ele>
        <time>2022-05-12T05:46:31.5940000+00:00</time>
      </trkpt>
      <trkpt lat="48.769658" lon="11.965666">
        <ele>437.84</ele>
        <time>2022-05-12T05:46:46.2130000+00:00</time>
      </trkpt>
      <trkpt lat="48.769658" lon="11.965666">
        <ele>437.84</ele>
        <time>2022-05-12T05:46:46.2130000+00:00</time>
      </trkpt>
      <trkpt lat="48.768933" lon="11.965778">
        <ele>434.41</ele>
        <time>2022-05-12T05:47:06.0080000+00:00</time>
      </trkpt>
      <trkpt lat="48.768312" lon="11.966362">
        <ele>429.36</ele>
        <time>2022-05-12T05:47:25.8540000+00:00</time>
      </trkpt>
      <trkpt lat="48.767749" lon="11.966762">
        <ele>425.1</ele>
        <time>2022-05-12T05:47:42.7400000+00:00</time>
      </trkpt>
      <trkpt lat="48.767623" lon="11.967005">
        <ele>424.66</ele>
        <time>2022-05-12T05:47:48.2760000+00:00</time>
      </trkpt>
      <trkpt lat="48.767611" lon="11.967405">
        <ele>423.86</ele>
        <time>2022-05-12T05:47:55.4440000+00:00</time>
      </trkpt>
      <trkpt lat="48.767702" lon="11.967784">
        <ele>422.43</ele>
        <time>2022-05-12T05:48:02.6660000+00:00</time>
      </trkpt>
      <trkpt lat="48.767727" lon="11.968535">
        <ele>421.39</ele>
        <time>2022-05-12T05:48:16.1290000+00:00</time>
      </trkpt>
      <trkpt lat="48.767704" lon="11.968987">
        <ele>421.8</ele>
        <time>2022-05-12T05:48:24.2450000+00:00</time>
      </trkpt>
      <trkpt lat="48.767589" lon="11.970152">
        <ele>421.45</ele>
        <time>2022-05-12T05:48:45.3350000+00:00</time>
      </trkpt>
      <trkpt lat="48.767428" lon="11.970917">
        <ele>420.85</ele>
        <time>2022-05-12T05:48:59.7130000+00:00</time>
      </trkpt>
      <trkpt lat="48.767153" lon="11.971369">
        <ele>421.7</ele>
        <time>2022-05-12T05:49:10.7260000+00:00</time>
      </trkpt>
      <trkpt lat="48.76644" lon="11.971665">
        <ele>423.64</ele>
        <time>2022-05-12T05:49:30.8050000+00:00</time>
      </trkpt>
      <trkpt lat="48.765856" lon="11.971908">
        <ele>424.63</ele>
        <time>2022-05-12T05:49:47.2540000+00:00</time>
      </trkpt>
      <trkpt lat="48.765389" lon="11.971931">
        <ele>424.97</ele>
        <time>2022-05-12T05:49:59.9460000+00:00</time>
      </trkpt>
      <trkpt lat="48.765003" lon="11.972111">
        <ele>425.06</ele>
        <time>2022-05-12T05:50:10.9150000+00:00</time>
      </trkpt>
      <trkpt lat="48.765003" lon="11.972111">
        <ele>425.06</ele>
        <time>2022-05-12T05:50:10.9150000+00:00</time>
      </trkpt>
      <trkpt lat="48.764666" lon="11.972824">
        <ele>426.32</ele>
        <time>2022-05-12T05:50:26.6240000+00:00</time>
      </trkpt>
      <trkpt lat="48.764344" lon="11.972998">
        <ele>428.95</ele>
        <time>2022-05-12T05:50:35.9080000+00:00</time>
      </trkpt>
      <trkpt lat="48.763839" lon="11.973294">
        <ele>433.19</ele>
        <time>2022-05-12T05:50:50.6140000+00:00</time>
      </trkpt>
      <trkpt lat="48.763598" lon="11.973676">
        <ele>436.92</ele>
        <time>2022-05-12T05:51:00.0810000+00:00</time>
      </trkpt>
      <trkpt lat="48.763414" lon="11.97385">
        <ele>438.4</ele>
        <time>2022-05-12T05:51:05.9710000+00:00</time>
      </trkpt>
      <trkpt lat="48.762678" lon="11.974928">
        <ele>444.32</ele>
        <time>2022-05-12T05:51:33.7600000+00:00</time>
      </trkpt>
      <trkpt lat="48.760928" lon="11.976357">
        <ele>449.04</ele>
        <time>2022-05-12T05:52:27.7440000+00:00</time>
      </trkpt>
      <trkpt lat="48.759876" lon="11.977529">
        <ele>446.27</ele>
        <time>2022-05-12T05:53:03.1980000+00:00</time>
      </trkpt>
      <trkpt lat="48.759642" lon="11.977905">
        <ele>444.16</ele>
        <time>2022-05-12T05:53:12.4570000+00:00</time>
      </trkpt>
      <trkpt lat="48.758839" lon="11.97985">
        <ele>433.81</ele>
        <time>2022-05-12T05:53:53.5520000+00:00</time>
      </trkpt>
      <trkpt lat="48.758167" lon="11.981817">
        <ele>431.79</ele>
        <time>2022-05-12T05:54:33.2230000+00:00</time>
      </trkpt>
      <trkpt lat="48.757758" lon="11.983564">
        <ele>436.62</ele>
        <time>2022-05-12T05:55:06.4210000+00:00</time>
      </trkpt>
      <trkpt lat="48.757729" lon="11.984227">
        <ele>437.75</ele>
        <time>2022-05-12T05:55:18.3190000+00:00</time>
      </trkpt>
      <trkpt lat="48.75776" lon="11.986524">
        <ele>438.53</ele>
        <time>2022-05-12T05:55:59.4600000+00:00</time>
      </trkpt>
      <trkpt lat="48.757036" lon="11.987011">
        <ele>443.4</ele>
        <time>2022-05-12T05:56:20.9730000+00:00</time>
      </trkpt>
      <trkpt lat="48.755516" lon="11.986813">
        <ele>434.62</ele>
        <time>2022-05-12T05:57:02.4130000+00:00</time>
      </trkpt>
      <trkpt lat="48.754581" lon="11.987609">
        <ele>431.64</ele>
        <time>2022-05-12T05:57:31.5370000+00:00</time>
      </trkpt>
      <trkpt lat="48.754552" lon="11.988661">
        <ele>429.75</ele>
        <time>2022-05-12T05:57:50.3930000+00:00</time>
      </trkpt>
      <trkpt lat="48.754611" lon="11.990429">
        <ele>426.15</ele>
        <time>2022-05-12T05:58:22.0950000+00:00</time>
      </trkpt>
      <trkpt lat="48.755327" lon="11.993192">
        <ele>431.9</ele>
        <time>2022-05-12T05:59:15.2600000+00:00</time>
      </trkpt>
      <trkpt lat="48.755429" lon="11.994518">
        <ele>434.89</ele>
        <time>2022-05-12T05:59:39.1670000+00:00</time>
      </trkpt>
      <trkpt lat="48.755225" lon="11.997559">
        <ele>440.43</ele>
        <time>2022-05-12T06:00:33.9070000+00:00</time>
      </trkpt>
      <trkpt lat="48.75505" lon="11.999703">
        <ele>439.67</ele>
        <time>2022-05-12T06:01:12.5940000+00:00</time>
      </trkpt>
      <trkpt lat="48.754947" lon="12.001162">
        <ele>434.72</ele>
        <time>2022-05-12T06:01:38.8720000+00:00</time>
      </trkpt>
      <trkpt lat="48.754976" lon="12.002798">
        <ele>429.79</ele>
        <time>2022-05-12T06:02:08.1800000+00:00</time>
      </trkpt>
      <trkpt lat="48.75483" lon="12.003439">
        <ele>425.99</ele>
        <time>2022-05-12T06:02:20.3250000+00:00</time>
      </trkpt>
      <trkpt lat="48.754158" lon="12.003505">
        <ele>418.06</ele>
        <time>2022-05-12T06:02:38.6160000+00:00</time>
      </trkpt>
      <trkpt lat="48.753398" lon="12.00335">
        <ele>412.03</ele>
        <time>2022-05-12T06:02:59.4460000+00:00</time>
      </trkpt>
      <trkpt lat="48.753208" lon="12.004026">
        <ele>412.34</ele>
        <time>2022-05-12T06:03:12.6060000+00:00</time>
      </trkpt>
      <trkpt lat="48.753091" lon="12.005662">
        <ele>410.08</ele>
        <time>2022-05-12T06:03:42.0770000+00:00</time>
      </trkpt>
      <trkpt lat="48.753003" lon="12.006855">
        <ele>410.93</ele>
        <time>2022-05-12T06:04:03.5750000+00:00</time>
      </trkpt>
      <trkpt lat="48.752769" lon="12.008004">
        <ele>408.56</ele>
        <time>2022-05-12T06:04:25.1120000+00:00</time>
      </trkpt>
      <trkpt lat="48.752229" lon="12.010082">
        <ele>407.77</ele>
        <time>2022-05-12T06:05:05.1130000+00:00</time>
      </trkpt>
      <trkpt lat="48.751176" lon="12.01185">
        <ele>410.37</ele>
        <time>2022-05-12T06:05:47.7830000+00:00</time>
      </trkpt>
      <trkpt lat="48.750767" lon="12.012756">
        <ele>407.57</ele>
        <time>2022-05-12T06:06:07.4470000+00:00</time>
      </trkpt>
      <trkpt lat="48.750639" lon="12.013452">
        <ele>406.13</ele>
        <time>2022-05-12T06:06:20.3880000+00:00</time>
      </trkpt>
      <trkpt lat="48.750568" lon="12.013916">
        <ele>404.7</ele>
        <time>2022-05-12T06:06:28.9190000+00:00</time>
      </trkpt>
      <trkpt lat="48.750568" lon="12.013916">
        <ele>404.7</ele>
        <time>2022-05-12T06:06:28.9190000+00:00</time>
      </trkpt>
      <trkpt lat="48.749666" lon="12.013817">
        <ele>405.46</ele>
        <time>2022-05-12T06:06:53.4840000+00:00</time>
      </trkpt>
      <trkpt lat="48.748782" lon="12.013521">
        <ele>406.52</ele>
        <time>2022-05-12T06:07:18.0750000+00:00</time>
      </trkpt>
      <trkpt lat="48.748782" lon="12.013521">
        <ele>406.52</ele>
        <time>2022-05-12T06:07:18.0750000+00:00</time>
      </trkpt>
      <trkpt lat="48.748791" lon="12.013047">
        <ele>407.33</ele>
        <time>2022-05-12T06:07:26.5680000+00:00</time>
      </trkpt>
      <trkpt lat="48.748449" lon="12.012957">
        <ele>407.42</ele>
        <time>2022-05-12T06:07:35.9960000+00:00</time>
      </trkpt>
      <trkpt lat="48.747469" lon="12.012619">
        <ele>408.58</ele>
        <time>2022-05-12T06:08:03.2960000+00:00</time>
      </trkpt>
      <trkpt lat="48.747116" lon="12.012452">
        <ele>409.15</ele>
        <time>2022-05-12T06:08:13.3400000+00:00</time>
      </trkpt>
      <trkpt lat="48.746191" lon="12.011967">
        <ele>410.99</ele>
        <time>2022-05-12T06:08:39.9250000+00:00</time>
      </trkpt>
      <trkpt lat="48.745516" lon="12.011473">
        <ele>413.52</ele>
        <time>2022-05-12T06:09:00.2830000+00:00</time>
      </trkpt>
      <trkpt lat="48.744773" lon="12.011315">
        <ele>414.33</ele>
        <time>2022-05-12T06:09:20.6630000+00:00</time>
      </trkpt>
      <trkpt lat="48.744357" lon="12.011405">
        <ele>413.45</ele>
        <time>2022-05-12T06:09:32.0770000+00:00</time>
      </trkpt>
      <trkpt lat="48.743941" lon="12.011338">
        <ele>412.66</ele>
        <time>2022-05-12T06:09:43.4400000+00:00</time>
      </trkpt>
      <trkpt lat="48.743406" lon="12.01118">
        <ele>412.1</ele>
        <time>2022-05-12T06:09:58.2460000+00:00</time>
      </trkpt>
      <trkpt lat="48.742708" lon="12.010933">
        <ele>411.72</ele>
        <time>2022-05-12T06:10:17.7150000+00:00</time>
      </trkpt>
      <trkpt lat="48.74192" lon="12.010866">
        <ele>409.99</ele>
        <time>2022-05-12T06:10:39.1530000+00:00</time>
      </trkpt>
      <trkpt lat="48.741621" lon="12.010895">
        <ele>409.52</ele>
        <time>2022-05-12T06:10:47.2910000+00:00</time>
      </trkpt>
      <trkpt lat="48.740553" lon="12.011">
        <ele>409.3</ele>
        <time>2022-05-12T06:11:16.3620000+00:00</time>
      </trkpt>
      <trkpt lat="48.739097" lon="12.011539">
        <ele>409.33</ele>
        <time>2022-05-12T06:11:57.0730000+00:00</time>
      </trkpt>
      <trkpt lat="48.737367" lon="12.012302">
        <ele>408.87</ele>
        <time>2022-05-12T06:12:46.0130000+00:00</time>
      </trkpt>
      <trkpt lat="48.735985" lon="12.012392">
        <ele>410.23</ele>
        <time>2022-05-12T06:13:23.5860000+00:00</time>
      </trkpt>
      <trkpt lat="48.733979" lon="12.012459">
        <ele>411.55</ele>
        <time>2022-05-12T06:14:18.0890000+00:00</time>
      </trkpt>
      <trkpt lat="48.733037" lon="12.012593">
        <ele>411.91</ele>
        <time>2022-05-12T06:14:43.7890000+00:00</time>
      </trkpt>
      <trkpt lat="48.731848" lon="12.012773">
        <ele>412.27</ele>
        <time>2022-05-12T06:15:16.2460000+00:00</time>
      </trkpt>
      <trkpt lat="48.730377" lon="12.013222">
        <ele>410.24</ele>
        <time>2022-05-12T06:15:57.0050000+00:00</time>
      </trkpt>
      <trkpt lat="48.729575" lon="12.013761">
        <ele>410</ele>
        <time>2022-05-12T06:16:20.8340000+00:00</time>
      </trkpt>
      <trkpt lat="48.728009" lon="12.014546">
        <ele>410</ele>
        <time>2022-05-12T06:17:05.6360000+00:00</time>
      </trkpt>
      <trkpt lat="48.726775" lon="12.014793">
        <ele>411.34</ele>
        <time>2022-05-12T06:17:39.4460000+00:00</time>
      </trkpt>
      <trkpt lat="48.726359" lon="12.014815">
        <ele>411.72</ele>
        <time>2022-05-12T06:17:50.7530000+00:00</time>
      </trkpt>
      <trkpt lat="48.725794" lon="12.014838">
        <ele>412.55</ele>
        <time>2022-05-12T06:18:06.1060000+00:00</time>
      </trkpt>
      <trkpt lat="48.724858" lon="12.015017">
        <ele>412.5</ele>
        <time>2022-05-12T06:18:31.7320000+00:00</time>
      </trkpt>
      <trkpt lat="48.724085" lon="12.015376">
        <ele>412.59</ele>
        <time>2022-05-12T06:18:53.6920000+00:00</time>
      </trkpt>
      <trkpt lat="48.723322" lon="12.015691">
        <ele>414.16</ele>
        <time>2022-05-12T06:19:15.1720000+00:00</time>
      </trkpt>
      <trkpt lat="48.722192" lon="12.016252">
        <ele>414.17</ele>
        <time>2022-05-12T06:19:47.4710000+00:00</time>
      </trkpt>
      <trkpt lat="48.722045" lon="12.01713">
        <ele>413.53</ele>
        <time>2022-05-12T06:20:03.7030000+00:00</time>
      </trkpt>
      <trkpt lat="48.722055" lon="12.017601">
        <ele>413.02</ele>
        <time>2022-05-12T06:20:12.1480000+00:00</time>
      </trkpt>
      <trkpt lat="48.721583" lon="12.018591">
        <ele>412.25</ele>
        <time>2022-05-12T06:20:34.0360000+00:00</time>
      </trkpt>
      <trkpt lat="48.721548" lon="12.018771">
        <ele>412.46</ele>
        <time>2022-05-12T06:20:37.3990000+00:00</time>
      </trkpt>
      <trkpt lat="48.721388" lon="12.019581">
        <ele>413.23</ele>
        <time>2022-05-12T06:20:52.5510000+00:00</time>
      </trkpt>
      <trkpt lat="48.7213" lon="12.020667">
        <ele>415.08</ele>
        <time>2022-05-12T06:21:12.1580000+00:00</time>
      </trkpt>
      <trkpt lat="48.7213" lon="12.020667">
        <ele>415.08</ele>
        <time>2022-05-12T06:21:12.1580000+00:00</time>
      </trkpt>
      <trkpt lat="48.720171" lon="12.019813">
        <ele>413.71</ele>
        <time>2022-05-12T06:21:46.4320000+00:00</time>
      </trkpt>
      <trkpt lat="48.719125" lon="12.019184">
        <ele>414.07</ele>
        <time>2022-05-12T06:22:16.9990000+00:00</time>
      </trkpt>
      <trkpt lat="48.718887" lon="12.019161">
        <ele>415.7</ele>
        <time>2022-05-12T06:22:23.4770000+00:00</time>
      </trkpt>
      <trkpt lat="48.716926" lon="12.01916">
        <ele>414.97</ele>
        <time>2022-05-12T06:23:16.7430000+00:00</time>
      </trkpt>
      <trkpt lat="48.715365" lon="12.018845">
        <ele>417.59</ele>
        <time>2022-05-12T06:23:59.5190000+00:00</time>
      </trkpt>
      <trkpt lat="48.71472" lon="12.018666">
        <ele>417.98</ele>
        <time>2022-05-12T06:24:17.3300000+00:00</time>
      </trkpt>
      <trkpt lat="48.714349" lon="12.018643">
        <ele>418.51</ele>
        <time>2022-05-12T06:24:27.4160000+00:00</time>
      </trkpt>
      <trkpt lat="48.713339" lon="12.018463">
        <ele>419.98</ele>
        <time>2022-05-12T06:24:55.0400000+00:00</time>
      </trkpt>
      <trkpt lat="48.713101" lon="12.018328">
        <ele>420.15</ele>
        <time>2022-05-12T06:25:01.9430000+00:00</time>
      </trkpt>
      <trkpt lat="48.711689" lon="12.017048">
        <ele>417.7</ele>
        <time>2022-05-12T06:25:46.6340000+00:00</time>
      </trkpt>
      <trkpt lat="48.711511" lon="12.017057">
        <ele>417.95</ele>
        <time>2022-05-12T06:25:51.4720000+00:00</time>
      </trkpt>
      <trkpt lat="48.710857" lon="12.016832">
        <ele>419.11</ele>
        <time>2022-05-12T06:26:09.6890000+00:00</time>
      </trkpt>
      <trkpt lat="48.71045" lon="12.017609">
        <ele>422.86</ele>
        <time>2022-05-12T06:26:27.4700000+00:00</time>
      </trkpt>
      <trkpt lat="48.71004" lon="12.017833">
        <ele>424.83</ele>
        <time>2022-05-12T06:26:39.3090000+00:00</time>
      </trkpt>
      <trkpt lat="48.71004" lon="12.017833">
        <ele>424.83</ele>
        <time>2022-05-12T06:26:39.3090000+00:00</time>
      </trkpt>
      <trkpt lat="48.709601" lon="12.017753">
        <ele>426.55</ele>
        <time>2022-05-12T06:26:51.3190000+00:00</time>
      </trkpt>
      <trkpt lat="48.709417" lon="12.017544">
        <ele>427.04</ele>
        <time>2022-05-12T06:26:57.5650000+00:00</time>
      </trkpt>
      <trkpt lat="48.709302" lon="12.017145">
        <ele>427.26</ele>
        <time>2022-05-12T06:27:05.3690000+00:00</time>
      </trkpt>
      <trkpt lat="48.709084" lon="12.016763">
        <ele>427.78</ele>
        <time>2022-05-12T06:27:14.4220000+00:00</time>
      </trkpt>
      <trkpt lat="48.708923" lon="12.016763">
        <ele>428.17</ele>
        <time>2022-05-12T06:27:18.7950000+00:00</time>
      </trkpt>
      <trkpt lat="48.708722" lon="12.016797">
        <ele>428.65</ele>
        <time>2022-05-12T06:27:24.2890000+00:00</time>
      </trkpt>
      <trkpt lat="48.708484" lon="12.015897">
        <ele>426.62</ele>
        <time>2022-05-12T06:27:41.6680000+00:00</time>
      </trkpt>
      <trkpt lat="48.707755" lon="12.014458">
        <ele>424.03</ele>
        <time>2022-05-12T06:28:14.1860000+00:00</time>
      </trkpt>
      <trkpt lat="48.707234" lon="12.013986">
        <ele>423.66</ele>
        <time>2022-05-12T06:28:30.6740000+00:00</time>
      </trkpt>
      <trkpt lat="48.706996" lon="12.013783">
        <ele>423.37</ele>
        <time>2022-05-12T06:28:38.0930000+00:00</time>
      </trkpt>
      <trkpt lat="48.703359" lon="12.010162">
        <ele>421.98</ele>
        <time>2022-05-12T06:30:36.3010000+00:00</time>
      </trkpt>
      <trkpt lat="48.702615" lon="12.009443">
        <ele>420.32</ele>
        <time>2022-05-12T06:31:00.2700000+00:00</time>
      </trkpt>
      <trkpt lat="48.701157" lon="12.006906">
        <ele>420.96</ele>
        <time>2022-05-12T06:32:00.5770000+00:00</time>
      </trkpt>
      <trkpt lat="48.699884" lon="12.006331">
        <ele>422.79</ele>
        <time>2022-05-12T06:32:36.6600000+00:00</time>
      </trkpt>
      <trkpt lat="48.698805" lon="12.005276">
        <ele>421.99</ele>
        <time>2022-05-12T06:33:11.5420000+00:00</time>
      </trkpt>
      <trkpt lat="48.698392" lon="12.005012">
        <ele>422.48</ele>
        <time>2022-05-12T06:33:23.7170000+00:00</time>
      </trkpt>
      <trkpt lat="48.698688" lon="12.003677">
        <ele>423.23</ele>
        <time>2022-05-12T06:33:48.9660000+00:00</time>
      </trkpt>
      <trkpt lat="48.698763" lon="12.002718">
        <ele>424.15</ele>
        <time>2022-05-12T06:34:06.2790000+00:00</time>
      </trkpt>
      <trkpt lat="48.698522" lon="12.001211">
        <ele>421.83</ele>
        <time>2022-05-12T06:34:34.0790000+00:00</time>
      </trkpt>
      <trkpt lat="48.698325" lon="12.000275">
        <ele>421.15</ele>
        <time>2022-05-12T06:34:51.6920000+00:00</time>
      </trkpt>
      <trkpt lat="48.697024999999996" lon="11.99943">
        <ele>420.87</ele>
        <time>2022-05-12T06:35:30.1160000+00:00</time>
      </trkpt>
      <trkpt lat="48.695423" lon="11.997968">
        <ele>423.33</ele>
        <time>2022-05-12T06:36:20.9160000+00:00</time>
      </trkpt>
      <trkpt lat="48.694894" lon="11.997512">
        <ele>423.13</ele>
        <time>2022-05-12T06:36:37.4490000+00:00</time>
      </trkpt>
      <trkpt lat="48.693585" lon="11.996206">
        <ele>421</ele>
        <time>2022-05-12T06:37:20.0230000+00:00</time>
      </trkpt>
      <trkpt lat="48.692784" lon="11.995544">
        <ele>423.02</ele>
        <time>2022-05-12T06:37:44.8080000+00:00</time>
      </trkpt>
      <trkpt lat="48.692422" lon="11.995042">
        <ele>423.71</ele>
        <time>2022-05-12T06:37:58.1390000+00:00</time>
      </trkpt>
      <trkpt lat="48.691923" lon="11.994129">
        <ele>424.05</ele>
        <time>2022-05-12T06:38:19.3920000+00:00</time>
      </trkpt>
      <trkpt lat="48.691424" lon="11.993376">
        <ele>423.76</ele>
        <time>2022-05-12T06:38:38.5240000+00:00</time>
      </trkpt>
      <trkpt lat="48.691318" lon="11.993284">
        <ele>423.77</ele>
        <time>2022-05-12T06:38:41.8420000+00:00</time>
      </trkpt>
      <trkpt lat="48.69085" lon="11.992577">
        <ele>426.11</ele>
        <time>2022-05-12T06:38:59.7950000+00:00</time>
      </trkpt>
      <trkpt lat="48.690571" lon="11.992306">
        <ele>426.86</ele>
        <time>2022-05-12T06:39:08.7980000+00:00</time>
      </trkpt>
      <trkpt lat="48.690305" lon="11.992007">
        <ele>428.08</ele>
        <time>2022-05-12T06:39:17.7950000+00:00</time>
      </trkpt>
      <trkpt lat="48.689668" lon="11.991737">
        <ele>427.6</ele>
        <time>2022-05-12T06:39:35.7620000+00:00</time>
      </trkpt>
      <trkpt lat="48.689267" lon="11.991476">
        <ele>427.05</ele>
        <time>2022-05-12T06:39:47.6170000+00:00</time>
      </trkpt>
      <trkpt lat="48.688501" lon="11.991477">
        <ele>424.29</ele>
        <time>2022-05-12T06:40:08.4240000+00:00</time>
      </trkpt>
      <trkpt lat="48.687125" lon="11.991269">
        <ele>422.97</ele>
        <time>2022-05-12T06:40:45.9860000+00:00</time>
      </trkpt>
      <trkpt lat="48.686889" lon="11.991269">
        <ele>422.48</ele>
        <time>2022-05-12T06:40:52.3970000+00:00</time>
      </trkpt>
      <trkpt lat="48.685809" lon="11.990676">
        <ele>424.85</ele>
        <time>2022-05-12T06:41:23.6010000+00:00</time>
      </trkpt>
      <trkpt lat="48.684178" lon="11.989519">
        <ele>424.59</ele>
        <time>2022-05-12T06:42:12.5210000+00:00</time>
      </trkpt>
      <trkpt lat="48.683588" lon="11.988777">
        <ele>424.05</ele>
        <time>2022-05-12T06:42:33.3520000+00:00</time>
      </trkpt>
      <trkpt lat="48.683411" lon="11.987857">
        <ele>425.39</ele>
        <time>2022-05-12T06:42:50.5370000+00:00</time>
      </trkpt>
      <trkpt lat="48.682692" lon="11.987288">
        <ele>427.6</ele>
        <time>2022-05-12T06:43:12.5720000+00:00</time>
      </trkpt>
      <trkpt lat="48.681533" lon="11.985834">
        <ele>429.13</ele>
        <time>2022-05-12T06:43:53.4510000+00:00</time>
      </trkpt>
      <trkpt lat="48.679887" lon="11.983781">
        <ele>427.43</ele>
        <time>2022-05-12T06:44:51.3710000+00:00</time>
      </trkpt>
      <trkpt lat="48.679037" lon="11.982593">
        <ele>429.38</ele>
        <time>2022-05-12T06:45:22.7880000+00:00</time>
      </trkpt>
      <trkpt lat="48.67774" lon="11.980729">
        <ele>431.15</ele>
        <time>2022-05-12T06:46:11.3560000+00:00</time>
      </trkpt>
      <trkpt lat="48.677466" lon="11.980362">
        <ele>430.72</ele>
        <time>2022-05-12T06:46:21.2920000+00:00</time>
      </trkpt>
      <trkpt lat="48.676786" lon="11.979593">
        <ele>430.16</ele>
        <time>2022-05-12T06:46:44.3440000+00:00</time>
      </trkpt>
      <trkpt lat="48.675534" lon="11.977892">
        <ele>433.39</ele>
        <time>2022-05-12T06:47:30.0320000+00:00</time>
      </trkpt>
      <trkpt lat="48.674992" lon="11.976852">
        <ele>435.86</ele>
        <time>2022-05-12T06:47:53.7960000+00:00</time>
      </trkpt>
      <trkpt lat="48.674509" lon="11.975529">
        <ele>435.5</ele>
        <time>2022-05-12T06:48:20.9110000+00:00</time>
      </trkpt>
      <trkpt lat="48.673787" lon="11.973434">
        <ele>432.17</ele>
        <time>2022-05-12T06:49:03.2990000+00:00</time>
      </trkpt>
      <trkpt lat="48.673465" lon="11.972961">
        <ele>432.37</ele>
        <time>2022-05-12T06:49:15.4840000+00:00</time>
      </trkpt>
      <trkpt lat="48.672606" lon="11.971989">
        <ele>431.04</ele>
        <time>2022-05-12T06:49:44.6110000+00:00</time>
      </trkpt>
      <trkpt lat="48.671715" lon="11.971191">
        <ele>432.3</ele>
        <time>2022-05-12T06:50:12.7300000+00:00</time>
      </trkpt>
      <trkpt lat="48.671241" lon="11.97061">
        <ele>434.11</ele>
        <time>2022-05-12T06:50:29.2940000+00:00</time>
      </trkpt>
      <trkpt lat="48.670848" lon="11.969949">
        <ele>435.47</ele>
        <time>2022-05-12T06:50:45.2490000+00:00</time>
      </trkpt>
      <trkpt lat="48.670499" lon="11.969287">
        <ele>435.51</ele>
        <time>2022-05-12T06:51:00.4440000+00:00</time>
      </trkpt>
      <trkpt lat="48.670212" lon="11.968761">
        <ele>435.77</ele>
        <time>2022-05-12T06:51:12.6830000+00:00</time>
      </trkpt>
      <trkpt lat="48.670141" lon="11.968383">
        <ele>437.09</ele>
        <time>2022-05-12T06:51:19.7330000+00:00</time>
      </trkpt>
      <trkpt lat="48.670141" lon="11.968383">
        <ele>437.09</ele>
        <time>2022-05-12T06:51:19.7330000+00:00</time>
      </trkpt>
      <trkpt lat="48.670084" lon="11.967947">
        <ele>439.26</ele>
        <time>2022-05-12T06:51:27.7050000+00:00</time>
      </trkpt>
      <trkpt lat="48.669394" lon="11.96681">
        <ele>435.5</ele>
        <time>2022-05-12T06:51:55.4050000+00:00</time>
      </trkpt>
      <trkpt lat="48.668984" lon="11.965993">
        <ele>436.71</ele>
        <time>2022-05-12T06:52:13.8120000+00:00</time>
      </trkpt>
      <trkpt lat="48.668629" lon="11.965305">
        <ele>437.11</ele>
        <time>2022-05-12T06:52:29.4750000+00:00</time>
      </trkpt>
      <trkpt lat="48.668417" lon="11.96492">
        <ele>437.21</ele>
        <time>2022-05-12T06:52:38.4670000+00:00</time>
      </trkpt>
      <trkpt lat="48.668071" lon="11.96436">
        <ele>437.1</ele>
        <time>2022-05-12T06:52:52.2240000+00:00</time>
      </trkpt>
      <trkpt lat="48.667413" lon="11.963591">
        <ele>435.64</ele>
        <time>2022-05-12T06:53:14.8020000+00:00</time>
      </trkpt>
      <trkpt lat="48.667243" lon="11.962502">
        <ele>439.7</ele>
        <time>2022-05-12T06:53:34.8760000+00:00</time>
      </trkpt>
      <trkpt lat="48.667338" lon="11.961669">
        <ele>444.15</ele>
        <time>2022-05-12T06:53:50.0400000+00:00</time>
      </trkpt>
      <trkpt lat="48.667338" lon="11.961669">
        <ele>444.15</ele>
        <time>2022-05-12T06:53:50.0400000+00:00</time>
      </trkpt>
      <trkpt lat="48.666366" lon="11.96111">
        <ele>436.13</ele>
        <time>2022-05-12T06:54:18.2830000+00:00</time>
      </trkpt>
      <trkpt lat="48.666457" lon="11.9605">
        <ele>436.99</ele>
        <time>2022-05-12T06:54:29.5020000+00:00</time>
      </trkpt>
      <trkpt lat="48.666478" lon="11.960404">
        <ele>437.14</ele>
        <time>2022-05-12T06:54:31.3160000+00:00</time>
      </trkpt>
      <trkpt lat="48.666075" lon="11.95978">
        <ele>437.52</ele>
        <time>2022-05-12T06:54:46.9730000+00:00</time>
      </trkpt>
      <trkpt lat="48.665555" lon="11.959396">
        <ele>437.19</ele>
        <time>2022-05-12T06:55:02.6880000+00:00</time>
      </trkpt>
      <trkpt lat="48.665199" lon="11.959094">
        <ele>437.22</ele>
        <time>2022-05-12T06:55:13.7730000+00:00</time>
      </trkpt>
      <trkpt lat="48.664413" lon="11.958353">
        <ele>435.02</ele>
        <time>2022-05-12T06:55:38.9230000+00:00</time>
      </trkpt>
      <trkpt lat="48.663745" lon="11.957879">
        <ele>434.37</ele>
        <time>2022-05-12T06:55:58.9620000+00:00</time>
      </trkpt>
      <trkpt lat="48.66343" lon="11.957108">
        <ele>435.02</ele>
        <time>2022-05-12T06:56:15.2270000+00:00</time>
      </trkpt>
      <trkpt lat="48.663095" lon="11.95432">
        <ele>439.82</ele>
        <time>2022-05-12T06:57:06.0660000+00:00</time>
      </trkpt>
      <trkpt lat="48.662347" lon="11.951473">
        <ele>441.47</ele>
        <time>2022-05-12T06:58:01.0370000+00:00</time>
      </trkpt>
      <trkpt lat="48.662072" lon="11.950821">
        <ele>438.99</ele>
        <time>2022-05-12T06:58:14.9160000+00:00</time>
      </trkpt>
      <trkpt lat="48.66154" lon="11.948893">
        <ele>437.21</ele>
        <time>2022-05-12T06:58:52.4040000+00:00</time>
      </trkpt>
      <trkpt lat="48.661222" lon="11.947905">
        <ele>438.57</ele>
        <time>2022-05-12T06:59:12.1230000+00:00</time>
      </trkpt>
      <trkpt lat="48.661088" lon="11.947381">
        <ele>439.79</ele>
        <time>2022-05-12T06:59:22.2040000+00:00</time>
      </trkpt>
      <trkpt lat="48.660693" lon="11.946734">
        <ele>438.04</ele>
        <time>2022-05-12T06:59:38.0110000+00:00</time>
      </trkpt>
      <trkpt lat="48.659823" lon="11.94457">
        <ele>438.38</ele>
        <time>2022-05-12T07:00:23.4640000+00:00</time>
      </trkpt>
      <trkpt lat="48.659216" lon="11.943133">
        <ele>438.43</ele>
        <time>2022-05-12T07:00:54.0670000+00:00</time>
      </trkpt>
      <trkpt lat="48.659064" lon="11.942509">
        <ele>439.1</ele>
        <time>2022-05-12T07:01:06.0000000+00:00</time>
      </trkpt>
      <trkpt lat="48.658853" lon="11.941796">
        <ele>438.43</ele>
        <time>2022-05-12T07:01:20.0180000+00:00</time>
      </trkpt>
      <trkpt lat="48.658558" lon="11.941233">
        <ele>438.12</ele>
        <time>2022-05-12T07:01:32.9120000+00:00</time>
      </trkpt>
      <trkpt lat="48.657948" lon="11.939839">
        <ele>439.2</ele>
        <time>2022-05-12T07:02:02.9150000+00:00</time>
      </trkpt>
      <trkpt lat="48.657574" lon="11.938594">
        <ele>440.74</ele>
        <time>2022-05-12T07:02:27.4550000+00:00</time>
      </trkpt>
      <trkpt lat="48.657619" lon="11.938068">
        <ele>441.93</ele>
        <time>2022-05-12T07:02:36.9710000+00:00</time>
      </trkpt>
      <trkpt lat="48.657332" lon="11.937011">
        <ele>444.41</ele>
        <time>2022-05-12T07:02:57.4770000+00:00</time>
      </trkpt>
      <trkpt lat="48.656811" lon="11.935907">
        <ele>444.49</ele>
        <time>2022-05-12T07:03:21.8220000+00:00</time>
      </trkpt>
      <trkpt lat="48.656407" lon="11.934562">
        <ele>444.18</ele>
        <time>2022-05-12T07:03:48.3330000+00:00</time>
      </trkpt>
      <trkpt lat="48.656269" lon="11.933873">
        <ele>444.3</ele>
        <time>2022-05-12T07:04:01.2510000+00:00</time>
      </trkpt>
      <trkpt lat="48.655961" lon="11.933489">
        <ele>444.19</ele>
        <time>2022-05-12T07:04:12.0900000+00:00</time>
      </trkpt>
      <trkpt lat="48.655556" lon="11.933525">
        <ele>442.64</ele>
        <time>2022-05-12T07:04:23.1100000+00:00</time>
      </trkpt>
      <trkpt lat="48.655457" lon="11.934806">
        <ele>441.17</ele>
        <time>2022-05-12T07:04:46.2520000+00:00</time>
      </trkpt>
      <trkpt lat="48.655422" lon="11.935806">
        <ele>441.93</ele>
        <time>2022-05-12T07:05:04.2210000+00:00</time>
      </trkpt>
      <trkpt lat="48.654947" lon="11.934536">
        <ele>441.2</ele>
        <time>2022-05-12T07:05:30.4080000+00:00</time>
      </trkpt>
      <trkpt lat="48.653397" lon="11.931936">
        <ele>441.49</ele>
        <time>2022-05-12T07:06:33.2510000+00:00</time>
      </trkpt>
      <trkpt lat="48.652178" lon="11.930201">
        <ele>443.59</ele>
        <time>2022-05-12T07:07:18.7010000+00:00</time>
      </trkpt>
      <trkpt lat="48.651369" lon="11.929633">
        <ele>445.91</ele>
        <time>2022-05-12T07:07:42.9250000+00:00</time>
      </trkpt>
      <trkpt lat="48.650758" lon="11.928549">
        <ele>443.41</ele>
        <time>2022-05-12T07:08:08.4950000+00:00</time>
      </trkpt>
      <trkpt lat="48.649373" lon="11.926165">
        <ele>442.87</ele>
        <time>2022-05-12T07:09:05.4650000+00:00</time>
      </trkpt>
      <trkpt lat="48.648131" lon="11.923807">
        <ele>445.69</ele>
        <time>2022-05-12T07:09:59.5840000+00:00</time>
      </trkpt>
      <trkpt lat="48.648735" lon="11.92307">
        <ele>445.76</ele>
        <time>2022-05-12T07:10:20.6580000+00:00</time>
      </trkpt>
      <trkpt lat="48.649269" lon="11.922287">
        <ele>449.94</ele>
        <time>2022-05-12T07:10:40.8530000+00:00</time>
      </trkpt>
      <trkpt lat="48.648558" lon="11.921376">
        <ele>447.67</ele>
        <time>2022-05-12T07:11:06.1560000+00:00</time>
      </trkpt>
      <trkpt lat="48.647787" lon="11.92108">
        <ele>445.22</ele>
        <time>2022-05-12T07:11:27.7620000+00:00</time>
      </trkpt>
      <trkpt lat="48.647034" lon="11.92015">
        <ele>443.35</ele>
        <time>2022-05-12T07:11:54.1610000+00:00</time>
      </trkpt>
      <trkpt lat="48.646607" lon="11.919303">
        <ele>444.2</ele>
        <time>2022-05-12T07:12:13.2820000+00:00</time>
      </trkpt>
      <trkpt lat="48.645841" lon="11.917019">
        <ele>445.08</ele>
        <time>2022-05-12T07:12:59.2510000+00:00</time>
      </trkpt>
      <trkpt lat="48.644766" lon="11.91499">
        <ele>446.21</ele>
        <time>2022-05-12T07:13:45.9270000+00:00</time>
      </trkpt>
      <trkpt lat="48.643798" lon="11.913509">
        <ele>446.75</ele>
        <time>2022-05-12T07:14:23.3150000+00:00</time>
      </trkpt>
      <trkpt lat="48.64348" lon="11.913168">
        <ele>447.14</ele>
        <time>2022-05-12T07:14:33.9010000+00:00</time>
      </trkpt>
      <trkpt lat="48.643069" lon="11.912872">
        <ele>448.8</ele>
        <time>2022-05-12T07:14:46.2650000+00:00</time>
      </trkpt>
      <trkpt lat="48.642207" lon="11.912508">
        <ele>450.38</ele>
        <time>2022-05-12T07:15:10.5740000+00:00</time>
      </trkpt>
      <trkpt lat="48.640575" lon="11.912785">
        <ele>448.21</ele>
        <time>2022-05-12T07:15:55.1820000+00:00</time>
      </trkpt>
      <trkpt lat="48.638352" lon="11.912401">
        <ele>448.72</ele>
        <time>2022-05-12T07:16:55.9570000+00:00</time>
      </trkpt>
      <trkpt lat="48.637098" lon="11.911832">
        <ele>448.9</ele>
        <time>2022-05-12T07:17:31.5180000+00:00</time>
      </trkpt>
      <trkpt lat="48.636514" lon="11.9114">
        <ele>448.42</ele>
        <time>2022-05-12T07:17:49.1750000+00:00</time>
      </trkpt>
      <trkpt lat="48.635274" lon="11.910832">
        <ele>448.2</ele>
        <time>2022-05-12T07:18:24.3670000+00:00</time>
      </trkpt>
      <trkpt lat="48.634442" lon="11.910377">
        <ele>450.2</ele>
        <time>2022-05-12T07:18:48.3970000+00:00</time>
      </trkpt>
      <trkpt lat="48.633883" lon="11.909968">
        <ele>448.17</ele>
        <time>2022-05-12T07:19:05.2630000+00:00</time>
      </trkpt>
      <trkpt lat="48.63339" lon="11.90933">
        <ele>448.45</ele>
        <time>2022-05-12T07:19:22.8840000+00:00</time>
      </trkpt>
      <trkpt lat="48.6328" lon="11.90867">
        <ele>449.08</ele>
        <time>2022-05-12T07:19:42.8140000+00:00</time>
      </trkpt>
      <trkpt lat="48.632044" lon="11.908306">
        <ele>452.19</ele>
        <time>2022-05-12T07:20:04.3640000+00:00</time>
      </trkpt>
      <trkpt lat="48.632044" lon="11.908306">
        <ele>452.19</ele>
        <time>2022-05-12T07:20:04.3640000+00:00</time>
      </trkpt>
      <trkpt lat="48.631929" lon="11.908968">
        <ele>452.66</ele>
        <time>2022-05-12T07:20:16.6520000+00:00</time>
      </trkpt>
      <trkpt lat="48.629904" lon="11.909108">
        <ele>471.83</ele>
        <time>2022-05-12T07:21:11.7140000+00:00</time>
      </trkpt>
      <trkpt lat="48.628891" lon="11.909201">
        <ele>461.89</ele>
        <time>2022-05-12T07:21:39.2810000+00:00</time>
      </trkpt>
      <trkpt lat="48.628423" lon="11.909224">
        <ele>461.71</ele>
        <time>2022-05-12T07:21:52.0000000+00:00</time>
      </trkpt>
      <trkpt lat="48.627486" lon="11.909454">
        <ele>468.41</ele>
        <time>2022-05-12T07:22:17.7840000+00:00</time>
      </trkpt>
      <trkpt lat="48.626761" lon="11.910322">
        <ele>475.81</ele>
        <time>2022-05-12T07:22:42.8970000+00:00</time>
      </trkpt>
      <trkpt lat="48.626006" lon="11.911623">
        <ele>481.98</ele>
        <time>2022-05-12T07:23:13.9810000+00:00</time>
      </trkpt>
      <trkpt lat="48.625267" lon="11.913448">
        <ele>484.96</ele>
        <time>2022-05-12T07:23:52.4070000+00:00</time>
      </trkpt>
      <trkpt lat="48.624679" lon="11.915957">
        <ele>491.58</ele>
        <time>2022-05-12T07:24:40.2020000+00:00</time>
      </trkpt>
      <trkpt lat="48.623735" lon="11.918973">
        <ele>512.27</ele>
        <time>2022-05-12T07:25:40.1170000+00:00</time>
      </trkpt>
      <trkpt lat="48.622739" lon="11.921049">
        <ele>506.54</ele>
        <time>2022-05-12T07:26:26.1750000+00:00</time>
      </trkpt>
      <trkpt lat="48.622005" lon="11.922376999999999">
        <ele>510.76</ele>
        <time>2022-05-12T07:26:57.2570000+00:00</time>
      </trkpt>
      <trkpt lat="48.621296" lon="11.924703">
        <ele>501.7</ele>
        <time>2022-05-12T07:27:43.2480000+00:00</time>
      </trkpt>
      <trkpt lat="48.621312" lon="11.92728">
        <ele>501.55</ele>
        <time>2022-05-12T07:28:29.5220000+00:00</time>
      </trkpt>
      <trkpt lat="48.621298" lon="11.92785">
        <ele>500.8</ele>
        <time>2022-05-12T07:28:39.7630000+00:00</time>
      </trkpt>
      <trkpt lat="48.620731" lon="11.92977">
        <ele>493.64</ele>
        <time>2022-05-12T07:29:17.5220000+00:00</time>
      </trkpt>
      <trkpt lat="48.620444" lon="11.930614">
        <ele>493.43</ele>
        <time>2022-05-12T07:29:34.5650000+00:00</time>
      </trkpt>
      <trkpt lat="48.620036" lon="11.931458">
        <ele>493.7</ele>
        <time>2022-05-12T07:29:53.3390000+00:00</time>
      </trkpt>
      <trkpt lat="48.619447" lon="11.932052">
        <ele>490.82</ele>
        <time>2022-05-12T07:30:12.5680000+00:00</time>
      </trkpt>
      <trkpt lat="48.61913" lon="11.932873">
        <ele>493.92</ele>
        <time>2022-05-12T07:30:29.6400000+00:00</time>
      </trkpt>
      <trkpt lat="48.618774" lon="11.933511">
        <ele>496.12</ele>
        <time>2022-05-12T07:30:44.6320000+00:00</time>
      </trkpt>
      <trkpt lat="48.618109" lon="11.934196">
        <ele>487.55</ele>
        <time>2022-05-12T07:31:06.4860000+00:00</time>
      </trkpt>
      <trkpt lat="48.617581" lon="11.935428">
        <ele>484.59</ele>
        <time>2022-05-12T07:31:32.8510000+00:00</time>
      </trkpt>
      <trkpt lat="48.617294" lon="11.935725">
        <ele>482.57</ele>
        <time>2022-05-12T07:31:42.2970000+00:00</time>
      </trkpt>
      <trkpt lat="48.616432" lon="11.93625">
        <ele>476.97</ele>
        <time>2022-05-12T07:32:07.5380000+00:00</time>
      </trkpt>
      <trkpt lat="48.616251" lon="11.936615">
        <ele>476.37</ele>
        <time>2022-05-12T07:32:15.7310000+00:00</time>
      </trkpt>
      <trkpt lat="48.615511" lon="11.938759">
        <ele>470.04</ele>
        <time>2022-05-12T07:32:59.1640000+00:00</time>
      </trkpt>
      <trkpt lat="48.615406" lon="11.939215">
        <ele>469.41</ele>
        <time>2022-05-12T07:33:07.8350000+00:00</time>
      </trkpt>
      <trkpt lat="48.615035" lon="11.940455">
        <ele>473.25</ele>
        <time>2022-05-12T07:33:32.2770000+00:00</time>
      </trkpt>
      <trkpt lat="48.61434" lon="11.942097">
        <ele>472.12</ele>
        <time>2022-05-12T07:34:07.2890000+00:00</time>
      </trkpt>
      <trkpt lat="48.614099" lon="11.942599">
        <ele>471.86</ele>
        <time>2022-05-12T07:34:18.4300000+00:00</time>
      </trkpt>
      <trkpt lat="48.61363" lon="11.943352">
        <ele>469.91</ele>
        <time>2022-05-12T07:34:37.0080000+00:00</time>
      </trkpt>
      <trkpt lat="48.613298" lon="11.943649">
        <ele>469.19</ele>
        <time>2022-05-12T07:34:47.4860000+00:00</time>
      </trkpt>
      <trkpt lat="48.612255" lon="11.94422">
        <ele>465.65</ele>
        <time>2022-05-12T07:35:17.6150000+00:00</time>
      </trkpt>
      <trkpt lat="48.612149" lon="11.94422">
        <ele>465.39</ele>
        <time>2022-05-12T07:35:20.4950000+00:00</time>
      </trkpt>
      <trkpt lat="48.611696" lon="11.944585">
        <ele>464.97</ele>
        <time>2022-05-12T07:35:34.4370000+00:00</time>
      </trkpt>
      <trkpt lat="48.611394" lon="11.944585">
        <ele>464.49</ele>
        <time>2022-05-12T07:35:42.6400000+00:00</time>
      </trkpt>
      <trkpt lat="48.610593" lon="11.944358">
        <ele>467.01</ele>
        <time>2022-05-12T07:36:04.7760000+00:00</time>
      </trkpt>
      <trkpt lat="48.61023" lon="11.944244">
        <ele>468.26</ele>
        <time>2022-05-12T07:36:14.8470000+00:00</time>
      </trkpt>
      <trkpt lat="48.609821" lon="11.94399">
        <ele>466.51</ele>
        <time>2022-05-12T07:36:26.8560000+00:00</time>
      </trkpt>
      <trkpt lat="48.609715" lon="11.942121">
        <ele>469.85</ele>
        <time>2022-05-12T07:37:00.5460000+00:00</time>
      </trkpt>
      <trkpt lat="48.609654" lon="11.941437">
        <ele>469.97</ele>
        <time>2022-05-12T07:37:12.9420000+00:00</time>
      </trkpt>
      <trkpt lat="48.609699" lon="11.940251">
        <ele>470.62</ele>
        <time>2022-05-12T07:37:34.2770000+00:00</time>
      </trkpt>
      <trkpt lat="48.609855" lon="11.938879">
        <ele>472.82</ele>
        <time>2022-05-12T07:37:59.2800000+00:00</time>
      </trkpt>
      <trkpt lat="48.60922" lon="11.938698">
        <ele>467.82</ele>
        <time>2022-05-12T07:38:16.8320000+00:00</time>
      </trkpt>
      <trkpt lat="48.608373" lon="11.937604">
        <ele>467.86</ele>
        <time>2022-05-12T07:38:47.0870000+00:00</time>
      </trkpt>
      <trkpt lat="48.607315" lon="11.936215">
        <ele>474.82</ele>
        <time>2022-05-12T07:39:25.1430000+00:00</time>
      </trkpt>
      <trkpt lat="48.606906" lon="11.934415">
        <ele>479.01</ele>
        <time>2022-05-12T07:39:59.3280000+00:00</time>
      </trkpt>
      <trkpt lat="48.606542" lon="11.933367">
        <ele>479.97</ele>
        <time>2022-05-12T07:40:20.5900000+00:00</time>
      </trkpt>
      <trkpt lat="48.605307" lon="11.931016">
        <ele>487.45</ele>
        <time>2022-05-12T07:41:14.5200000+00:00</time>
      </trkpt>
      <trkpt lat="48.60508" lon="11.93031">
        <ele>489.6</ele>
        <time>2022-05-12T07:41:28.6200000+00:00</time>
      </trkpt>
      <trkpt lat="48.604626" lon="11.928054">
        <ele>494.03</ele>
        <time>2022-05-12T07:42:10.9760000+00:00</time>
      </trkpt>
      <trkpt lat="48.604565" lon="11.927234">
        <ele>496.08</ele>
        <time>2022-05-12T07:42:25.7980000+00:00</time>
      </trkpt>
      <trkpt lat="48.60494" lon="11.923678">
        <ele>498.42</ele>
        <time>2022-05-12T07:43:30.4760000+00:00</time>
      </trkpt>
      <trkpt lat="48.605015" lon="11.921873">
        <ele>498.98</ele>
        <time>2022-05-12T07:44:02.9600000+00:00</time>
      </trkpt>
      <trkpt lat="48.604817" lon="11.920027">
        <ele>497.23</ele>
        <time>2022-05-12T07:44:36.5510000+00:00</time>
      </trkpt>
      <trkpt lat="48.604876" lon="11.917155">
        <ele>489.92</ele>
        <time>2022-05-12T07:45:28.1610000+00:00</time>
      </trkpt>
      <trkpt lat="48.604934" lon="11.914625">
        <ele>476.8</ele>
        <time>2022-05-12T07:46:13.6310000+00:00</time>
      </trkpt>
      <trkpt lat="48.604993" lon="11.912573">
        <ele>476.98</ele>
        <time>2022-05-12T07:46:50.5230000+00:00</time>
      </trkpt>
      <trkpt lat="48.604886" lon="11.910541">
        <ele>479.16</ele>
        <time>2022-05-12T07:47:27.1360000+00:00</time>
      </trkpt>
      <trkpt lat="48.604667" lon="11.908968">
        <ele>483.33</ele>
        <time>2022-05-12T07:47:56.0090000+00:00</time>
      </trkpt>
      <trkpt lat="48.604591" lon="11.908285">
        <ele>484.11</ele>
        <time>2022-05-12T07:48:08.4490000+00:00</time>
      </trkpt>
      <trkpt lat="48.604681" lon="11.907505">
        <ele>483.62</ele>
        <time>2022-05-12T07:48:22.6710000+00:00</time>
      </trkpt>
      <trkpt lat="48.604475" lon="11.907214">
        <ele>481.06</ele>
        <time>2022-05-12T07:48:30.3280000+00:00</time>
      </trkpt>
      <trkpt lat="48.603387" lon="11.907102">
        <ele>472.39</ele>
        <time>2022-05-12T07:48:59.9500000+00:00</time>
      </trkpt>
      <trkpt lat="48.60245" lon="11.907855">
        <ele>470.75</ele>
        <time>2022-05-12T07:49:28.7720000+00:00</time>
      </trkpt>
      <trkpt lat="48.601702" lon="11.909224">
        <ele>472.83</ele>
        <time>2022-05-12T07:50:00.6700000+00:00</time>
      </trkpt>
      <trkpt lat="48.600962" lon="11.910638">
        <ele>468.85</ele>
        <time>2022-05-12T07:50:33.0610000+00:00</time>
      </trkpt>
      <trkpt lat="48.59989" lon="11.911848">
        <ele>488.49</ele>
        <time>2022-05-12T07:51:09.3980000+00:00</time>
      </trkpt>
      <trkpt lat="48.599255" lon="11.91235">
        <ele>485.22</ele>
        <time>2022-05-12T07:51:28.8610000+00:00</time>
      </trkpt>
      <trkpt lat="48.598726" lon="11.91267">
        <ele>481.89</ele>
        <time>2022-05-12T07:51:44.3370000+00:00</time>
      </trkpt>
      <trkpt lat="48.597786" lon="11.913455">
        <ele>477.78</ele>
        <time>2022-05-12T07:52:13.5060000+00:00</time>
      </trkpt>
      <trkpt lat="48.59621" lon="11.914817">
        <ele>471.76</ele>
        <time>2022-05-12T07:53:02.8140000+00:00</time>
      </trkpt>
      <trkpt lat="48.594614" lon="11.916027">
        <ele>474.79</ele>
        <time>2022-05-12T07:53:51.3100000+00:00</time>
      </trkpt>
      <trkpt lat="48.593828" lon="11.916142">
        <ele>466.61</ele>
        <time>2022-05-12T07:54:12.7600000+00:00</time>
      </trkpt>
      <trkpt lat="48.592967" lon="11.915915">
        <ele>459.51</ele>
        <time>2022-05-12T07:54:36.5000000+00:00</time>
      </trkpt>
      <trkpt lat="48.59069" lon="11.915121">
        <ele>470.91</ele>
        <time>2022-05-12T07:55:39.9740000+00:00</time>
      </trkpt>
      <trkpt lat="48.590202" lon="11.914904">
        <ele>475.4</ele>
        <time>2022-05-12T07:55:53.7910000+00:00</time>
      </trkpt>
      <trkpt lat="48.589613" lon="11.914768">
        <ele>479.98</ele>
        <time>2022-05-12T07:56:09.9760000+00:00</time>
      </trkpt>
      <trkpt lat="48.589083" lon="11.914587">
        <ele>483.59</ele>
        <time>2022-05-12T07:56:24.7350000+00:00</time>
      </trkpt>
      <trkpt lat="48.58869" lon="11.914405">
        <ele>486.91</ele>
        <time>2022-05-12T07:56:35.9000000+00:00</time>
      </trkpt>
      <trkpt lat="48.588781" lon="11.913881">
        <ele>487.3</ele>
        <time>2022-05-12T07:56:45.6340000+00:00</time>
      </trkpt>
      <trkpt lat="48.588619" lon="11.913747">
        <ele>488.05</ele>
        <time>2022-05-12T07:56:50.6500000+00:00</time>
      </trkpt>
      <trkpt lat="48.588251" lon="11.913654">
        <ele>488.56</ele>
        <time>2022-05-12T07:57:00.7840000+00:00</time>
      </trkpt>
      <trkpt lat="48.587736" lon="11.913421">
        <ele>490.21</ele>
        <time>2022-05-12T07:57:15.3860000+00:00</time>
      </trkpt>
      <trkpt lat="48.585884" lon="11.913863">
        <ele>486.27</ele>
        <time>2022-05-12T07:58:06.3150000+00:00</time>
      </trkpt>
      <trkpt lat="48.584675" lon="11.913386">
        <ele>474.29</ele>
        <time>2022-05-12T07:58:40.2550000+00:00</time>
      </trkpt>
      <trkpt lat="48.583607" lon="11.912135">
        <ele>464.73</ele>
        <time>2022-05-12T07:59:16.9550000+00:00</time>
      </trkpt>
      <trkpt lat="48.582866" lon="11.911612">
        <ele>463.3</ele>
        <time>2022-05-12T07:59:39.1690000+00:00</time>
      </trkpt>
      <trkpt lat="48.582079" lon="11.911408">
        <ele>464.53</ele>
        <time>2022-05-12T08:00:00.8580000+00:00</time>
      </trkpt>
      <trkpt lat="48.58084" lon="11.911342">
        <ele>460.05</ele>
        <time>2022-05-12T08:00:34.5340000+00:00</time>
      </trkpt>
      <trkpt lat="48.580507" lon="11.910978">
        <ele>458.74</ele>
        <time>2022-05-12T08:00:45.6970000+00:00</time>
      </trkpt>
      <trkpt lat="48.580249" lon="11.909862">
        <ele>460.22</ele>
        <time>2022-05-12T08:01:06.9410000+00:00</time>
      </trkpt>
      <trkpt lat="48.579659" lon="11.909704">
        <ele>460.08</ele>
        <time>2022-05-12T08:01:23.2170000+00:00</time>
      </trkpt>
      <trkpt lat="48.57897" lon="11.909755">
        <ele>461.41</ele>
        <time>2022-05-12T08:01:41.9540000+00:00</time>
      </trkpt>
      <trkpt lat="48.578665" lon="11.908755">
        <ele>465.23</ele>
        <time>2022-05-12T08:02:01.7430000+00:00</time>
      </trkpt>
      <trkpt lat="48.578272" lon="11.907111">
        <ele>470.05</ele>
        <time>2022-05-12T08:02:33.1560000+00:00</time>
      </trkpt>
      <trkpt lat="48.577719" lon="11.904729">
        <ele>477.68</ele>
        <time>2022-05-12T08:03:18.5220000+00:00</time>
      </trkpt>
      <trkpt lat="48.577285" lon="11.90319">
        <ele>479.47</ele>
        <time>2022-05-12T08:03:48.5880000+00:00</time>
      </trkpt>
      <trkpt lat="48.57743" lon="11.900982">
        <ele>484.71</ele>
        <time>2022-05-12T08:04:28.4630000+00:00</time>
      </trkpt>
      <trkpt lat="48.57665" lon="11.89827">
        <ele>491.9</ele>
        <time>2022-05-12T08:05:21.6080000+00:00</time>
      </trkpt>
      <trkpt lat="48.57614" lon="11.897032">
        <ele>495.03</ele>
        <time>2022-05-12T08:05:47.8170000+00:00</time>
      </trkpt>
      <trkpt lat="48.575632" lon="11.895062">
        <ele>496.38</ele>
        <time>2022-05-12T08:06:25.8150000+00:00</time>
      </trkpt>
      <trkpt lat="48.575269" lon="11.894106">
        <ele>497.33</ele>
        <time>2022-05-12T08:06:45.6250000+00:00</time>
      </trkpt>
      <trkpt lat="48.574466" lon="11.892011">
        <ele>496.32</ele>
        <time>2022-05-12T08:07:29.1380000+00:00</time>
      </trkpt>
      <trkpt lat="48.573436" lon="11.889986">
        <ele>499.78</ele>
        <time>2022-05-12T08:08:15.0430000+00:00</time>
      </trkpt>
      <trkpt lat="48.572588" lon="11.888006">
        <ele>500.35</ele>
        <time>2022-05-12T08:08:57.4340000+00:00</time>
      </trkpt>
      <trkpt lat="48.572297" lon="11.888091">
        <ele>500</ele>
        <time>2022-05-12T08:09:05.4850000+00:00</time>
      </trkpt>
      <trkpt lat="48.571511" lon="11.888004">
        <ele>499.1</ele>
        <time>2022-05-12T08:09:26.8920000+00:00</time>
      </trkpt>
      <trkpt lat="48.571137" lon="11.887886">
        <ele>498.97</ele>
        <time>2022-05-12T08:09:37.2700000+00:00</time>
      </trkpt>
      <trkpt lat="48.570587" lon="11.888242">
        <ele>498.23</ele>
        <time>2022-05-12T08:09:53.5220000+00:00</time>
      </trkpt>
      <trkpt lat="48.569958" lon="11.888333">
        <ele>497.69</ele>
        <time>2022-05-12T08:10:10.6860000+00:00</time>
      </trkpt>
      <trkpt lat="48.569565" lon="11.888304">
        <ele>497.2</ele>
        <time>2022-05-12T08:10:21.3730000+00:00</time>
      </trkpt>
      <trkpt lat="48.568151" lon="11.88884">
        <ele>492.59</ele>
        <time>2022-05-12T08:11:00.9720000+00:00</time>
      </trkpt>
      <trkpt lat="48.568033" lon="11.88884">
        <ele>493.37</ele>
        <time>2022-05-12T08:11:04.1770000+00:00</time>
      </trkpt>
      <trkpt lat="48.567619" lon="11.887183">
        <ele>496.94</ele>
        <time>2022-05-12T08:11:36.0130000+00:00</time>
      </trkpt>
      <trkpt lat="48.567106" lon="11.885289">
        <ele>497.62</ele>
        <time>2022-05-12T08:12:12.7990000+00:00</time>
      </trkpt>
      <trkpt lat="48.566845" lon="11.883481">
        <ele>501.19</ele>
        <time>2022-05-12T08:12:46.0620000+00:00</time>
      </trkpt>
      <trkpt lat="48.566119" lon="11.883141">
        <ele>507.17</ele>
        <time>2022-05-12T08:13:06.7080000+00:00</time>
      </trkpt>
      <trkpt lat="48.565679" lon="11.882896">
        <ele>509.63</ele>
        <time>2022-05-12T08:13:19.4450000+00:00</time>
      </trkpt>
      <trkpt lat="48.565905" lon="11.882155">
        <ele>508.14</ele>
        <time>2022-05-12T08:13:34.1110000+00:00</time>
      </trkpt>
      <trkpt lat="48.565468" lon="11.879596">
        <ele>499.69</ele>
        <time>2022-05-12T08:14:21.6170000+00:00</time>
      </trkpt>
      <trkpt lat="48.564975" lon="11.877975">
        <ele>491.41</ele>
        <time>2022-05-12T08:14:53.6860000+00:00</time>
      </trkpt>
      <trkpt lat="48.564611" lon="11.877574">
        <ele>489.13</ele>
        <time>2022-05-12T08:15:05.9220000+00:00</time>
      </trkpt>
      <trkpt lat="48.563709" lon="11.876954">
        <ele>487.66</ele>
        <time>2022-05-12T08:15:32.8380000+00:00</time>
      </trkpt>
      <trkpt lat="48.561462" lon="11.876959">
        <ele>475.3</ele>
        <time>2022-05-12T08:16:33.8740000+00:00</time>
      </trkpt>
      <trkpt lat="48.559951" lon="11.87628">
        <ele>474.8</ele>
        <time>2022-05-12T08:17:16.6940000+00:00</time>
      </trkpt>
      <trkpt lat="48.557889" lon="11.873383">
        <ele>470.76</ele>
        <time>2022-05-12T08:18:33.1770000+00:00</time>
      </trkpt>
      <trkpt lat="48.557512" lon="11.873185">
        <ele>472.21</ele>
        <time>2022-05-12T08:18:44.0180000+00:00</time>
      </trkpt>
      <trkpt lat="48.555482" lon="11.872177">
        <ele>468.36</ele>
        <time>2022-05-12T08:19:42.0610000+00:00</time>
      </trkpt>
      <trkpt lat="48.554809" lon="11.871439">
        <ele>461.59</ele>
        <time>2022-05-12T08:20:04.6490000+00:00</time>
      </trkpt>
      <trkpt lat="48.554235" lon="11.871241">
        <ele>460.39</ele>
        <time>2022-05-12T08:20:20.6420000+00:00</time>
      </trkpt>
      <trkpt lat="48.551875" lon="11.871304">
        <ele>463.4</ele>
        <time>2022-05-12T08:21:24.7570000+00:00</time>
      </trkpt>
      <trkpt lat="48.551459" lon="11.871106">
        <ele>458.42</ele>
        <time>2022-05-12T08:21:36.6040000+00:00</time>
      </trkpt>
      <trkpt lat="48.550983" lon="11.87081">
        <ele>456.14</ele>
        <time>2022-05-12T08:21:50.5860000+00:00</time>
      </trkpt>
      <trkpt lat="48.550223" lon="11.870122">
        <ele>454.24</ele>
        <time>2022-05-12T08:22:14.6530000+00:00</time>
      </trkpt>
      <trkpt lat="48.549585" lon="11.869265">
        <ele>454.22</ele>
        <time>2022-05-12T08:22:37.8430000+00:00</time>
      </trkpt>
      <trkpt lat="48.549193" lon="11.868458">
        <ele>454.56</ele>
        <time>2022-05-12T08:22:55.8420000+00:00</time>
      </trkpt>
      <trkpt lat="48.549169" lon="11.867196">
        <ele>456.21</ele>
        <time>2022-05-12T08:23:18.5430000+00:00</time>
      </trkpt>
      <trkpt lat="48.549112" lon="11.865917">
        <ele>453.83</ele>
        <time>2022-05-12T08:23:41.5940000+00:00</time>
      </trkpt>
      <trkpt lat="48.54932" lon="11.865782">
        <ele>454.92</ele>
        <time>2022-05-12T08:23:47.7430000+00:00</time>
      </trkpt>
      <trkpt lat="48.549766" lon="11.864737">
        <ele>455.4</ele>
        <time>2022-05-12T08:24:10.1000000+00:00</time>
      </trkpt>
      <trkpt lat="48.549877" lon="11.864535">
        <ele>455.95</ele>
        <time>2022-05-12T08:24:14.8210000+00:00</time>
      </trkpt>
      <trkpt lat="48.549379" lon="11.864072">
        <ele>451.7</ele>
        <time>2022-05-12T08:24:30.7040000+00:00</time>
      </trkpt>
      <trkpt lat="48.549094" lon="11.863735">
        <ele>451.86</ele>
        <time>2022-05-12T08:24:40.5350000+00:00</time>
      </trkpt>
      <trkpt lat="48.549033" lon="11.86225">
        <ele>453.83</ele>
        <time>2022-05-12T08:25:07.2890000+00:00</time>
      </trkpt>
      <trkpt lat="48.54918" lon="11.861149">
        <ele>456.52</ele>
        <time>2022-05-12T08:25:27.4850000+00:00</time>
      </trkpt>
      <trkpt lat="48.549344" lon="11.860202">
        <ele>457.38</ele>
        <time>2022-05-12T08:25:45.0860000+00:00</time>
      </trkpt>
      <trkpt lat="48.549448" lon="11.859819">
        <ele>458.53</ele>
        <time>2022-05-12T08:25:52.5300000+00:00</time>
      </trkpt>
      <trkpt lat="48.549806" lon="11.858851">
        <ele>460.13</ele>
        <time>2022-05-12T08:26:12.4680000+00:00</time>
      </trkpt>
      <trkpt lat="48.549969" lon="11.858108">
        <ele>461.38</ele>
        <time>2022-05-12T08:26:26.5430000+00:00</time>
      </trkpt>
      <trkpt lat="48.550028" lon="11.85696">
        <ele>462.56</ele>
        <time>2022-05-12T08:26:47.2470000+00:00</time>
      </trkpt>
      <trkpt lat="48.550116" lon="11.856038">
        <ele>462.34</ele>
        <time>2022-05-12T08:27:03.9970000+00:00</time>
      </trkpt>
      <trkpt lat="48.550146" lon="11.855561">
        <ele>462.19</ele>
        <time>2022-05-12T08:27:12.6120000+00:00</time>
      </trkpt>
      <trkpt lat="48.550443" lon="11.854255">
        <ele>461.82</ele>
        <time>2022-05-12T08:27:37.4420000+00:00</time>
      </trkpt>
      <trkpt lat="48.55079" lon="11.852382">
        <ele>464.7</ele>
        <time>2022-05-12T08:28:12.4140000+00:00</time>
      </trkpt>
      <trkpt lat="48.551161" lon="11.850311">
        <ele>465.71</ele>
        <time>2022-05-12T08:28:50.9920000+00:00</time>
      </trkpt>
      <trkpt lat="48.551248" lon="11.847903">
        <ele>463.94</ele>
        <time>2022-05-12T08:29:34.3540000+00:00</time>
      </trkpt>
      <trkpt lat="48.551316" lon="11.844751">
        <ele>461.59</ele>
        <time>2022-05-12T08:30:31.0580000+00:00</time>
      </trkpt>
      <trkpt lat="48.551451" lon="11.843308">
        <ele>461.62</ele>
        <time>2022-05-12T08:30:57.2620000+00:00</time>
      </trkpt>
      <trkpt lat="48.551493" lon="11.840922">
        <ele>459.44</ele>
        <time>2022-05-12T08:31:40.1790000+00:00</time>
      </trkpt>
      <trkpt lat="48.550257" lon="11.840034">
        <ele>463.04</ele>
        <time>2022-05-12T08:32:17.3550000+00:00</time>
      </trkpt>
      <trkpt lat="48.549156" lon="11.83947">
        <ele>470.21</ele>
        <time>2022-05-12T08:32:48.9350000+00:00</time>
      </trkpt>
      <trkpt lat="48.546864" lon="11.8385">
        <ele>478.62</ele>
        <time>2022-05-12T08:33:53.5890000+00:00</time>
      </trkpt>
      <trkpt lat="48.545974" lon="11.838003">
        <ele>488.22</ele>
        <time>2022-05-12T08:34:19.3640000+00:00</time>
      </trkpt>
      <trkpt lat="48.545364" lon="11.836984">
        <ele>489.86</ele>
        <time>2022-05-12T08:34:44.0680000+00:00</time>
      </trkpt>
      <trkpt lat="48.544697" lon="11.83433">
        <ele>486.31</ele>
        <time>2022-05-12T08:35:35.1180000+00:00</time>
      </trkpt>
      <trkpt lat="48.544333" lon="11.832901">
        <ele>488.03</ele>
        <time>2022-05-12T08:36:02.6520000+00:00</time>
      </trkpt>
      <trkpt lat="48.543956" lon="11.832561">
        <ele>490.93</ele>
        <time>2022-05-12T08:36:14.5790000+00:00</time>
      </trkpt>
      <trkpt lat="48.543624" lon="11.83254">
        <ele>492.6</ele>
        <time>2022-05-12T08:36:23.6050000+00:00</time>
      </trkpt>
      <trkpt lat="48.543361" lon="11.8318">
        <ele>492.16</ele>
        <time>2022-05-12T08:36:38.7090000+00:00</time>
      </trkpt>
      <trkpt lat="48.543223" lon="11.830416">
        <ele>494.04</ele>
        <time>2022-05-12T08:37:03.8780000+00:00</time>
      </trkpt>
      <trkpt lat="48.543041" lon="11.829214">
        <ele>495.68</ele>
        <time>2022-05-12T08:37:26.0530000+00:00</time>
      </trkpt>
      <trkpt lat="48.542313" lon="11.826274">
        <ele>491.86</ele>
        <time>2022-05-12T08:38:22.5010000+00:00</time>
      </trkpt>
      <trkpt lat="48.541902" lon="11.823597">
        <ele>491.72</ele>
        <time>2022-05-12T08:39:11.9220000+00:00</time>
      </trkpt>
      <trkpt lat="48.541258" lon="11.82062">
        <ele>503.65</ele>
        <time>2022-05-12T08:40:08.2450000+00:00</time>
      </trkpt>
      <trkpt lat="48.541036" lon="11.818924">
        <ele>505.2</ele>
        <time>2022-05-12T08:40:39.3370000+00:00</time>
      </trkpt>
      <trkpt lat="48.540596" lon="11.816655">
        <ele>500.64</ele>
        <time>2022-05-12T08:41:21.8570000+00:00</time>
      </trkpt>
      <trkpt lat="48.540036" lon="11.815045">
        <ele>497.25</ele>
        <time>2022-05-12T08:41:54.5650000+00:00</time>
      </trkpt>
      <trkpt lat="48.53931" lon="11.813913">
        <ele>498.69</ele>
        <time>2022-05-12T08:42:22.9080000+00:00</time>
      </trkpt>
      <trkpt lat="48.538566" lon="11.812549">
        <ele>487.86</ele>
        <time>2022-05-12T08:42:54.6920000+00:00</time>
      </trkpt>
      <trkpt lat="48.538566" lon="11.812549">
        <ele>487.86</ele>
        <time>2022-05-12T08:42:54.6920000+00:00</time>
      </trkpt>
      <trkpt lat="48.538295" lon="11.810593">
        <ele>480.74</ele>
        <time>2022-05-12T08:43:30.6330000+00:00</time>
      </trkpt>
      <trkpt lat="48.538232" lon="11.808951">
        <ele>476.25</ele>
        <time>2022-05-12T08:44:00.2140000+00:00</time>
      </trkpt>
      <trkpt lat="48.538366" lon="11.808253">
        <ele>475.01</ele>
        <time>2022-05-12T08:44:13.2850000+00:00</time>
      </trkpt>
      <trkpt lat="48.538679" lon="11.807825">
        <ele>475.5</ele>
        <time>2022-05-12T08:44:24.7540000+00:00</time>
      </trkpt>
      <trkpt lat="48.538762" lon="11.80728">
        <ele>472.32</ele>
        <time>2022-05-12T08:44:34.8110000+00:00</time>
      </trkpt>
      <trkpt lat="48.538762" lon="11.80728">
        <ele>472.32</ele>
        <time>2022-05-12T08:44:34.8110000+00:00</time>
      </trkpt>
      <trkpt lat="48.538125" lon="11.80726">
        <ele>469.56</ele>
        <time>2022-05-12T08:44:52.1180000+00:00</time>
      </trkpt>
      <trkpt lat="48.537901" lon="11.807216">
        <ele>468.53</ele>
        <time>2022-05-12T08:44:58.2540000+00:00</time>
      </trkpt>
      <trkpt lat="48.53787" lon="11.806361">
        <ele>467.98</ele>
        <time>2022-05-12T08:45:13.6540000+00:00</time>
      </trkpt>
      <trkpt lat="48.537288" lon="11.805969">
        <ele>466.59</ele>
        <time>2022-05-12T08:45:30.9640000+00:00</time>
      </trkpt>
      <trkpt lat="48.537345" lon="11.805463">
        <ele>467.12</ele>
        <time>2022-05-12T08:45:40.1950000+00:00</time>
      </trkpt>
      <trkpt lat="48.536135" lon="11.805512">
        <ele>466.19</ele>
        <time>2022-05-12T08:46:13.0740000+00:00</time>
      </trkpt>
      <trkpt lat="48.535941" lon="11.805243">
        <ele>466.57</ele>
        <time>2022-05-12T08:46:20.2280000+00:00</time>
      </trkpt>
      <trkpt lat="48.53582" lon="11.804254">
        <ele>468.71</ele>
        <time>2022-05-12T08:46:38.3180000+00:00</time>
      </trkpt>
      <trkpt lat="48.53582" lon="11.804254">
        <ele>468.71</ele>
        <time>2022-05-12T08:46:38.3180000+00:00</time>
      </trkpt>
      <trkpt lat="48.535819" lon="11.803916">
        <ele>469.73</ele>
        <time>2022-05-12T08:46:44.3970000+00:00</time>
      </trkpt>
      <trkpt lat="48.535729" lon="11.803377">
        <ele>471.43</ele>
        <time>2022-05-12T08:46:54.3950000+00:00</time>
      </trkpt>
      <trkpt lat="48.535458" lon="11.802006">
        <ele>475.51</ele>
        <time>2022-05-12T08:47:20.1290000+00:00</time>
      </trkpt>
      <trkpt lat="48.535452" lon="11.80154">
        <ele>475.95</ele>
        <time>2022-05-12T08:47:28.5120000+00:00</time>
      </trkpt>
      <trkpt lat="48.535365" lon="11.800341">
        <ele>477.61</ele>
        <time>2022-05-12T08:47:50.2070000+00:00</time>
      </trkpt>
      <trkpt lat="48.535109" lon="11.798723">
        <ele>479.11</ele>
        <time>2022-05-12T08:48:20.1280000+00:00</time>
      </trkpt>
      <trkpt lat="48.535031" lon="11.796901">
        <ele>476.12</ele>
        <time>2022-05-12T08:48:52.9670000+00:00</time>
      </trkpt>
      <trkpt lat="48.535044" lon="11.795817">
        <ele>475.39</ele>
        <time>2022-05-12T08:49:12.4670000+00:00</time>
      </trkpt>
      <trkpt lat="48.535102" lon="11.795052">
        <ele>474.49</ele>
        <time>2022-05-12T08:49:26.3170000+00:00</time>
      </trkpt>
      <trkpt lat="48.535325" lon="11.793971">
        <ele>472.39</ele>
        <time>2022-05-12T08:49:46.6820000+00:00</time>
      </trkpt>
      <trkpt lat="48.535533" lon="11.793251">
        <ele>471.79</ele>
        <time>2022-05-12T08:50:00.8110000+00:00</time>
      </trkpt>
      <trkpt lat="48.535815" lon="11.792165">
        <ele>472.19</ele>
        <time>2022-05-12T08:50:21.7920000+00:00</time>
      </trkpt>
      <trkpt lat="48.535842" lon="11.790636">
        <ele>471.34</ele>
        <time>2022-05-12T08:50:49.3020000+00:00</time>
      </trkpt>
      <trkpt lat="48.536033" lon="11.789616">
        <ele>471.21</ele>
        <time>2022-05-12T08:51:08.3670000+00:00</time>
      </trkpt>
      <trkpt lat="48.536732" lon="11.786786">
        <ele>473.11</ele>
        <time>2022-05-12T08:52:02.6930000+00:00</time>
      </trkpt>
      <trkpt lat="48.536879" lon="11.785795">
        <ele>471.01</ele>
        <time>2022-05-12T08:52:20.9590000+00:00</time>
      </trkpt>
      <trkpt lat="48.537235" lon="11.784107">
        <ele>472.79</ele>
        <time>2022-05-12T08:52:52.8210000+00:00</time>
      </trkpt>
      <trkpt lat="48.537248" lon="11.783207">
        <ele>474.53</ele>
        <time>2022-05-12T08:53:09.0120000+00:00</time>
      </trkpt>
      <trkpt lat="48.537276" lon="11.781853">
        <ele>476.87</ele>
        <time>2022-05-12T08:53:33.3770000+00:00</time>
      </trkpt>
      <trkpt lat="48.537317" lon="11.78003">
        <ele>480.15</ele>
        <time>2022-05-12T08:54:06.1830000+00:00</time>
      </trkpt>
      <trkpt lat="48.537389" lon="11.778365">
        <ele>483.24</ele>
        <time>2022-05-12T08:54:36.1930000+00:00</time>
      </trkpt>
      <trkpt lat="48.537789" lon="11.776632">
        <ele>485.47</ele>
        <time>2022-05-12T08:55:09.2010000+00:00</time>
      </trkpt>
      <trkpt lat="48.538622" lon="11.774509">
        <ele>493.8</ele>
        <time>2022-05-12T08:55:53.5840000+00:00</time>
      </trkpt>
      <trkpt lat="48.538784" lon="11.773384">
        <ele>497.43</ele>
        <time>2022-05-12T08:56:14.2900000+00:00</time>
      </trkpt>
      <trkpt lat="48.538826" lon="11.772011">
        <ele>503.06</ele>
        <time>2022-05-12T08:56:39.0100000+00:00</time>
      </trkpt>
      <trkpt lat="48.539032" lon="11.770211">
        <ele>506.36</ele>
        <time>2022-05-12T08:57:11.8630000+00:00</time>
      </trkpt>
      <trkpt lat="48.539119" lon="11.769036">
        <ele>503.89</ele>
        <time>2022-05-12T08:57:33.1270000+00:00</time>
      </trkpt>
      <trkpt lat="48.538908" lon="11.767665">
        <ele>502.08</ele>
        <time>2022-05-12T08:57:58.4410000+00:00</time>
      </trkpt>
      <trkpt lat="48.538129" lon="11.766926">
        <ele>504.01</ele>
        <time>2022-05-12T08:58:23.4290000+00:00</time>
      </trkpt>
      <trkpt lat="48.537889" lon="11.766094">
        <ele>504.06</ele>
        <time>2022-05-12T08:58:39.7520000+00:00</time>
      </trkpt>
      <trkpt lat="48.538036" lon="11.765082">
        <ele>499.71</ele>
        <time>2022-05-12T08:58:58.3850000+00:00</time>
      </trkpt>
      <trkpt lat="48.538495" lon="11.763327">
        <ele>498.74</ele>
        <time>2022-05-12T08:59:32.3230000+00:00</time>
      </trkpt>
      <trkpt lat="48.538436" lon="11.763141">
        <ele>499.6</ele>
        <time>2022-05-12T08:59:36.0320000+00:00</time>
      </trkpt>
      <trkpt lat="48.538074" lon="11.761658">
        <ele>502.18</ele>
        <time>2022-05-12T09:00:04.4590000+00:00</time>
      </trkpt>
      <trkpt lat="48.537967" lon="11.760398">
        <ele>501.38</ele>
        <time>2022-05-12T09:00:27.3060000+00:00</time>
      </trkpt>
      <trkpt lat="48.537741" lon="11.7595">
        <ele>501.21</ele>
        <time>2022-05-12T09:00:44.5840000+00:00</time>
      </trkpt>
      <trkpt lat="48.537276" lon="11.75817">
        <ele>502.49</ele>
        <time>2022-05-12T09:01:11.6340000+00:00</time>
      </trkpt>
      <trkpt lat="48.536719" lon="11.756238">
        <ele>510.03</ele>
        <time>2022-05-12T09:01:49.5340000+00:00</time>
      </trkpt>
      <trkpt lat="48.53648" lon="11.755965">
        <ele>511.57</ele>
        <time>2022-05-12T09:01:57.6730000+00:00</time>
      </trkpt>
      <trkpt lat="48.536776" lon="11.755273">
        <ele>513.11</ele>
        <time>2022-05-12T09:02:12.4910000+00:00</time>
      </trkpt>
      <trkpt lat="48.537535" lon="11.754466">
        <ele>511.81</ele>
        <time>2022-05-12T09:02:37.7040000+00:00</time>
      </trkpt>
      <trkpt lat="48.537535" lon="11.754466">
        <ele>511.81</ele>
        <time>2022-05-12T09:02:37.7040000+00:00</time>
      </trkpt>
      <trkpt lat="48.537986" lon="11.753676">
        <ele>512.2</ele>
        <time>2022-05-12T09:02:56.4640000+00:00</time>
      </trkpt>
      <trkpt lat="48.536577" lon="11.752935">
        <ele>511.89</ele>
        <time>2022-05-12T09:03:36.9910000+00:00</time>
      </trkpt>
      <trkpt lat="48.53606" lon="11.75275">
        <ele>508.15</ele>
        <time>2022-05-12T09:03:51.4230000+00:00</time>
      </trkpt>
      <trkpt lat="48.534883" lon="11.752143">
        <ele>500.03</ele>
        <time>2022-05-12T09:04:25.2070000+00:00</time>
      </trkpt>
      <trkpt lat="48.534053" lon="11.751624">
        <ele>498.64</ele>
        <time>2022-05-12T09:04:49.6080000+00:00</time>
      </trkpt>
      <trkpt lat="48.532815" lon="11.7507">
        <ele>497.68</ele>
        <time>2022-05-12T09:05:27.1190000+00:00</time>
      </trkpt>
      <trkpt lat="48.532088" lon="11.748819">
        <ele>498.41</ele>
        <time>2022-05-12T09:06:06.2940000+00:00</time>
      </trkpt>
      <trkpt lat="48.530941" lon="11.747962">
        <ele>495.16</ele>
        <time>2022-05-12T09:06:41.0550000+00:00</time>
      </trkpt>
      <trkpt lat="48.528611" lon="11.746711">
        <ele>497.75</ele>
        <time>2022-05-12T09:07:48.2270000+00:00</time>
      </trkpt>
      <trkpt lat="48.527788" lon="11.745929">
        <ele>501.75</ele>
        <time>2022-05-12T09:08:14.6390000+00:00</time>
      </trkpt>
      <trkpt lat="48.52762" lon="11.74572">
        <ele>501.41</ele>
        <time>2022-05-12T09:08:20.5520000+00:00</time>
      </trkpt>
      <trkpt lat="48.527269" lon="11.745444">
        <ele>501.07</ele>
        <time>2022-05-12T09:08:31.3020000+00:00</time>
      </trkpt>
      <trkpt lat="48.52701" lon="11.745221">
        <ele>500.82</ele>
        <time>2022-05-12T09:08:39.4000000+00:00</time>
      </trkpt>
      <trkpt lat="48.525726" lon="11.74382">
        <ele>502.42</ele>
        <time>2022-05-12T09:09:22.4310000+00:00</time>
      </trkpt>
      <trkpt lat="48.52479" lon="11.74328">
        <ele>508.04</ele>
        <time>2022-05-12T09:09:49.6480000+00:00</time>
      </trkpt>
      <trkpt lat="48.52428" lon="11.743066">
        <ele>507.88</ele>
        <time>2022-05-12T09:10:04.0260000+00:00</time>
      </trkpt>
      <trkpt lat="48.523486" lon="11.742801">
        <ele>503.4</ele>
        <time>2022-05-12T09:10:26.1140000+00:00</time>
      </trkpt>
      <trkpt lat="48.522951" lon="11.742268">
        <ele>501.93</ele>
        <time>2022-05-12T09:10:43.5250000+00:00</time>
      </trkpt>
      <trkpt lat="48.522634" lon="11.741527">
        <ele>503.22</ele>
        <time>2022-05-12T09:10:59.3950000+00:00</time>
      </trkpt>
      <trkpt lat="48.523009" lon="11.740409">
        <ele>505.76</ele>
        <time>2022-05-12T09:11:21.9410000+00:00</time>
      </trkpt>
      <trkpt lat="48.523112" lon="11.739824">
        <ele>503.39</ele>
        <time>2022-05-12T09:11:32.8310000+00:00</time>
      </trkpt>
      <trkpt lat="48.523265" lon="11.738537">
        <ele>497.53</ele>
        <time>2022-05-12T09:11:56.3550000+00:00</time>
      </trkpt>
      <trkpt lat="48.523455" lon="11.73676">
        <ele>494.34</ele>
        <time>2022-05-12T09:12:28.7380000+00:00</time>
      </trkpt>
      <trkpt lat="48.523901" lon="11.735723">
        <ele>488.62</ele>
        <time>2022-05-12T09:12:50.9820000+00:00</time>
      </trkpt>
      <trkpt lat="48.524408" lon="11.735158">
        <ele>483.67</ele>
        <time>2022-05-12T09:13:08.0990000+00:00</time>
      </trkpt>
      <trkpt lat="48.52478" lon="11.734841">
        <ele>481.34</ele>
        <time>2022-05-12T09:13:19.7010000+00:00</time>
      </trkpt>
      <trkpt lat="48.524552" lon="11.733111">
        <ele>484.27</ele>
        <time>2022-05-12T09:13:51.4340000+00:00</time>
      </trkpt>
      <trkpt lat="48.524549" lon="11.731469">
        <ele>488.51</ele>
        <time>2022-05-12T09:14:20.9740000+00:00</time>
      </trkpt>
      <trkpt lat="48.524918" lon="11.729326">
        <ele>498.88</ele>
        <time>2022-05-12T09:15:00.8080000+00:00</time>
      </trkpt>
      <trkpt lat="48.525062" lon="11.727099">
        <ele>511.8</ele>
        <time>2022-05-12T09:15:41.0620000+00:00</time>
      </trkpt>
      <trkpt lat="48.525418" lon="11.725883">
        <ele>508.05</ele>
        <time>2022-05-12T09:16:04.9800000+00:00</time>
      </trkpt>
      <trkpt lat="48.525879" lon="11.724931">
        <ele>508.65</ele>
        <time>2022-05-12T09:16:26.1950000+00:00</time>
      </trkpt>
      <trkpt lat="48.525968" lon="11.724594">
        <ele>510.32</ele>
        <time>2022-05-12T09:16:32.7220000+00:00</time>
      </trkpt>
      <trkpt lat="48.526116" lon="11.724165">
        <ele>512.65</ele>
        <time>2022-05-12T09:16:41.4240000+00:00</time>
      </trkpt>
      <trkpt lat="48.526158" lon="11.723108">
        <ele>515.27</ele>
        <time>2022-05-12T09:17:00.4730000+00:00</time>
      </trkpt>
      <trkpt lat="48.52629" lon="11.721848">
        <ele>513.03</ele>
        <time>2022-05-12T09:17:23.4220000+00:00</time>
      </trkpt>
      <trkpt lat="48.526684" lon="11.720591">
        <ele>509.61</ele>
        <time>2022-05-12T09:17:48.4390000+00:00</time>
      </trkpt>
      <trkpt lat="48.52751" lon="11.71918">
        <ele>505.76</ele>
        <time>2022-05-12T09:18:22.3160000+00:00</time>
      </trkpt>
      <trkpt lat="48.527658" lon="11.717931">
        <ele>500.99</ele>
        <time>2022-05-12T09:18:45.1410000+00:00</time>
      </trkpt>
      <trkpt lat="48.527989" lon="11.717408">
        <ele>497.87</ele>
        <time>2022-05-12T09:18:58.1550000+00:00</time>
      </trkpt>
      <trkpt lat="48.528048" lon="11.716908">
        <ele>495.1</ele>
        <time>2022-05-12T09:19:07.2910000+00:00</time>
      </trkpt>
      <trkpt lat="48.528438" lon="11.716157">
        <ele>492.14</ele>
        <time>2022-05-12T09:19:24.4590000+00:00</time>
      </trkpt>
      <trkpt lat="48.529158" lon="11.714791">
        <ele>488.65</ele>
        <time>2022-05-12T09:19:55.8640000+00:00</time>
      </trkpt>
      <trkpt lat="48.529726" lon="11.712769">
        <ele>480.73</ele>
        <time>2022-05-12T09:20:35.3730000+00:00</time>
      </trkpt>
      <trkpt lat="48.529936" lon="11.712109">
        <ele>476.92</ele>
        <time>2022-05-12T09:20:48.5450000+00:00</time>
      </trkpt>
      <trkpt lat="48.53037" lon="11.711063">
        <ele>471.95</ele>
        <time>2022-05-12T09:21:10.7480000+00:00</time>
      </trkpt>
      <trkpt lat="48.530661" lon="11.710555">
        <ele>467.09</ele>
        <time>2022-05-12T09:21:22.8310000+00:00</time>
      </trkpt>
      <trkpt lat="48.531015" lon="11.709968">
        <ele>463.25</ele>
        <time>2022-05-12T09:21:37.1120000+00:00</time>
      </trkpt>
      <trkpt lat="48.531566" lon="11.707799">
        <ele>466.87</ele>
        <time>2022-05-12T09:22:18.8990000+00:00</time>
      </trkpt>
      <trkpt lat="48.530588" lon="11.707339">
        <ele>466.84</ele>
        <time>2022-05-12T09:22:46.7230000+00:00</time>
      </trkpt>
      <trkpt lat="48.530071" lon="11.706975">
        <ele>466.18</ele>
        <time>2022-05-12T09:23:02.2180000+00:00</time>
      </trkpt>
      <trkpt lat="48.529173" lon="11.706305">
        <ele>467.31</ele>
        <time>2022-05-12T09:23:29.4250000+00:00</time>
      </trkpt>
      <trkpt lat="48.528814" lon="11.706352">
        <ele>467.31</ele>
        <time>2022-05-12T09:23:39.2140000+00:00</time>
      </trkpt>
      <trkpt lat="48.528524" lon="11.706309">
        <ele>467.27</ele>
        <time>2022-05-12T09:23:47.1290000+00:00</time>
      </trkpt>
      <trkpt lat="48.527807" lon="11.70629">
        <ele>466.69</ele>
        <time>2022-05-12T09:24:06.6080000+00:00</time>
      </trkpt>
      <trkpt lat="48.526133" lon="11.705669">
        <ele>466.5</ele>
        <time>2022-05-12T09:24:53.4310000+00:00</time>
      </trkpt>
      <trkpt lat="48.526035" lon="11.704856">
        <ele>468.19</ele>
        <time>2022-05-12T09:25:08.2960000+00:00</time>
      </trkpt>
      <trkpt lat="48.525822" lon="11.703395">
        <ele>470.16</ele>
        <time>2022-05-12T09:25:35.2080000+00:00</time>
      </trkpt>
      <trkpt lat="48.52573" lon="11.702429">
        <ele>470.9</ele>
        <time>2022-05-12T09:25:52.7650000+00:00</time>
      </trkpt>
      <trkpt lat="48.525861" lon="11.700898">
        <ele>474.82</ele>
        <time>2022-05-12T09:26:20.5360000+00:00</time>
      </trkpt>
      <trkpt lat="48.525709" lon="11.700022">
        <ele>473.9</ele>
        <time>2022-05-12T09:26:36.8270000+00:00</time>
      </trkpt>
      <trkpt lat="48.525363" lon="11.699075">
        <ele>473.8</ele>
        <time>2022-05-12T09:26:56.2840000+00:00</time>
      </trkpt>
      <trkpt lat="48.524883" lon="11.697953">
        <ele>472.79</ele>
        <time>2022-05-12T09:27:20.3130000+00:00</time>
      </trkpt>
      <trkpt lat="48.524836" lon="11.697121">
        <ele>473.89</ele>
        <time>2022-05-12T09:27:35.3350000+00:00</time>
      </trkpt>
      <trkpt lat="48.524669" lon="11.696268">
        <ele>474.46</ele>
        <time>2022-05-12T09:27:51.3370000+00:00</time>
      </trkpt>
      <trkpt lat="48.524071" lon="11.695754">
        <ele>474.44</ele>
        <time>2022-05-12T09:28:10.0280000+00:00</time>
      </trkpt>
      <trkpt lat="48.523682" lon="11.695576">
        <ele>474.84</ele>
        <time>2022-05-12T09:28:21.0690000+00:00</time>
      </trkpt>
      <trkpt lat="48.523382" lon="11.69533">
        <ele>475.73</ele>
        <time>2022-05-12T09:28:30.3420000+00:00</time>
      </trkpt>
      <trkpt lat="48.523181" lon="11.694749">
        <ele>478.43</ele>
        <time>2022-05-12T09:28:42.1340000+00:00</time>
      </trkpt>
      <trkpt lat="48.523156" lon="11.694365">
        <ele>480.07</ele>
        <time>2022-05-12T09:28:49.0760000+00:00</time>
      </trkpt>
      <trkpt lat="48.522418" lon="11.693828">
        <ele>478.41</ele>
        <time>2022-05-12T09:29:11.3290000+00:00</time>
      </trkpt>
      <trkpt lat="48.522303" lon="11.693788">
        <ele>477.9</ele>
        <time>2022-05-12T09:29:14.5350000+00:00</time>
      </trkpt>
      <trkpt lat="48.521715" lon="11.69395">
        <ele>476.15</ele>
        <time>2022-05-12T09:29:30.7700000+00:00</time>
      </trkpt>
      <trkpt lat="48.521173" lon="11.693999">
        <ele>475.65</ele>
        <time>2022-05-12T09:29:45.5190000+00:00</time>
      </trkpt>
      <trkpt lat="48.519995" lon="11.693075">
        <ele>478.53</ele>
        <time>2022-05-12T09:30:21.5780000+00:00</time>
      </trkpt>
      <trkpt lat="48.518991" lon="11.691742">
        <ele>477.89</ele>
        <time>2022-05-12T09:30:57.8950000+00:00</time>
      </trkpt>
      <trkpt lat="48.518808" lon="11.691062">
        <ele>478.21</ele>
        <time>2022-05-12T09:31:11.1010000+00:00</time>
      </trkpt>
      <trkpt lat="48.518711" lon="11.688658">
        <ele>478.97</ele>
        <time>2022-05-12T09:31:54.4340000+00:00</time>
      </trkpt>
      <trkpt lat="48.518407" lon="11.687366">
        <ele>480.87</ele>
        <time>2022-05-12T09:32:19.1030000+00:00</time>
      </trkpt>
      <trkpt lat="48.518507" lon="11.685301">
        <ele>483.57</ele>
        <time>2022-05-12T09:32:56.3560000+00:00</time>
      </trkpt>
      <trkpt lat="48.51855" lon="11.684311">
        <ele>485.31</ele>
        <time>2022-05-12T09:33:14.2060000+00:00</time>
      </trkpt>
      <trkpt lat="48.518125" lon="11.683497">
        <ele>481.36</ele>
        <time>2022-05-12T09:33:32.8550000+00:00</time>
      </trkpt>
      <trkpt lat="48.517928" lon="11.682772">
        <ele>481.99</ele>
        <time>2022-05-12T09:33:46.9540000+00:00</time>
      </trkpt>
      <trkpt lat="48.517834" lon="11.681706">
        <ele>484.36</ele>
        <time>2022-05-12T09:34:06.3030000+00:00</time>
      </trkpt>
      <trkpt lat="48.517617" lon="11.679166">
        <ele>488.27</ele>
        <time>2022-05-12T09:34:52.3830000+00:00</time>
      </trkpt>
      <trkpt lat="48.517417" lon="11.677815">
        <ele>488.76</ele>
        <time>2022-05-12T09:35:17.2900000+00:00</time>
      </trkpt>
      <trkpt lat="48.517413" lon="11.676159">
        <ele>492.64</ele>
        <time>2022-05-12T09:35:47.0860000+00:00</time>
      </trkpt>
      <trkpt lat="48.517128" lon="11.675246">
        <ele>496.81</ele>
        <time>2022-05-12T09:36:05.2460000+00:00</time>
      </trkpt>
      <trkpt lat="48.517231" lon="11.674457">
        <ele>496.82</ele>
        <time>2022-05-12T09:36:19.7150000+00:00</time>
      </trkpt>
      <trkpt lat="48.517439" lon="11.673481">
        <ele>495.48</ele>
        <time>2022-05-12T09:36:38.1630000+00:00</time>
      </trkpt>
      <trkpt lat="48.51747" lon="11.672921">
        <ele>498.34</ele>
        <time>2022-05-12T09:36:48.2740000+00:00</time>
      </trkpt>
      <trkpt lat="48.517569" lon="11.672514">
        <ele>498.63</ele>
        <time>2022-05-12T09:36:56.0750000+00:00</time>
      </trkpt>
      <trkpt lat="48.517928" lon="11.671514">
        <ele>497.5</ele>
        <time>2022-05-12T09:37:16.5400000+00:00</time>
      </trkpt>
      <trkpt lat="48.518118" lon="11.669379">
        <ele>506.63</ele>
        <time>2022-05-12T09:37:55.2990000+00:00</time>
      </trkpt>
      <trkpt lat="48.518144" lon="11.668018">
        <ele>509.8</ele>
        <time>2022-05-12T09:38:19.7960000+00:00</time>
      </trkpt>
      <trkpt lat="48.518066" lon="11.666929">
        <ele>513.05</ele>
        <time>2022-05-12T09:38:39.5040000+00:00</time>
      </trkpt>
      <trkpt lat="48.518214" lon="11.665817">
        <ele>515.69</ele>
        <time>2022-05-12T09:38:59.9120000+00:00</time>
      </trkpt>
      <trkpt lat="48.518437" lon="11.664703">
        <ele>518.7</ele>
        <time>2022-05-12T09:39:20.8500000+00:00</time>
      </trkpt>
      <trkpt lat="48.518394" lon="11.663881">
        <ele>520.72</ele>
        <time>2022-05-12T09:39:35.6860000+00:00</time>
      </trkpt>
      <trkpt lat="48.51837" lon="11.663005">
        <ele>522.87</ele>
        <time>2022-05-12T09:39:51.4610000+00:00</time>
      </trkpt>
      <trkpt lat="48.51818" lon="11.661314">
        <ele>522.4</ele>
        <time>2022-05-12T09:40:22.3200000+00:00</time>
      </trkpt>
      <trkpt lat="48.517571" lon="11.657777">
        <ele>516.42</ele>
        <time>2022-05-12T09:41:28.0740000+00:00</time>
      </trkpt>
      <trkpt lat="48.517568" lon="11.656897">
        <ele>515.43</ele>
        <time>2022-05-12T09:41:43.9080000+00:00</time>
      </trkpt>
      <trkpt lat="48.517551" lon="11.656346">
        <ele>515.63</ele>
        <time>2022-05-12T09:41:53.8320000+00:00</time>
      </trkpt>
      <trkpt lat="48.517689" lon="11.65511">
        <ele>518.61</ele>
        <time>2022-05-12T09:42:16.3850000+00:00</time>
      </trkpt>
      <trkpt lat="48.517908" lon="11.654372">
        <ele>521.09</ele>
        <time>2022-05-12T09:42:30.9350000+00:00</time>
      </trkpt>
      <trkpt lat="48.517466" lon="11.654232">
        <ele>517.74</ele>
        <time>2022-05-12T09:42:43.2020000+00:00</time>
      </trkpt>
      <trkpt lat="48.516786" lon="11.654022">
        <ele>512.35</ele>
        <time>2022-05-12T09:43:02.0560000+00:00</time>
      </trkpt>
      <trkpt lat="48.516107" lon="11.653694">
        <ele>508.6</ele>
        <time>2022-05-12T09:43:21.4210000+00:00</time>
      </trkpt>
      <trkpt lat="48.515821" lon="11.652897">
        <ele>507.44</ele>
        <time>2022-05-12T09:43:37.7300000+00:00</time>
      </trkpt>
      <trkpt lat="48.515849" lon="11.652045">
        <ele>506.86</ele>
        <time>2022-05-12T09:43:53.0790000+00:00</time>
      </trkpt>
      <trkpt lat="48.515568" lon="11.650092">
        <ele>501.24</ele>
        <time>2022-05-12T09:44:29.0390000+00:00</time>
      </trkpt>
      <trkpt lat="48.515016" lon="11.649428">
        <ele>496.74</ele>
        <time>2022-05-12T09:44:48.2110000+00:00</time>
      </trkpt>
      <trkpt lat="48.51466" lon="11.647843">
        <ele>502.51</ele>
        <time>2022-05-12T09:45:18.3260000+00:00</time>
      </trkpt>
      <trkpt lat="48.514656" lon="11.646624">
        <ele>507.41</ele>
        <time>2022-05-12T09:45:40.2600000+00:00</time>
      </trkpt>
      <trkpt lat="48.514221" lon="11.643958">
        <ele>505.13</ele>
        <time>2022-05-12T09:46:29.6650000+00:00</time>
      </trkpt>
      <trkpt lat="48.513853" lon="11.643638">
        <ele>500.02</ele>
        <time>2022-05-12T09:46:41.2010000+00:00</time>
      </trkpt>
      <trkpt lat="48.512812" lon="11.643139">
        <ele>493.32</ele>
        <time>2022-05-12T09:47:10.8690000+00:00</time>
      </trkpt>
      <trkpt lat="48.511829" lon="11.64142">
        <ele>494.21</ele>
        <time>2022-05-12T09:47:51.7310000+00:00</time>
      </trkpt>
      <trkpt lat="48.511013" lon="11.639356">
        <ele>500.73</ele>
        <time>2022-05-12T09:48:34.9840000+00:00</time>
      </trkpt>
      <trkpt lat="48.510296" lon="11.639912">
        <ele>499.34</ele>
        <time>2022-05-12T09:48:56.8790000+00:00</time>
      </trkpt>
      <trkpt lat="48.509135" lon="11.640104">
        <ele>493.53</ele>
        <time>2022-05-12T09:49:28.6040000+00:00</time>
      </trkpt>
      <trkpt lat="48.508376" lon="11.641812">
        <ele>489.73</ele>
        <time>2022-05-12T09:50:05.6150000+00:00</time>
      </trkpt>
      <trkpt lat="48.507622" lon="11.645474">
        <ele>485.73</ele>
        <time>2022-05-12T09:51:14.6250000+00:00</time>
      </trkpt>
      <trkpt lat="48.507328" lon="11.645639">
        <ele>485.75</ele>
        <time>2022-05-12T09:51:23.1450000+00:00</time>
      </trkpt>
      <trkpt lat="48.507372" lon="11.644404">
        <ele>484.12</ele>
        <time>2022-05-12T09:51:45.4020000+00:00</time>
      </trkpt>
      <trkpt lat="48.507123" lon="11.640414">
        <ele>493.59</ele>
        <time>2022-05-12T09:52:57.5250000+00:00</time>
      </trkpt>
      <trkpt lat="48.506787" lon="11.6388">
        <ele>497.78</ele>
        <time>2022-05-12T09:53:27.9710000+00:00</time>
      </trkpt>
      <trkpt lat="48.506673" lon="11.637803">
        <ele>498.94</ele>
        <time>2022-05-12T09:53:46.1790000+00:00</time>
      </trkpt>
      <trkpt lat="48.50678" lon="11.636466">
        <ele>499.58</ele>
        <time>2022-05-12T09:54:10.4150000+00:00</time>
      </trkpt>
      <trkpt lat="48.506659" lon="11.6356">
        <ele>501.99</ele>
        <time>2022-05-12T09:54:26.3420000+00:00</time>
      </trkpt>
      <trkpt lat="48.506437" lon="11.634704">
        <ele>505.64</ele>
        <time>2022-05-12T09:54:43.5580000+00:00</time>
      </trkpt>
      <trkpt lat="48.506077" lon="11.63369">
        <ele>508.57</ele>
        <time>2022-05-12T09:55:04.2610000+00:00</time>
      </trkpt>
      <trkpt lat="48.505474" lon="11.631512">
        <ele>516.73</ele>
        <time>2022-05-12T09:55:46.7430000+00:00</time>
      </trkpt>
      <trkpt lat="48.505094" lon="11.630557">
        <ele>515.37</ele>
        <time>2022-05-12T09:56:06.7910000+00:00</time>
      </trkpt>
      <trkpt lat="48.504991" lon="11.629392">
        <ele>514.69</ele>
        <time>2022-05-12T09:56:27.9430000+00:00</time>
      </trkpt>
      <trkpt lat="48.504751" lon="11.62867">
        <ele>509.93</ele>
        <time>2022-05-12T09:56:42.4810000+00:00</time>
      </trkpt>
      <trkpt lat="48.504199" lon="11.628329">
        <ele>504.94</ele>
        <time>2022-05-12T09:56:58.6820000+00:00</time>
      </trkpt>
      <trkpt lat="48.504229" lon="11.627304">
        <ele>504</ele>
        <time>2022-05-12T09:57:17.1470000+00:00</time>
      </trkpt>
      <trkpt lat="48.503982" lon="11.627224">
        <ele>503.03</ele>
        <time>2022-05-12T09:57:24.0090000+00:00</time>
      </trkpt>
      <trkpt lat="48.503632" lon="11.627069">
        <ele>502.16</ele>
        <time>2022-05-12T09:57:33.9170000+00:00</time>
      </trkpt>
      <trkpt lat="48.502835" lon="11.626267">
        <ele>504.44</ele>
        <time>2022-05-12T09:57:59.9370000+00:00</time>
      </trkpt>
      <trkpt lat="48.501673" lon="11.624785">
        <ele>501.36</ele>
        <time>2022-05-12T09:58:41.2610000+00:00</time>
      </trkpt>
      <trkpt lat="48.500912" lon="11.624553">
        <ele>499.77</ele>
        <time>2022-05-12T09:59:02.3500000+00:00</time>
      </trkpt>
      <trkpt lat="48.499486" lon="11.625129">
        <ele>503.34</ele>
        <time>2022-05-12T09:59:42.4470000+00:00</time>
      </trkpt>
      <trkpt lat="48.498909" lon="11.625398">
        <ele>503.75</ele>
        <time>2022-05-12T09:59:58.8510000+00:00</time>
      </trkpt>
      <trkpt lat="48.498121" lon="11.625879">
        <ele>502.32</ele>
        <time>2022-05-12T10:00:21.9400000+00:00</time>
      </trkpt>
      <trkpt lat="48.495648" lon="11.627702">
        <ele>503.95</ele>
        <time>2022-05-12T10:01:36.7010000+00:00</time>
      </trkpt>
      <trkpt lat="48.492934" lon="11.6281">
        <ele>503.71</ele>
        <time>2022-05-12T10:02:50.7680000+00:00</time>
      </trkpt>
      <trkpt lat="48.491522" lon="11.627944">
        <ele>504.57</ele>
        <time>2022-05-12T10:03:29.2250000+00:00</time>
      </trkpt>
      <trkpt lat="48.490195" lon="11.627502">
        <ele>501.64</ele>
        <time>2022-05-12T10:04:06.1380000+00:00</time>
      </trkpt>
      <trkpt lat="48.48808" lon="11.627801">
        <ele>501.99</ele>
        <time>2022-05-12T10:05:03.8400000+00:00</time>
      </trkpt>
      <trkpt lat="48.487404" lon="11.627805">
        <ele>503.25</ele>
        <time>2022-05-12T10:05:22.2020000+00:00</time>
      </trkpt>
      <trkpt lat="48.48643" lon="11.627572">
        <ele>501.49</ele>
        <time>2022-05-12T10:05:48.9890000+00:00</time>
      </trkpt>
      <trkpt lat="48.486053" lon="11.627754">
        <ele>501.27</ele>
        <time>2022-05-12T10:05:59.7410000+00:00</time>
      </trkpt>
      <trkpt lat="48.484956" lon="11.628512">
        <ele>500.91</ele>
        <time>2022-05-12T10:06:32.5150000+00:00</time>
      </trkpt>
      <trkpt lat="48.483202" lon="11.629863">
        <ele>498.81</ele>
        <time>2022-05-12T10:07:26.0090000+00:00</time>
      </trkpt>
      <trkpt lat="48.482492" lon="11.630177">
        <ele>498.32</ele>
        <time>2022-05-12T10:07:46.1070000+00:00</time>
      </trkpt>
      <trkpt lat="48.482561" lon="11.6296">
        <ele>497.71</ele>
        <time>2022-05-12T10:07:56.6630000+00:00</time>
      </trkpt>
      <trkpt lat="48.482753" lon="11.627599">
        <ele>493.71</ele>
        <time>2022-05-12T10:08:33.0670000+00:00</time>
      </trkpt>
      <trkpt lat="48.482807" lon="11.625046">
        <ele>487.2</ele>
        <time>2022-05-12T10:09:19.0560000+00:00</time>
      </trkpt>
      <trkpt lat="48.482786" lon="11.623276">
        <ele>491.92</ele>
        <time>2022-05-12T10:09:50.9300000+00:00</time>
      </trkpt>
      <trkpt lat="48.48295" lon="11.622011">
        <ele>488.39</ele>
        <time>2022-05-12T10:10:14.1380000+00:00</time>
      </trkpt>
      <trkpt lat="48.482796" lon="11.621552">
        <ele>484.75</ele>
        <time>2022-05-12T10:10:23.4000000+00:00</time>
      </trkpt>
      <trkpt lat="48.482367" lon="11.621463">
        <ele>478.94</ele>
        <time>2022-05-12T10:10:35.1630000+00:00</time>
      </trkpt>
      <trkpt lat="48.480731" lon="11.621244">
        <ele>469.76</ele>
        <time>2022-05-12T10:11:19.7760000+00:00</time>
      </trkpt>
      <trkpt lat="48.47975" lon="11.620355">
        <ele>466.33</ele>
        <time>2022-05-12T10:11:50.8610000+00:00</time>
      </trkpt>
      <trkpt lat="48.479078" lon="11.620291">
        <ele>471.4</ele>
        <time>2022-05-12T10:12:09.1510000+00:00</time>
      </trkpt>
      <trkpt lat="48.478541" lon="11.619926">
        <ele>469.39</ele>
        <time>2022-05-12T10:12:25.1500000+00:00</time>
      </trkpt>
      <trkpt lat="48.477945" lon="11.619908">
        <ele>469.13</ele>
        <time>2022-05-12T10:12:41.3430000+00:00</time>
      </trkpt>
      <trkpt lat="48.476848" lon="11.620812">
        <ele>477.23</ele>
        <time>2022-05-12T10:13:15.2970000+00:00</time>
      </trkpt>
      <trkpt lat="48.475941" lon="11.621297">
        <ele>475.1</ele>
        <time>2022-05-12T10:13:41.4360000+00:00</time>
      </trkpt>
      <trkpt lat="48.475361" lon="11.621347">
        <ele>466.93</ele>
        <time>2022-05-12T10:13:57.2160000+00:00</time>
      </trkpt>
      <trkpt lat="48.473952" lon="11.620437">
        <ele>461.05</ele>
        <time>2022-05-12T10:14:38.8490000+00:00</time>
      </trkpt>
      <trkpt lat="48.473186" lon="11.620075">
        <ele>466.32</ele>
        <time>2022-05-12T10:15:00.6530000+00:00</time>
      </trkpt>
      <trkpt lat="48.472357" lon="11.61877">
        <ele>465.6</ele>
        <time>2022-05-12T10:15:33.2010000+00:00</time>
      </trkpt>
      <trkpt lat="48.472064" lon="11.618083">
        <ele>460.92</ele>
        <time>2022-05-12T10:15:47.9120000+00:00</time>
      </trkpt>
      <trkpt lat="48.472002" lon="11.617692">
        <ele>458.39</ele>
        <time>2022-05-12T10:15:55.1520000+00:00</time>
      </trkpt>
      <trkpt lat="48.471879" lon="11.61744">
        <ele>459</ele>
        <time>2022-05-12T10:16:00.7870000+00:00</time>
      </trkpt>
      <trkpt lat="48.471205" lon="11.616917">
        <ele>455.68</ele>
        <time>2022-05-12T10:16:21.3760000+00:00</time>
      </trkpt>
      <trkpt lat="48.471066" lon="11.616208">
        <ele>453.87</ele>
        <time>2022-05-12T10:16:34.6910000+00:00</time>
      </trkpt>
      <trkpt lat="48.47142" lon="11.616244">
        <ele>454.41</ele>
        <time>2022-05-12T10:16:44.3290000+00:00</time>
      </trkpt>
      <trkpt lat="48.471899" lon="11.61586">
        <ele>454.13</ele>
        <time>2022-05-12T10:16:59.0630000+00:00</time>
      </trkpt>
      <trkpt lat="48.472577" lon="11.614906">
        <ele>453.5</ele>
        <time>2022-05-12T10:17:24.2490000+00:00</time>
      </trkpt>
      <trkpt lat="48.473027" lon="11.614224">
        <ele>454.55</ele>
        <time>2022-05-12T10:17:41.5770000+00:00</time>
      </trkpt>
      <trkpt lat="48.474332" lon="11.61241">
        <ele>457.7</ele>
        <time>2022-05-12T10:18:29.7810000+00:00</time>
      </trkpt>
      <trkpt lat="48.474633" lon="11.611762">
        <ele>457.27</ele>
        <time>2022-05-12T10:18:44.0290000+00:00</time>
      </trkpt>
      <trkpt lat="48.475638" lon="11.610259">
        <ele>462.05</ele>
        <time>2022-05-12T10:19:22.4710000+00:00</time>
      </trkpt>
      <trkpt lat="48.477749" lon="11.6087">
        <ele>458.52</ele>
        <time>2022-05-12T10:20:26.3150000+00:00</time>
      </trkpt>
      <trkpt lat="48.478259" lon="11.608459">
        <ele>461.05</ele>
        <time>2022-05-12T10:20:40.8320000+00:00</time>
      </trkpt>
      <trkpt lat="48.478405" lon="11.609408">
        <ele>464.13</ele>
        <time>2022-05-12T10:20:58.3750000+00:00</time>
      </trkpt>
      <trkpt lat="48.478533" lon="11.610001">
        <ele>465.03</ele>
        <time>2022-05-12T10:21:09.6040000+00:00</time>
      </trkpt>
      <trkpt lat="48.478747" lon="11.61062">
        <ele>464.53</ele>
        <time>2022-05-12T10:21:22.1750000+00:00</time>
      </trkpt>
      <trkpt lat="48.479663" lon="11.611301">
        <ele>463.96</ele>
        <time>2022-05-12T10:21:49.9140000+00:00</time>
      </trkpt>
      <trkpt lat="48.480181" lon="11.611685">
        <ele>465.8</ele>
        <time>2022-05-12T10:22:05.5910000+00:00</time>
      </trkpt>
      <trkpt lat="48.480956" lon="11.611859">
        <ele>466.47</ele>
        <time>2022-05-12T10:22:26.8740000+00:00</time>
      </trkpt>
      <trkpt lat="48.482009" lon="11.611672">
        <ele>468.06</ele>
        <time>2022-05-12T10:22:55.6740000+00:00</time>
      </trkpt>
      <trkpt lat="48.482585" lon="11.611549">
        <ele>468.15</ele>
        <time>2022-05-12T10:23:11.4760000+00:00</time>
      </trkpt>
      <trkpt lat="48.482882" lon="11.611367">
        <ele>466.81</ele>
        <time>2022-05-12T10:23:20.1840000+00:00</time>
      </trkpt>
      <trkpt lat="48.483457" lon="11.611004">
        <ele>468.46</ele>
        <time>2022-05-12T10:23:37.1150000+00:00</time>
      </trkpt>
      <trkpt lat="48.484569" lon="11.610697">
        <ele>469.12</ele>
        <time>2022-05-12T10:24:07.8220000+00:00</time>
      </trkpt>
      <trkpt lat="48.485724" lon="11.610447">
        <ele>467.9</ele>
        <time>2022-05-12T10:24:39.5160000+00:00</time>
      </trkpt>
      <trkpt lat="48.48664" lon="11.610441">
        <ele>467.09</ele>
        <time>2022-05-12T10:25:04.3980000+00:00</time>
      </trkpt>
      <trkpt lat="48.488739" lon="11.610212">
        <ele>473.65</ele>
        <time>2022-05-12T10:26:01.5620000+00:00</time>
      </trkpt>
      <trkpt lat="48.49047" lon="11.608608">
        <ele>480.13</ele>
        <time>2022-05-12T10:26:56.7400000+00:00</time>
      </trkpt>
      <trkpt lat="48.490882" lon="11.607983">
        <ele>479.97</ele>
        <time>2022-05-12T10:27:12.6090000+00:00</time>
      </trkpt>
      <trkpt lat="48.491923" lon="11.60769">
        <ele>484.81</ele>
        <time>2022-05-12T10:27:41.3730000+00:00</time>
      </trkpt>
      <trkpt lat="48.492411" lon="11.607425">
        <ele>485.26</ele>
        <time>2022-05-12T10:27:55.4610000+00:00</time>
      </trkpt>
      <trkpt lat="48.493335" lon="11.604948">
        <ele>484.5</ele>
        <time>2022-05-12T10:28:46.6290000+00:00</time>
      </trkpt>
      <trkpt lat="48.494183" lon="11.603659">
        <ele>485.04</ele>
        <time>2022-05-12T10:29:19.3240000+00:00</time>
      </trkpt>
      <trkpt lat="48.495145" lon="11.603248">
        <ele>487.36</ele>
        <time>2022-05-12T10:29:46.4820000+00:00</time>
      </trkpt>
      <trkpt lat="48.496331" lon="11.602931">
        <ele>487.27</ele>
        <time>2022-05-12T10:30:19.1990000+00:00</time>
      </trkpt>
      <trkpt lat="48.496819" lon="11.602595">
        <ele>485.14</ele>
        <time>2022-05-12T10:30:33.7690000+00:00</time>
      </trkpt>
      <trkpt lat="48.497538" lon="11.600166">
        <ele>487.69</ele>
        <time>2022-05-12T10:31:21.6540000+00:00</time>
      </trkpt>
      <trkpt lat="48.497867" lon="11.599546">
        <ele>490.71</ele>
        <time>2022-05-12T10:31:35.9510000+00:00</time>
      </trkpt>
      <trkpt lat="48.498483" lon="11.599565">
        <ele>489.41</ele>
        <time>2022-05-12T10:31:52.6870000+00:00</time>
      </trkpt>
      <trkpt lat="48.499368" lon="11.599915">
        <ele>490.1</ele>
        <time>2022-05-12T10:32:17.5380000+00:00</time>
      </trkpt>
      <trkpt lat="48.499597" lon="11.598293">
        <ele>494.55</ele>
        <time>2022-05-12T10:32:47.3880000+00:00</time>
      </trkpt>
      <trkpt lat="48.49992" lon="11.595844">
        <ele>497.72</ele>
        <time>2022-05-12T10:33:32.3310000+00:00</time>
      </trkpt>
      <trkpt lat="48.49982" lon="11.594277">
        <ele>500.78</ele>
        <time>2022-05-12T10:34:00.6660000+00:00</time>
      </trkpt>
      <trkpt lat="48.499772" lon="11.594064">
        <ele>501.86</ele>
        <time>2022-05-12T10:34:04.7150000+00:00</time>
      </trkpt>
      <trkpt lat="48.499503" lon="11.592878">
        <ele>510.51</ele>
        <time>2022-05-12T10:34:27.2780000+00:00</time>
      </trkpt>
      <trkpt lat="48.499441" lon="11.592592">
        <ele>510.85</ele>
        <time>2022-05-12T10:34:32.6940000+00:00</time>
      </trkpt>
      <trkpt lat="48.49921" lon="11.591331">
        <ele>508.83</ele>
        <time>2022-05-12T10:34:56.2420000+00:00</time>
      </trkpt>
      <trkpt lat="48.498469" lon="11.586724">
        <ele>489.7</ele>
        <time>2022-05-12T10:36:21.5720000+00:00</time>
      </trkpt>
      <trkpt lat="48.498212" lon="11.585609">
        <ele>482.36</ele>
        <time>2022-05-12T10:36:42.8210000+00:00</time>
      </trkpt>
      <trkpt lat="48.497829" lon="11.584472">
        <ele>479.15</ele>
        <time>2022-05-12T10:37:05.7790000+00:00</time>
      </trkpt>
      <trkpt lat="48.497669" lon="11.583784">
        <ele>479.91</ele>
        <time>2022-05-12T10:37:18.9030000+00:00</time>
      </trkpt>
      <trkpt lat="48.497021" lon="11.583435">
        <ele>480.36</ele>
        <time>2022-05-12T10:37:37.5920000+00:00</time>
      </trkpt>
      <trkpt lat="48.496691" lon="11.58319">
        <ele>479.76</ele>
        <time>2022-05-12T10:37:47.5820000+00:00</time>
      </trkpt>
      <trkpt lat="48.496258" lon="11.582514">
        <ele>479.02</ele>
        <time>2022-05-12T10:38:04.5050000+00:00</time>
      </trkpt>
      <trkpt lat="48.496377" lon="11.581371">
        <ele>480.01</ele>
        <time>2022-05-12T10:38:25.3320000+00:00</time>
      </trkpt>
      <trkpt lat="48.495843" lon="11.581097">
        <ele>480.04</ele>
        <time>2022-05-12T10:38:40.6520000+00:00</time>
      </trkpt>
      <trkpt lat="48.495166" lon="11.581102">
        <ele>480.75</ele>
        <time>2022-05-12T10:38:59.0420000+00:00</time>
      </trkpt>
      <trkpt lat="48.495242" lon="11.580259">
        <ele>481.35</ele>
        <time>2022-05-12T10:39:14.3560000+00:00</time>
      </trkpt>
      <trkpt lat="48.495456" lon="11.578357">
        <ele>485.6</ele>
        <time>2022-05-12T10:39:49.0830000+00:00</time>
      </trkpt>
      <trkpt lat="48.495586" lon="11.57484">
        <ele>494</ele>
        <time>2022-05-12T10:40:52.4880000+00:00</time>
      </trkpt>
      <trkpt lat="48.494975" lon="11.571686">
        <ele>502.59</ele>
        <time>2022-05-12T10:41:51.6380000+00:00</time>
      </trkpt>
      <trkpt lat="48.494464" lon="11.569932">
        <ele>504.52</ele>
        <time>2022-05-12T10:42:26.1270000+00:00</time>
      </trkpt>
      <trkpt lat="48.494585" lon="11.568649">
        <ele>502.94</ele>
        <time>2022-05-12T10:42:49.4550000+00:00</time>
      </trkpt>
      <trkpt lat="48.494818" lon="11.567459">
        <ele>502.25</ele>
        <time>2022-05-12T10:43:11.7910000+00:00</time>
      </trkpt>
      <trkpt lat="48.494349" lon="11.564294">
        <ele>496.37</ele>
        <time>2022-05-12T10:44:10.1700000+00:00</time>
      </trkpt>
      <trkpt lat="48.493645" lon="11.561877">
        <ele>493.03</ele>
        <time>2022-05-12T10:44:57.6950000+00:00</time>
      </trkpt>
      <trkpt lat="48.493338" lon="11.559861">
        <ele>500.32</ele>
        <time>2022-05-12T10:45:34.9310000+00:00</time>
      </trkpt>
      <trkpt lat="48.493616" lon="11.558077">
        <ele>503.12</ele>
        <time>2022-05-12T10:46:07.9210000+00:00</time>
      </trkpt>
      <trkpt lat="48.493674" lon="11.556647">
        <ele>507.01</ele>
        <time>2022-05-12T10:46:33.7110000+00:00</time>
      </trkpt>
      <trkpt lat="48.493712" lon="11.554129">
        <ele>508.94</ele>
        <time>2022-05-12T10:47:19.0490000+00:00</time>
      </trkpt>
      <trkpt lat="48.493625" lon="11.552015">
        <ele>505.03</ele>
        <time>2022-05-12T10:47:57.1760000+00:00</time>
      </trkpt>
      <trkpt lat="48.493033" lon="11.54974">
        <ele>506.25</ele>
        <time>2022-05-12T10:48:41.1730000+00:00</time>
      </trkpt>
      <trkpt lat="48.49265" lon="11.548769">
        <ele>504.54</ele>
        <time>2022-05-12T10:49:01.5140000+00:00</time>
      </trkpt>
      <trkpt lat="48.492032" lon="11.548218">
        <ele>511.8</ele>
        <time>2022-05-12T10:49:21.0120000+00:00</time>
      </trkpt>
      <trkpt lat="48.492319" lon="11.547204">
        <ele>509.81</ele>
        <time>2022-05-12T10:49:40.8600000+00:00</time>
      </trkpt>
      <trkpt lat="48.492071" lon="11.546424">
        <ele>511.96</ele>
        <time>2022-05-12T10:49:56.4340000+00:00</time>
      </trkpt>
      <trkpt lat="48.491582" lon="11.546451">
        <ele>511.05</ele>
        <time>2022-05-12T10:50:09.7260000+00:00</time>
      </trkpt>
      <trkpt lat="48.490877" lon="11.545951">
        <ele>507.75</ele>
        <time>2022-05-12T10:50:30.8850000+00:00</time>
      </trkpt>
      <trkpt lat="48.490511" lon="11.546023">
        <ele>508.09</ele>
        <time>2022-05-12T10:50:40.9110000+00:00</time>
      </trkpt>
      <trkpt lat="48.490266" lon="11.545241">
        <ele>502.72</ele>
        <time>2022-05-12T10:50:56.4830000+00:00</time>
      </trkpt>
      <trkpt lat="48.489959" lon="11.543462">
        <ele>491.52</ele>
        <time>2022-05-12T10:51:29.5760000+00:00</time>
      </trkpt>
      <trkpt lat="48.488948" lon="11.543352">
        <ele>484.09</ele>
        <time>2022-05-12T10:51:57.1100000+00:00</time>
      </trkpt>
      <trkpt lat="48.487777" lon="11.542578">
        <ele>477.46</ele>
        <time>2022-05-12T10:52:31.8360000+00:00</time>
      </trkpt>
      <trkpt lat="48.487634" lon="11.542199">
        <ele>477.37</ele>
        <time>2022-05-12T10:52:39.6870000+00:00</time>
      </trkpt>
      <trkpt lat="48.487493" lon="11.53994">
        <ele>474.51</ele>
        <time>2022-05-12T10:53:20.5360000+00:00</time>
      </trkpt>
      <trkpt lat="48.487217" lon="11.538042">
        <ele>472.51</ele>
        <time>2022-05-12T10:53:55.5190000+00:00</time>
      </trkpt>
      <trkpt lat="48.487192" lon="11.535477">
        <ele>470.78</ele>
        <time>2022-05-12T10:54:41.7030000+00:00</time>
      </trkpt>
      <trkpt lat="48.486776" lon="11.534079">
        <ele>477.39</ele>
        <time>2022-05-12T10:55:09.2910000+00:00</time>
      </trkpt>
      <trkpt lat="48.484967" lon="11.531791">
        <ele>463.1</ele>
        <time>2022-05-12T10:56:13.4110000+00:00</time>
      </trkpt>
      <trkpt lat="48.483982" lon="11.530247">
        <ele>458.1</ele>
        <time>2022-05-12T10:56:51.9940000+00:00</time>
      </trkpt>
      <trkpt lat="48.483982" lon="11.530247">
        <ele>458.1</ele>
        <time>2022-05-12T10:56:51.9940000+00:00</time>
      </trkpt>
      <trkpt lat="48.48334" lon="11.527545">
        <ele>460.54</ele>
        <time>2022-05-12T10:57:43.6730000+00:00</time>
      </trkpt>
      <trkpt lat="48.483267" lon="11.526419">
        <ele>459.55</ele>
        <time>2022-05-12T10:58:04.0440000+00:00</time>
      </trkpt>
      <trkpt lat="48.48314" lon="11.524768">
        <ele>458.9</ele>
        <time>2022-05-12T10:58:33.9690000+00:00</time>
      </trkpt>
      <trkpt lat="48.482625" lon="11.522208">
        <ele>470.08</ele>
        <time>2022-05-12T10:59:22.1370000+00:00</time>
      </trkpt>
      <trkpt lat="48.482442" lon="11.519977">
        <ele>456.88</ele>
        <time>2022-05-12T11:00:02.6130000+00:00</time>
      </trkpt>
      <trkpt lat="48.48289" lon="11.517456">
        <ele>453.59</ele>
        <time>2022-05-12T11:00:49.6060000+00:00</time>
      </trkpt>
      <trkpt lat="48.483527" lon="11.514757">
        <ele>449.06</ele>
        <time>2022-05-12T11:01:41.1890000+00:00</time>
      </trkpt>
      <trkpt lat="48.483719" lon="11.511573">
        <ele>448.89</ele>
        <time>2022-05-12T11:02:38.7530000+00:00</time>
      </trkpt>
      <trkpt lat="48.484097" lon="11.510601">
        <ele>447.85</ele>
        <time>2022-05-12T11:02:59.0430000+00:00</time>
      </trkpt>
      <trkpt lat="48.484097" lon="11.510601">
        <ele>447.85</ele>
        <time>2022-05-12T11:02:59.0430000+00:00</time>
      </trkpt>
      <trkpt lat="48.484324" lon="11.510232">
        <ele>447.6</ele>
        <time>2022-05-12T11:03:08.1070000+00:00</time>
      </trkpt>
      <trkpt lat="48.484465" lon="11.510015">
        <ele>447.58</ele>
        <time>2022-05-12T11:03:13.5780000+00:00</time>
      </trkpt>
      <trkpt lat="48.484982" lon="11.509551">
        <ele>445.97</ele>
        <time>2022-05-12T11:03:29.9180000+00:00</time>
      </trkpt>
      <trkpt lat="48.485623" lon="11.509338">
        <ele>443.68</ele>
        <time>2022-05-12T11:03:47.7470000+00:00</time>
      </trkpt>
      <trkpt lat="48.486572" lon="11.508956">
        <ele>439.83</ele>
        <time>2022-05-12T11:04:14.4260000+00:00</time>
      </trkpt>
      <trkpt lat="48.486572" lon="11.508956">
        <ele>439.83</ele>
        <time>2022-05-12T11:04:14.4260000+00:00</time>
      </trkpt>
      <trkpt lat="48.486588" lon="11.508079">
        <ele>438.59</ele>
        <time>2022-05-12T11:04:30.2210000+00:00</time>
      </trkpt>
      <trkpt lat="48.486716" lon="11.506091">
        <ele>437.09</ele>
        <time>2022-05-12T11:05:06.1810000+00:00</time>
      </trkpt>
      <trkpt lat="48.486848" lon="11.505155">
        <ele>437.72</ele>
        <time>2022-05-12T11:05:23.4090000+00:00</time>
      </trkpt>
      <trkpt lat="48.486919" lon="11.503547">
        <ele>438.36</ele>
        <time>2022-05-12T11:05:52.4230000+00:00</time>
      </trkpt>
      <trkpt lat="48.486918" lon="11.503196">
        <ele>439.35</ele>
        <time>2022-05-12T11:05:58.7420000+00:00</time>
      </trkpt>
      <trkpt lat="48.486759" lon="11.502292">
        <ele>442.53</ele>
        <time>2022-05-12T11:06:15.5800000+00:00</time>
      </trkpt>
      <trkpt lat="48.486737" lon="11.501737">
        <ele>444.85</ele>
        <time>2022-05-12T11:06:25.5900000+00:00</time>
      </trkpt>
      <trkpt lat="48.487125" lon="11.501646">
        <ele>447.68</ele>
        <time>2022-05-12T11:06:36.2560000+00:00</time>
      </trkpt>
      <trkpt lat="48.487726" lon="11.501319">
        <ele>452.29</ele>
        <time>2022-05-12T11:06:53.6100000+00:00</time>
      </trkpt>
      <trkpt lat="48.488423" lon="11.500962">
        <ele>459.16</ele>
        <time>2022-05-12T11:07:13.6040000+00:00</time>
      </trkpt>
      <trkpt lat="48.489296" lon="11.500486">
        <ele>460.98</ele>
        <time>2022-05-12T11:07:38.8180000+00:00</time>
      </trkpt>
      <trkpt lat="48.489817" lon="11.499838">
        <ele>461.98</ele>
        <time>2022-05-12T11:07:57.1580000+00:00</time>
      </trkpt>
      <trkpt lat="48.490048" lon="11.499164">
        <ele>464.23</ele>
        <time>2022-05-12T11:08:10.8180000+00:00</time>
      </trkpt>
      <trkpt lat="48.490243" lon="11.497849">
        <ele>464.32</ele>
        <time>2022-05-12T11:08:35.0760000+00:00</time>
      </trkpt>
      <trkpt lat="48.490309" lon="11.49579">
        <ele>465.34</ele>
        <time>2022-05-12T11:09:12.1860000+00:00</time>
      </trkpt>
      <trkpt lat="48.490627" lon="11.49266">
        <ele>474.94</ele>
        <time>2022-05-12T11:10:09.1910000+00:00</time>
      </trkpt>
      <trkpt lat="48.491655" lon="11.490705">
        <ele>479.21</ele>
        <time>2022-05-12T11:10:54.1170000+00:00</time>
      </trkpt>
      <trkpt lat="48.492078" lon="11.486831">
        <ele>476.08</ele>
        <time>2022-05-12T11:12:04.7960000+00:00</time>
      </trkpt>
      <trkpt lat="48.492571" lon="11.483934">
        <ele>483.47</ele>
        <time>2022-05-12T11:12:58.6380000+00:00</time>
      </trkpt>
      <trkpt lat="48.493305" lon="11.482904">
        <ele>489.36</ele>
        <time>2022-05-12T11:13:25.8640000+00:00</time>
      </trkpt>
      <trkpt lat="48.494832" lon="11.481241">
        <ele>491.87</ele>
        <time>2022-05-12T11:14:17.0170000+00:00</time>
      </trkpt>
      <trkpt lat="48.4951" lon="11.480274">
        <ele>491.36</ele>
        <time>2022-05-12T11:14:35.8840000+00:00</time>
      </trkpt>
      <trkpt lat="48.49519" lon="11.478549">
        <ele>487.44</ele>
        <time>2022-05-12T11:15:07.0310000+00:00</time>
      </trkpt>
      <trkpt lat="48.495147" lon="11.477614">
        <ele>486.96</ele>
        <time>2022-05-12T11:15:23.9020000+00:00</time>
      </trkpt>
      <trkpt lat="48.494998" lon="11.474606">
        <ele>488.21</ele>
        <time>2022-05-12T11:16:18.1980000+00:00</time>
      </trkpt>
      <trkpt lat="48.495069" lon="11.473056">
        <ele>487.51</ele>
        <time>2022-05-12T11:16:46.1660000+00:00</time>
      </trkpt>
      <trkpt lat="48.495546" lon="11.471006">
        <ele>488.39</ele>
        <time>2022-05-12T11:17:25.2750000+00:00</time>
      </trkpt>
      <trkpt lat="48.495776" lon="11.470302">
        <ele>492.52</ele>
        <time>2022-05-12T11:17:39.4040000+00:00</time>
      </trkpt>
      <trkpt lat="48.496275" lon="11.468982">
        <ele>493.59</ele>
        <time>2022-05-12T11:18:06.7580000+00:00</time>
      </trkpt>
      <trkpt lat="48.497044" lon="11.467046">
        <ele>497.24</ele>
        <time>2022-05-12T11:18:47.3870000+00:00</time>
      </trkpt>
      <trkpt lat="48.497117" lon="11.466022">
        <ele>499.58</ele>
        <time>2022-05-12T11:19:05.9250000+00:00</time>
      </trkpt>
      <trkpt lat="48.49699" lon="11.463685">
        <ele>498.78</ele>
        <time>2022-05-12T11:19:48.1320000+00:00</time>
      </trkpt>
      <trkpt lat="48.496858" lon="11.460238">
        <ele>489</ele>
        <time>2022-05-12T11:20:50.2810000+00:00</time>
      </trkpt>
      <trkpt lat="48.496845" lon="11.45812">
        <ele>497.58</ele>
        <time>2022-05-12T11:21:28.4060000+00:00</time>
      </trkpt>
      <trkpt lat="48.496965" lon="11.456856">
        <ele>498.81</ele>
        <time>2022-05-12T11:21:51.3910000+00:00</time>
      </trkpt>
      <trkpt lat="48.497173" lon="11.456509">
        <ele>497.25</ele>
        <time>2022-05-12T11:21:59.8130000+00:00</time>
      </trkpt>
      <trkpt lat="48.497605" lon="11.455122">
        <ele>488.23</ele>
        <time>2022-05-12T11:22:27.3980000+00:00</time>
      </trkpt>
      <trkpt lat="48.497852" lon="11.454429">
        <ele>487.73</ele>
        <time>2022-05-12T11:22:41.5620000+00:00</time>
      </trkpt>
      <trkpt lat="48.498431" lon="11.453293">
        <ele>484.83</ele>
        <time>2022-05-12T11:23:07.3580000+00:00</time>
      </trkpt>
      <trkpt lat="48.499452" lon="11.45278">
        <ele>481.36</ele>
        <time>2022-05-12T11:23:36.5880000+00:00</time>
      </trkpt>
      <trkpt lat="48.499398" lon="11.453021">
        <ele>481.38</ele>
        <time>2022-05-12T11:23:41.1670000+00:00</time>
      </trkpt>
      <trkpt lat="48.499645" lon="11.453186">
        <ele>480.6</ele>
        <time>2022-05-12T11:23:48.5050000+00:00</time>
      </trkpt>
      <trkpt lat="48.499855" lon="11.45331">
        <ele>480.48</ele>
        <time>2022-05-12T11:23:54.6300000+00:00</time>
      </trkpt>
      <trkpt lat="48.501153" lon="11.45427">
        <ele>476.07</ele>
        <time>2022-05-12T11:24:33.8940000+00:00</time>
      </trkpt>
      <trkpt lat="48.502242" lon="11.455044">
        <ele>471.69</ele>
        <time>2022-05-12T11:25:06.5900000+00:00</time>
      </trkpt>
      <trkpt lat="48.502367" lon="11.455168">
        <ele>470.35</ele>
        <time>2022-05-12T11:25:10.6540000+00:00</time>
      </trkpt>
      <trkpt lat="48.503038" lon="11.455853">
        <ele>462.37</ele>
        <time>2022-05-12T11:25:32.6580000+00:00</time>
      </trkpt>
      <trkpt lat="48.504625" lon="11.456056">
        <ele>453.77</ele>
        <time>2022-05-12T11:26:15.9200000+00:00</time>
      </trkpt>
      <trkpt lat="48.506546" lon="11.456186">
        <ele>453.68</ele>
        <time>2022-05-12T11:27:08.1530000+00:00</time>
      </trkpt>
      <trkpt lat="48.507545" lon="11.455493">
        <ele>447.32</ele>
        <time>2022-05-12T11:27:38.0170000+00:00</time>
      </trkpt>
      <trkpt lat="48.508029" lon="11.456975">
        <ele>446.02</ele>
        <time>2022-05-12T11:28:07.7520000+00:00</time>
      </trkpt>
      <trkpt lat="48.508523" lon="11.458239">
        <ele>445.85</ele>
        <time>2022-05-12T11:28:34.1610000+00:00</time>
      </trkpt>
      <trkpt lat="48.508776" lon="11.458684">
        <ele>443.84</ele>
        <time>2022-05-12T11:28:44.7140000+00:00</time>
      </trkpt>
      <trkpt lat="48.50931" lon="11.458707">
        <ele>441.27</ele>
        <time>2022-05-12T11:28:59.2250000+00:00</time>
      </trkpt>
      <trkpt lat="48.510187" lon="11.457779">
        <ele>445.61</ele>
        <time>2022-05-12T11:29:28.3170000+00:00</time>
      </trkpt>
      <trkpt lat="48.511304" lon="11.459742">
        <ele>445.57</ele>
        <time>2022-05-12T11:30:14.8830000+00:00</time>
      </trkpt>
      <trkpt lat="48.512871" lon="11.461302">
        <ele>442.97</ele>
        <time>2022-05-12T11:31:05.8700000+00:00</time>
      </trkpt>
      <trkpt lat="48.514787" lon="11.463043">
        <ele>438.53</ele>
        <time>2022-05-12T11:32:06.6160000+00:00</time>
      </trkpt>
      <trkpt lat="48.514673" lon="11.465028">
        <ele>435.38</ele>
        <time>2022-05-12T11:32:42.4670000+00:00</time>
      </trkpt>
      <trkpt lat="48.514656" lon="11.465955">
        <ele>439.93</ele>
        <time>2022-05-12T11:32:59.1530000+00:00</time>
      </trkpt>
      <trkpt lat="48.514926" lon="11.466508">
        <ele>442.06</ele>
        <time>2022-05-12T11:33:11.5150000+00:00</time>
      </trkpt>
      <trkpt lat="48.515584" lon="11.466903">
        <ele>438.91</ele>
        <time>2022-05-12T11:33:30.7490000+00:00</time>
      </trkpt>
      <trkpt lat="48.515935" lon="11.46727">
        <ele>438.16</ele>
        <time>2022-05-12T11:33:42.3470000+00:00</time>
      </trkpt>
      <trkpt lat="48.516288" lon="11.468225">
        <ele>436.73</ele>
        <time>2022-05-12T11:34:02.0240000+00:00</time>
      </trkpt>
      <trkpt lat="48.517517" lon="11.472537">
        <ele>434.61</ele>
        <time>2022-05-12T11:35:26.4860000+00:00</time>
      </trkpt>
      <trkpt lat="48.517919" lon="11.475314">
        <ele>435.65</ele>
        <time>2022-05-12T11:36:17.6310000+00:00</time>
      </trkpt>
      <trkpt lat="48.518318" lon="11.477256">
        <ele>433.68</ele>
        <time>2022-05-12T11:36:54.2140000+00:00</time>
      </trkpt>
      <trkpt lat="48.51834" lon="11.47775">
        <ele>434.16</ele>
        <time>2022-05-12T11:37:03.1220000+00:00</time>
      </trkpt>
      <trkpt lat="48.518261" lon="11.478468">
        <ele>434.11</ele>
        <time>2022-05-12T11:37:16.2180000+00:00</time>
      </trkpt>
      <trkpt lat="48.518246" lon="11.479611">
        <ele>436.34</ele>
        <time>2022-05-12T11:37:36.7870000+00:00</time>
      </trkpt>
      <trkpt lat="48.518373" lon="11.480629">
        <ele>435.07</ele>
        <time>2022-05-12T11:37:55.4250000+00:00</time>
      </trkpt>
      <trkpt lat="48.51848" lon="11.481617">
        <ele>434.35</ele>
        <time>2022-05-12T11:38:13.4370000+00:00</time>
      </trkpt>
      <trkpt lat="48.519101" lon="11.483001">
        <ele>434.21</ele>
        <time>2022-05-12T11:38:43.5140000+00:00</time>
      </trkpt>
      <trkpt lat="48.519453" lon="11.483616">
        <ele>433.5</ele>
        <time>2022-05-12T11:38:58.1380000+00:00</time>
      </trkpt>
      <trkpt lat="48.519808" lon="11.484941">
        <ele>434.38</ele>
        <time>2022-05-12T11:39:23.8530000+00:00</time>
      </trkpt>
      <trkpt lat="48.520078" lon="11.485896">
        <ele>433.81</ele>
        <time>2022-05-12T11:39:42.5350000+00:00</time>
      </trkpt>
      <trkpt lat="48.520348" lon="11.486542">
        <ele>432.61</ele>
        <time>2022-05-12T11:39:56.2780000+00:00</time>
      </trkpt>
      <trkpt lat="48.520677" lon="11.486693">
        <ele>431.69</ele>
        <time>2022-05-12T11:40:05.6190000+00:00</time>
      </trkpt>
      <trkpt lat="48.520638" lon="11.487225">
        <ele>432.7</ele>
        <time>2022-05-12T11:40:15.2490000+00:00</time>
      </trkpt>
      <trkpt lat="48.520922" lon="11.488115">
        <ele>432.98</ele>
        <time>2022-05-12T11:40:33.0220000+00:00</time>
      </trkpt>
      <trkpt lat="48.521015" lon="11.48874">
        <ele>432.06</ele>
        <time>2022-05-12T11:40:44.5470000+00:00</time>
      </trkpt>
      <trkpt lat="48.521247" lon="11.489359">
        <ele>430.27</ele>
        <time>2022-05-12T11:40:57.3430000+00:00</time>
      </trkpt>
      <trkpt lat="48.521448" lon="11.490002">
        <ele>430.98</ele>
        <time>2022-05-12T11:41:10.1350000+00:00</time>
      </trkpt>
      <trkpt lat="48.521789" lon="11.490919">
        <ele>431.6</ele>
        <time>2022-05-12T11:41:29.0550000+00:00</time>
      </trkpt>
      <trkpt lat="48.522469" lon="11.492799">
        <ele>430.34</ele>
        <time>2022-05-12T11:42:07.5930000+00:00</time>
      </trkpt>
      <trkpt lat="48.522608" lon="11.493212">
        <ele>430.65</ele>
        <time>2022-05-12T11:42:15.9270000+00:00</time>
      </trkpt>
      <trkpt lat="48.523026" lon="11.494381">
        <ele>430.06</ele>
        <time>2022-05-12T11:42:39.8280000+00:00</time>
      </trkpt>
      <trkpt lat="48.523335" lon="11.495161">
        <ele>429.15</ele>
        <time>2022-05-12T11:42:56.1790000+00:00</time>
      </trkpt>
      <trkpt lat="48.523505" lon="11.495665">
        <ele>429.13</ele>
        <time>2022-05-12T11:43:06.3540000+00:00</time>
      </trkpt>
      <trkpt lat="48.52471" lon="11.498875">
        <ele>427.88</ele>
        <time>2022-05-12T11:44:12.7340000+00:00</time>
      </trkpt>
      <trkpt lat="48.525053" lon="11.499678">
        <ele>427.59</ele>
        <time>2022-05-12T11:44:29.9240000+00:00</time>
      </trkpt>
      <trkpt lat="48.525222" lon="11.500044">
        <ele>427.79</ele>
        <time>2022-05-12T11:44:37.9500000+00:00</time>
      </trkpt>
      <trkpt lat="48.525437" lon="11.500272">
        <ele>427.92</ele>
        <time>2022-05-12T11:44:45.0870000+00:00</time>
      </trkpt>
      <trkpt lat="48.52582" lon="11.50043">
        <ele>426.98</ele>
        <time>2022-05-12T11:44:55.8710000+00:00</time>
      </trkpt>
      <trkpt lat="48.526019" lon="11.500451">
        <ele>426.48</ele>
        <time>2022-05-12T11:45:01.2900000+00:00</time>
      </trkpt>
      <trkpt lat="48.526417" lon="11.500585">
        <ele>426.66</ele>
        <time>2022-05-12T11:45:12.3660000+00:00</time>
      </trkpt>
      <trkpt lat="48.526662" lon="11.500652">
        <ele>427.65</ele>
        <time>2022-05-12T11:45:19.1290000+00:00</time>
      </trkpt>
      <trkpt lat="48.527218" lon="11.500771">
        <ele>430.53</ele>
        <time>2022-05-12T11:45:34.3830000+00:00</time>
      </trkpt>
      <trkpt lat="48.527394" lon="11.501238">
        <ele>430.05</ele>
        <time>2022-05-12T11:45:44.0490000+00:00</time>
      </trkpt>
      <trkpt lat="48.527767" lon="11.502024">
        <ele>428.94</ele>
        <time>2022-05-12T11:46:01.4440000+00:00</time>
      </trkpt>
      <trkpt lat="48.527962" lon="11.502285">
        <ele>428.8</ele>
        <time>2022-05-12T11:46:08.5220000+00:00</time>
      </trkpt>
      <trkpt lat="48.528354" lon="11.503188">
        <ele>427.48</ele>
        <time>2022-05-12T11:46:27.9440000+00:00</time>
      </trkpt>
      <trkpt lat="48.528609" lon="11.503858">
        <ele>427.86</ele>
        <time>2022-05-12T11:46:41.8450000+00:00</time>
      </trkpt>
      <trkpt lat="48.528701" lon="11.504396">
        <ele>427.97</ele>
        <time>2022-05-12T11:46:51.8410000+00:00</time>
      </trkpt>
      <trkpt lat="48.528701" lon="11.504396">
        <ele>427.97</ele>
        <time>2022-05-12T11:46:51.8410000+00:00</time>
      </trkpt>
      <trkpt lat="48.52852" lon="11.504758">
        <ele>428.08</ele>
        <time>2022-05-12T11:47:00.0000000+00:00</time>
      </trkpt>
    </trkseg>
  </trk>
</gpx>